<?xml version="1.0" encoding="UTF-8" standalone="no" ?>
<gpx xmlns="http://www.topografix.com/GPX/1/1" xmlns:xsi="http://www.w3.org/2001/XMLSchema-instance" xsi:schemaLocation="http://www.topografix.com/GPX/1/1 http://www.topografix.com/GPX/1/1/gpx.xsd" version="1.1" creator="VisuGPX - https://www.visugpx.com">
  <metadata>
    <name>Col du Wettstein - Lacs Vert, Truites, Noir</name>
    <desc><![CDATA[Col du Wettstein - Lac Vert, Lac des Truites, Lac Noir]]></desc>
  </metadata>
  <trk>
    <name><![CDATA[Col du Wettstein - Lacs : Vert, Truites, Noir]]></name>
    <trkseg>
      <trkpt lat="48.08774" lon="7.11568">
        <ele>831</ele>
        <time>2015-07-08T09:49:22.1Z</time>
      </trkpt>
      <trkpt lat="48.08784" lon="7.11574">
        <ele>831</ele>
        <time>2015-07-08T09:49:24.1Z</time>
      </trkpt>
      <trkpt lat="48.08791" lon="7.11576">
        <ele>831</ele>
        <time>2015-07-08T09:49:26.1Z</time>
      </trkpt>
      <trkpt lat="48.08798" lon="7.11577">
        <ele>831</ele>
        <time>2015-07-08T09:49:28.1Z</time>
      </trkpt>
      <trkpt lat="48.08804" lon="7.11574">
        <ele>831</ele>
        <time>2015-07-08T09:49:30.1Z</time>
      </trkpt>
      <trkpt lat="48.08808" lon="7.11564">
        <ele>831</ele>
        <time>2015-07-08T09:49:33.1Z</time>
      </trkpt>
      <trkpt lat="48.08813" lon="7.11555">
        <ele>832</ele>
        <time>2015-07-08T09:49:36.1Z</time>
      </trkpt>
      <trkpt lat="48.08818" lon="7.11547">
        <ele>832</ele>
        <time>2015-07-08T09:49:38.1Z</time>
      </trkpt>
      <trkpt lat="48.08825" lon="7.11532">
        <ele>833</ele>
        <time>2015-07-08T09:49:41.1Z</time>
      </trkpt>
      <trkpt lat="48.08833" lon="7.11523">
        <ele>834</ele>
        <time>2015-07-08T09:49:43.1Z</time>
      </trkpt>
      <trkpt lat="48.0884" lon="7.1151">
        <ele>835</ele>
        <time>2015-07-08T09:49:46.1Z</time>
      </trkpt>
      <trkpt lat="48.08845" lon="7.11501">
        <ele>835</ele>
        <time>2015-07-08T09:49:48.1Z</time>
      </trkpt>
      <trkpt lat="48.08855" lon="7.11489">
        <ele>836</ele>
        <time>2015-07-08T09:49:51.1Z</time>
      </trkpt>
      <trkpt lat="48.08861" lon="7.11482">
        <ele>837</ele>
        <time>2015-07-08T09:49:53.1Z</time>
      </trkpt>
      <trkpt lat="48.08867" lon="7.11473">
        <ele>838</ele>
        <time>2015-07-08T09:49:55.1Z</time>
      </trkpt>
      <trkpt lat="48.08871" lon="7.11462">
        <ele>839</ele>
        <time>2015-07-08T09:49:58.1Z</time>
      </trkpt>
      <trkpt lat="48.08875" lon="7.11451">
        <ele>840</ele>
        <time>2015-07-08T09:50:01.1Z</time>
      </trkpt>
      <trkpt lat="48.08878" lon="7.11444">
        <ele>840</ele>
        <time>2015-07-08T09:50:03.1Z</time>
      </trkpt>
      <trkpt lat="48.08879" lon="7.11437">
        <ele>841</ele>
        <time>2015-07-08T09:50:05.1Z</time>
      </trkpt>
      <trkpt lat="48.08882" lon="7.11428">
        <ele>841</ele>
        <time>2015-07-08T09:50:08.1Z</time>
      </trkpt>
      <trkpt lat="48.08885" lon="7.1142">
        <ele>842</ele>
        <time>2015-07-08T09:50:11.1Z</time>
      </trkpt>
      <trkpt lat="48.08889" lon="7.11412">
        <ele>842</ele>
        <time>2015-07-08T09:50:14.1Z</time>
      </trkpt>
      <trkpt lat="48.08894" lon="7.11405">
        <ele>843</ele>
        <time>2015-07-08T09:50:17.1Z</time>
      </trkpt>
      <trkpt lat="48.08895" lon="7.114">
        <ele>843</ele>
        <time>2015-07-08T09:50:19.1Z</time>
      </trkpt>
      <trkpt lat="48.08897" lon="7.11395">
        <ele>843</ele>
        <time>2015-07-08T09:50:21.1Z</time>
      </trkpt>
      <trkpt lat="48.08902" lon="7.1139">
        <ele>844</ele>
        <time>2015-07-08T09:50:23.1Z</time>
      </trkpt>
      <trkpt lat="48.08906" lon="7.11382">
        <ele>845</ele>
        <time>2015-07-08T09:50:26.1Z</time>
      </trkpt>
      <trkpt lat="48.08906" lon="7.11376">
        <ele>845</ele>
        <time>2015-07-08T09:50:28.1Z</time>
      </trkpt>
      <trkpt lat="48.08908" lon="7.11369">
        <ele>846</ele>
        <time>2015-07-08T09:50:30.1Z</time>
      </trkpt>
      <trkpt lat="48.0891" lon="7.11361">
        <ele>847</ele>
        <time>2015-07-08T09:50:33.1Z</time>
      </trkpt>
      <trkpt lat="48.08913" lon="7.11351">
        <ele>848</ele>
        <time>2015-07-08T09:50:36.1Z</time>
      </trkpt>
      <trkpt lat="48.08915" lon="7.11345">
        <ele>848</ele>
        <time>2015-07-08T09:50:38.1Z</time>
      </trkpt>
      <trkpt lat="48.08916" lon="7.11333">
        <ele>848</ele>
        <time>2015-07-08T09:50:41.1Z</time>
      </trkpt>
      <trkpt lat="48.08916" lon="7.11323">
        <ele>849</ele>
        <time>2015-07-08T09:50:43.1Z</time>
      </trkpt>
      <trkpt lat="48.08915" lon="7.11312">
        <ele>849</ele>
        <time>2015-07-08T09:50:45.1Z</time>
      </trkpt>
      <trkpt lat="48.08912" lon="7.11295">
        <ele>851</ele>
        <time>2015-07-08T09:50:48.1Z</time>
      </trkpt>
      <trkpt lat="48.08911" lon="7.11287">
        <ele>851</ele>
        <time>2015-07-08T09:50:50.1Z</time>
      </trkpt>
      <trkpt lat="48.08911" lon="7.11282">
        <ele>852</ele>
        <time>2015-07-08T09:50:52.1Z</time>
      </trkpt>
      <trkpt lat="48.0891" lon="7.11273">
        <ele>853</ele>
        <time>2015-07-08T09:50:55.1Z</time>
      </trkpt>
      <trkpt lat="48.08909" lon="7.11267">
        <ele>853</ele>
        <time>2015-07-08T09:50:57.1Z</time>
      </trkpt>
      <trkpt lat="48.08906" lon="7.11256">
        <ele>854</ele>
        <time>2015-07-08T09:51:00.1Z</time>
      </trkpt>
      <trkpt lat="48.08904" lon="7.11244">
        <ele>855</ele>
        <time>2015-07-08T09:51:03.1Z</time>
      </trkpt>
      <trkpt lat="48.08901" lon="7.11235">
        <ele>856</ele>
        <time>2015-07-08T09:51:06.1Z</time>
      </trkpt>
      <trkpt lat="48.08899" lon="7.11229">
        <ele>856</ele>
        <time>2015-07-08T09:51:08.1Z</time>
      </trkpt>
      <trkpt lat="48.08894" lon="7.1122">
        <ele>856</ele>
        <time>2015-07-08T09:51:11.1Z</time>
      </trkpt>
      <trkpt lat="48.0889" lon="7.11215">
        <ele>857</ele>
        <time>2015-07-08T09:51:13.1Z</time>
      </trkpt>
      <trkpt lat="48.08884" lon="7.11208">
        <ele>858</ele>
        <time>2015-07-08T09:51:16.1Z</time>
      </trkpt>
      <trkpt lat="48.08877" lon="7.11201">
        <ele>859</ele>
        <time>2015-07-08T09:51:19.1Z</time>
      </trkpt>
      <trkpt lat="48.0887" lon="7.11192">
        <ele>860</ele>
        <time>2015-07-08T09:51:22.1Z</time>
      </trkpt>
      <trkpt lat="48.08864" lon="7.11184">
        <ele>860</ele>
        <time>2015-07-08T09:51:25.1Z</time>
      </trkpt>
      <trkpt lat="48.0886" lon="7.1118">
        <ele>861</ele>
        <time>2015-07-08T09:51:27.1Z</time>
      </trkpt>
      <trkpt lat="48.08857" lon="7.11175">
        <ele>861</ele>
        <time>2015-07-08T09:51:29.1Z</time>
      </trkpt>
      <trkpt lat="48.08852" lon="7.11168">
        <ele>862</ele>
        <time>2015-07-08T09:51:32.1Z</time>
      </trkpt>
      <trkpt lat="48.08851" lon="7.11166">
        <ele>863</ele>
        <time>2015-07-08T09:51:34.1Z</time>
      </trkpt>
      <trkpt lat="48.08849" lon="7.11163">
        <ele>863</ele>
        <time>2015-07-08T09:51:36.1Z</time>
      </trkpt>
      <trkpt lat="48.08847" lon="7.11157">
        <ele>863</ele>
        <time>2015-07-08T09:51:39.1Z</time>
      </trkpt>
      <trkpt lat="48.08847" lon="7.11155">
        <ele>863</ele>
        <time>2015-07-08T09:51:42.1Z</time>
      </trkpt>
      <trkpt lat="48.08845" lon="7.11152">
        <ele>863</ele>
        <time>2015-07-08T09:51:44.1Z</time>
      </trkpt>
      <trkpt lat="48.08844" lon="7.11148">
        <ele>863</ele>
        <time>2015-07-08T09:51:47.1Z</time>
      </trkpt>
      <trkpt lat="48.08843" lon="7.11142">
        <ele>864</ele>
        <time>2015-07-08T09:51:50.1Z</time>
      </trkpt>
      <trkpt lat="48.08842" lon="7.11138">
        <ele>864</ele>
        <time>2015-07-08T09:51:52.1Z</time>
      </trkpt>
      <trkpt lat="48.08841" lon="7.11134">
        <ele>864</ele>
        <time>2015-07-08T09:51:55.1Z</time>
      </trkpt>
      <trkpt lat="48.08839" lon="7.11127">
        <ele>864</ele>
        <time>2015-07-08T09:51:57.1Z</time>
      </trkpt>
      <trkpt lat="48.08838" lon="7.11122">
        <ele>865</ele>
        <time>2015-07-08T09:51:59.1Z</time>
      </trkpt>
      <trkpt lat="48.08836" lon="7.11116">
        <ele>865</ele>
        <time>2015-07-08T09:52:02.1Z</time>
      </trkpt>
      <trkpt lat="48.08834" lon="7.11111">
        <ele>865</ele>
        <time>2015-07-08T09:52:04.1Z</time>
      </trkpt>
      <trkpt lat="48.08833" lon="7.11102">
        <ele>865</ele>
        <time>2015-07-08T09:52:07.1Z</time>
      </trkpt>
      <trkpt lat="48.08832" lon="7.11097">
        <ele>866</ele>
        <time>2015-07-08T09:52:10.1Z</time>
      </trkpt>
      <trkpt lat="48.08831" lon="7.11088">
        <ele>867</ele>
        <time>2015-07-08T09:52:12.1Z</time>
      </trkpt>
      <trkpt lat="48.08832" lon="7.11079">
        <ele>869</ele>
        <time>2015-07-08T09:52:15.1Z</time>
      </trkpt>
      <trkpt lat="48.08833" lon="7.11073">
        <ele>870</ele>
        <time>2015-07-08T09:52:18.1Z</time>
      </trkpt>
      <trkpt lat="48.08835" lon="7.11069">
        <ele>869</ele>
        <time>2015-07-08T09:52:21.1Z</time>
      </trkpt>
      <trkpt lat="48.08836" lon="7.11065">
        <ele>869</ele>
        <time>2015-07-08T09:52:24.1Z</time>
      </trkpt>
      <trkpt lat="48.08839" lon="7.11059">
        <ele>870</ele>
        <time>2015-07-08T09:52:26.1Z</time>
      </trkpt>
      <trkpt lat="48.08842" lon="7.11052">
        <ele>869</ele>
        <time>2015-07-08T09:52:29.1Z</time>
      </trkpt>
      <trkpt lat="48.08846" lon="7.11047">
        <ele>869</ele>
        <time>2015-07-08T09:52:32.1Z</time>
      </trkpt>
      <trkpt lat="48.08849" lon="7.1104">
        <ele>870</ele>
        <time>2015-07-08T09:52:35.1Z</time>
      </trkpt>
      <trkpt lat="48.08849" lon="7.11033">
        <ele>870</ele>
        <time>2015-07-08T09:52:37.1Z</time>
      </trkpt>
      <trkpt lat="48.08849" lon="7.11026">
        <ele>871</ele>
        <time>2015-07-08T09:52:40.1Z</time>
      </trkpt>
      <trkpt lat="48.08848" lon="7.11014">
        <ele>871</ele>
        <time>2015-07-08T09:52:42.1Z</time>
      </trkpt>
      <trkpt lat="48.08847" lon="7.11004">
        <ele>872</ele>
        <time>2015-07-08T09:52:44.1Z</time>
      </trkpt>
      <trkpt lat="48.08847" lon="7.1099">
        <ele>872</ele>
        <time>2015-07-08T09:52:47.1Z</time>
      </trkpt>
      <trkpt lat="48.08847" lon="7.1098">
        <ele>872</ele>
        <time>2015-07-08T09:52:49.1Z</time>
      </trkpt>
      <trkpt lat="48.08848" lon="7.10965">
        <ele>872</ele>
        <time>2015-07-08T09:52:52.1Z</time>
      </trkpt>
      <trkpt lat="48.0885" lon="7.10951">
        <ele>872</ele>
        <time>2015-07-08T09:52:55.1Z</time>
      </trkpt>
      <trkpt lat="48.08852" lon="7.10944">
        <ele>872</ele>
        <time>2015-07-08T09:52:57.1Z</time>
      </trkpt>
      <trkpt lat="48.08853" lon="7.10935">
        <ele>872</ele>
        <time>2015-07-08T09:52:59.1Z</time>
      </trkpt>
      <trkpt lat="48.08855" lon="7.10921">
        <ele>872</ele>
        <time>2015-07-08T09:53:02.1Z</time>
      </trkpt>
      <trkpt lat="48.08855" lon="7.10911">
        <ele>872</ele>
        <time>2015-07-08T09:53:04.1Z</time>
      </trkpt>
      <trkpt lat="48.08855" lon="7.10901">
        <ele>873</ele>
        <time>2015-07-08T09:53:06.1Z</time>
      </trkpt>
      <trkpt lat="48.08855" lon="7.10887">
        <ele>873</ele>
        <time>2015-07-08T09:53:09.1Z</time>
      </trkpt>
      <trkpt lat="48.0885" lon="7.10852">
        <ele>871</ele>
        <time>2015-07-08T09:53:12.1Z</time>
      </trkpt>
      <trkpt lat="48.0885" lon="7.10845">
        <ele>871</ele>
        <time>2015-07-08T09:53:14.1Z</time>
      </trkpt>
      <trkpt lat="48.08848" lon="7.10829">
        <ele>871</ele>
        <time>2015-07-08T09:53:17.1Z</time>
      </trkpt>
      <trkpt lat="48.08844" lon="7.10808">
        <ele>872</ele>
        <time>2015-07-08T09:53:20.1Z</time>
      </trkpt>
      <trkpt lat="48.08843" lon="7.10789">
        <ele>872</ele>
        <time>2015-07-08T09:53:22.1Z</time>
      </trkpt>
      <trkpt lat="48.08844" lon="7.10766">
        <ele>872</ele>
        <time>2015-07-08T09:53:24.1Z</time>
      </trkpt>
      <trkpt lat="48.0885" lon="7.10743">
        <ele>872</ele>
        <time>2015-07-08T09:53:26.1Z</time>
      </trkpt>
      <trkpt lat="48.08859" lon="7.10721">
        <ele>871</ele>
        <time>2015-07-08T09:53:28.1Z</time>
      </trkpt>
      <trkpt lat="48.08879" lon="7.10693">
        <ele>870</ele>
        <time>2015-07-08T09:53:31.1Z</time>
      </trkpt>
      <trkpt lat="48.08895" lon="7.10671">
        <ele>869</ele>
        <time>2015-07-08T09:53:33.1Z</time>
      </trkpt>
      <trkpt lat="48.08922" lon="7.10641">
        <ele>868</ele>
        <time>2015-07-08T09:53:36.1Z</time>
      </trkpt>
      <trkpt lat="48.08951" lon="7.10615">
        <ele>867</ele>
        <time>2015-07-08T09:53:39.1Z</time>
      </trkpt>
      <trkpt lat="48.08981" lon="7.1059">
        <ele>863</ele>
        <time>2015-07-08T09:53:42.1Z</time>
      </trkpt>
      <trkpt lat="48.08998" lon="7.10581">
        <ele>860</ele>
        <time>2015-07-08T09:53:44.1Z</time>
      </trkpt>
      <trkpt lat="48.09006" lon="7.10577">
        <ele>856</ele>
        <time>2015-07-08T09:53:46.1Z</time>
      </trkpt>
      <trkpt lat="48.09005" lon="7.10575">
        <ele>852</ele>
        <time>2015-07-08T09:53:49.1Z</time>
      </trkpt>
      <trkpt lat="48.08999" lon="7.10577">
        <ele>850</ele>
        <time>2015-07-08T09:53:51.1Z</time>
      </trkpt>
      <trkpt lat="48.08989" lon="7.10579">
        <ele>849</ele>
        <time>2015-07-08T09:53:54.1Z</time>
      </trkpt>
      <trkpt lat="48.08975" lon="7.10579">
        <ele>849</ele>
        <time>2015-07-08T09:53:57.1Z</time>
      </trkpt>
      <trkpt lat="48.08962" lon="7.10577">
        <ele>850</ele>
        <time>2015-07-08T09:53:59.1Z</time>
      </trkpt>
      <trkpt lat="48.08944" lon="7.10572">
        <ele>850</ele>
        <time>2015-07-08T09:54:01.1Z</time>
      </trkpt>
      <trkpt lat="48.08913" lon="7.10562">
        <ele>853</ele>
        <time>2015-07-08T09:54:04.1Z</time>
      </trkpt>
      <trkpt lat="48.08875" lon="7.10555">
        <ele>854</ele>
        <time>2015-07-08T09:54:07.1Z</time>
      </trkpt>
      <trkpt lat="48.08858" lon="7.10551">
        <ele>851</ele>
        <time>2015-07-08T09:54:09.1Z</time>
      </trkpt>
      <trkpt lat="48.0885" lon="7.10544">
        <ele>846</ele>
        <time>2015-07-08T09:54:11.1Z</time>
      </trkpt>
      <trkpt lat="48.08849" lon="7.10538">
        <ele>840</ele>
        <time>2015-07-08T09:54:13.1Z</time>
      </trkpt>
      <trkpt lat="48.08852" lon="7.10533">
        <ele>836</ele>
        <time>2015-07-08T09:54:16.1Z</time>
      </trkpt>
      <trkpt lat="48.08856" lon="7.10531">
        <ele>834</ele>
        <time>2015-07-08T09:54:18.1Z</time>
      </trkpt>
      <trkpt lat="48.0886" lon="7.10526">
        <ele>834</ele>
        <time>2015-07-08T09:54:20.1Z</time>
      </trkpt>
      <trkpt lat="48.08867" lon="7.10518">
        <ele>833</ele>
        <time>2015-07-08T09:54:23.1Z</time>
      </trkpt>
      <trkpt lat="48.08874" lon="7.10511">
        <ele>832</ele>
        <time>2015-07-08T09:54:25.1Z</time>
      </trkpt>
      <trkpt lat="48.08881" lon="7.10506">
        <ele>831</ele>
        <time>2015-07-08T09:54:27.1Z</time>
      </trkpt>
      <trkpt lat="48.08888" lon="7.10499">
        <ele>831</ele>
        <time>2015-07-08T09:54:29.1Z</time>
      </trkpt>
      <trkpt lat="48.089" lon="7.10489">
        <ele>830</ele>
        <time>2015-07-08T09:54:32.1Z</time>
      </trkpt>
      <trkpt lat="48.08912" lon="7.10481">
        <ele>830</ele>
        <time>2015-07-08T09:54:35.1Z</time>
      </trkpt>
      <trkpt lat="48.08919" lon="7.10477">
        <ele>829</ele>
        <time>2015-07-08T09:54:37.1Z</time>
      </trkpt>
      <trkpt lat="48.08928" lon="7.10474">
        <ele>829</ele>
        <time>2015-07-08T09:54:40.1Z</time>
      </trkpt>
      <trkpt lat="48.08936" lon="7.10472">
        <ele>829</ele>
        <time>2015-07-08T09:54:43.1Z</time>
      </trkpt>
      <trkpt lat="48.08941" lon="7.10469">
        <ele>829</ele>
        <time>2015-07-08T09:54:45.1Z</time>
      </trkpt>
      <trkpt lat="48.08954" lon="7.10465">
        <ele>829</ele>
        <time>2015-07-08T09:54:48.1Z</time>
      </trkpt>
      <trkpt lat="48.08964" lon="7.10461">
        <ele>829</ele>
        <time>2015-07-08T09:54:50.1Z</time>
      </trkpt>
      <trkpt lat="48.08982" lon="7.10451">
        <ele>829</ele>
        <time>2015-07-08T09:54:53.1Z</time>
      </trkpt>
      <trkpt lat="48.08995" lon="7.10444">
        <ele>829</ele>
        <time>2015-07-08T09:54:55.1Z</time>
      </trkpt>
      <trkpt lat="48.09019" lon="7.10431">
        <ele>829</ele>
        <time>2015-07-08T09:54:58.1Z</time>
      </trkpt>
      <trkpt lat="48.0905" lon="7.10415">
        <ele>829</ele>
        <time>2015-07-08T09:55:01.1Z</time>
      </trkpt>
      <trkpt lat="48.09068" lon="7.10404">
        <ele>828</ele>
        <time>2015-07-08T09:55:03.1Z</time>
      </trkpt>
      <trkpt lat="48.09092" lon="7.10384">
        <ele>827</ele>
        <time>2015-07-08T09:55:06.1Z</time>
      </trkpt>
      <trkpt lat="48.09109" lon="7.1037">
        <ele>827</ele>
        <time>2015-07-08T09:55:08.1Z</time>
      </trkpt>
      <trkpt lat="48.09128" lon="7.10358">
        <ele>826</ele>
        <time>2015-07-08T09:55:10.1Z</time>
      </trkpt>
      <trkpt lat="48.09143" lon="7.10345">
        <ele>824</ele>
        <time>2015-07-08T09:55:12.1Z</time>
      </trkpt>
      <trkpt lat="48.09161" lon="7.10331">
        <ele>821</ele>
        <time>2015-07-08T09:55:15.1Z</time>
      </trkpt>
      <trkpt lat="48.09173" lon="7.10321">
        <ele>820</ele>
        <time>2015-07-08T09:55:17.1Z</time>
      </trkpt>
      <trkpt lat="48.09192" lon="7.10304">
        <ele>818</ele>
        <time>2015-07-08T09:55:20.1Z</time>
      </trkpt>
      <trkpt lat="48.09206" lon="7.10291">
        <ele>818</ele>
        <time>2015-07-08T09:55:22.1Z</time>
      </trkpt>
      <trkpt lat="48.09218" lon="7.10278">
        <ele>816</ele>
        <time>2015-07-08T09:55:24.1Z</time>
      </trkpt>
      <trkpt lat="48.09226" lon="7.10268">
        <ele>814</ele>
        <time>2015-07-08T09:55:26.1Z</time>
      </trkpt>
      <trkpt lat="48.09235" lon="7.10258">
        <ele>814</ele>
        <time>2015-07-08T09:55:28.1Z</time>
      </trkpt>
      <trkpt lat="48.09248" lon="7.10241">
        <ele>813</ele>
        <time>2015-07-08T09:55:31.1Z</time>
      </trkpt>
      <trkpt lat="48.09259" lon="7.10229">
        <ele>812</ele>
        <time>2015-07-08T09:55:33.1Z</time>
      </trkpt>
      <trkpt lat="48.09275" lon="7.10209">
        <ele>811</ele>
        <time>2015-07-08T09:55:36.1Z</time>
      </trkpt>
      <trkpt lat="48.09285" lon="7.10195">
        <ele>811</ele>
        <time>2015-07-08T09:55:38.1Z</time>
      </trkpt>
      <trkpt lat="48.09297" lon="7.10177">
        <ele>809</ele>
        <time>2015-07-08T09:55:41.1Z</time>
      </trkpt>
      <trkpt lat="48.09305" lon="7.10168">
        <ele>809</ele>
        <time>2015-07-08T09:55:43.1Z</time>
      </trkpt>
      <trkpt lat="48.09313" lon="7.10152">
        <ele>807</ele>
        <time>2015-07-08T09:55:46.1Z</time>
      </trkpt>
      <trkpt lat="48.09313" lon="7.10139">
        <ele>807</ele>
        <time>2015-07-08T09:55:48.1Z</time>
      </trkpt>
      <trkpt lat="48.09312" lon="7.1013">
        <ele>807</ele>
        <time>2015-07-08T09:55:50.1Z</time>
      </trkpt>
      <trkpt lat="48.09313" lon="7.1011">
        <ele>806</ele>
        <time>2015-07-08T09:55:52.1Z</time>
      </trkpt>
      <trkpt lat="48.0931" lon="7.10103">
        <ele>807</ele>
        <time>2015-07-08T09:55:55.1Z</time>
      </trkpt>
      <trkpt lat="48.09307" lon="7.10095">
        <ele>807</ele>
        <time>2015-07-08T09:55:58.1Z</time>
      </trkpt>
      <trkpt lat="48.09304" lon="7.10081">
        <ele>807</ele>
        <time>2015-07-08T09:56:01.1Z</time>
      </trkpt>
      <trkpt lat="48.09301" lon="7.10068">
        <ele>807</ele>
        <time>2015-07-08T09:56:03.1Z</time>
      </trkpt>
      <trkpt lat="48.09296" lon="7.1004">
        <ele>807</ele>
        <time>2015-07-08T09:56:06.1Z</time>
      </trkpt>
      <trkpt lat="48.09292" lon="7.10019">
        <ele>808</ele>
        <time>2015-07-08T09:56:08.1Z</time>
      </trkpt>
      <trkpt lat="48.09288" lon="7.09991">
        <ele>808</ele>
        <time>2015-07-08T09:56:11.1Z</time>
      </trkpt>
      <trkpt lat="48.0929" lon="7.09964">
        <ele>808</ele>
        <time>2015-07-08T09:56:14.1Z</time>
      </trkpt>
      <trkpt lat="48.09287" lon="7.0994">
        <ele>807</ele>
        <time>2015-07-08T09:56:17.1Z</time>
      </trkpt>
      <trkpt lat="48.09283" lon="7.09916">
        <ele>807</ele>
        <time>2015-07-08T09:56:20.1Z</time>
      </trkpt>
      <trkpt lat="48.09279" lon="7.09897">
        <ele>806</ele>
        <time>2015-07-08T09:56:22.1Z</time>
      </trkpt>
      <trkpt lat="48.09278" lon="7.09869">
        <ele>806</ele>
        <time>2015-07-08T09:56:25.1Z</time>
      </trkpt>
      <trkpt lat="48.09272" lon="7.09855">
        <ele>805</ele>
        <time>2015-07-08T09:56:27.1Z</time>
      </trkpt>
      <trkpt lat="48.09264" lon="7.09844">
        <ele>805</ele>
        <time>2015-07-08T09:56:29.1Z</time>
      </trkpt>
      <trkpt lat="48.09251" lon="7.09829">
        <ele>805</ele>
        <time>2015-07-08T09:56:32.1Z</time>
      </trkpt>
      <trkpt lat="48.09233" lon="7.09813">
        <ele>804</ele>
        <time>2015-07-08T09:56:35.1Z</time>
      </trkpt>
      <trkpt lat="48.0922" lon="7.098">
        <ele>803</ele>
        <time>2015-07-08T09:56:38.1Z</time>
      </trkpt>
      <trkpt lat="48.09203" lon="7.09777">
        <ele>802</ele>
        <time>2015-07-08T09:56:40.1Z</time>
      </trkpt>
      <trkpt lat="48.0918" lon="7.09766">
        <ele>802</ele>
        <time>2015-07-08T09:56:43.1Z</time>
      </trkpt>
      <trkpt lat="48.09166" lon="7.09768">
        <ele>800</ele>
        <time>2015-07-08T09:56:45.1Z</time>
      </trkpt>
      <trkpt lat="48.09142" lon="7.09768">
        <ele>799</ele>
        <time>2015-07-08T09:56:48.1Z</time>
      </trkpt>
      <trkpt lat="48.09119" lon="7.09757">
        <ele>799</ele>
        <time>2015-07-08T09:56:51.1Z</time>
      </trkpt>
      <trkpt lat="48.09102" lon="7.09745">
        <ele>799</ele>
        <time>2015-07-08T09:56:53.1Z</time>
      </trkpt>
      <trkpt lat="48.09081" lon="7.09728">
        <ele>798</ele>
        <time>2015-07-08T09:56:56.1Z</time>
      </trkpt>
      <trkpt lat="48.0907" lon="7.09734">
        <ele>796</ele>
        <time>2015-07-08T09:56:58.1Z</time>
      </trkpt>
      <trkpt lat="48.09061" lon="7.09742">
        <ele>794</ele>
        <time>2015-07-08T09:57:00.1Z</time>
      </trkpt>
      <trkpt lat="48.09045" lon="7.09749">
        <ele>793</ele>
        <time>2015-07-08T09:57:03.1Z</time>
      </trkpt>
      <trkpt lat="48.09032" lon="7.0975">
        <ele>793</ele>
        <time>2015-07-08T09:57:05.1Z</time>
      </trkpt>
      <trkpt lat="48.09012" lon="7.09749">
        <ele>793</ele>
        <time>2015-07-08T09:57:08.1Z</time>
      </trkpt>
      <trkpt lat="48.08999" lon="7.09749">
        <ele>792</ele>
        <time>2015-07-08T09:57:10.1Z</time>
      </trkpt>
      <trkpt lat="48.08985" lon="7.09747">
        <ele>792</ele>
        <time>2015-07-08T09:57:12.1Z</time>
      </trkpt>
      <trkpt lat="48.08965" lon="7.09746">
        <ele>792</ele>
        <time>2015-07-08T09:57:15.1Z</time>
      </trkpt>
      <trkpt lat="48.08952" lon="7.09743">
        <ele>792</ele>
        <time>2015-07-08T09:57:17.1Z</time>
      </trkpt>
      <trkpt lat="48.08932" lon="7.0974">
        <ele>792</ele>
        <time>2015-07-08T09:57:20.1Z</time>
      </trkpt>
      <trkpt lat="48.08914" lon="7.09736">
        <ele>791</ele>
        <time>2015-07-08T09:57:23.1Z</time>
      </trkpt>
      <trkpt lat="48.08902" lon="7.0973">
        <ele>791</ele>
        <time>2015-07-08T09:57:25.1Z</time>
      </trkpt>
      <trkpt lat="48.08889" lon="7.09724">
        <ele>790</ele>
        <time>2015-07-08T09:57:27.1Z</time>
      </trkpt>
      <trkpt lat="48.08873" lon="7.09715">
        <ele>790</ele>
        <time>2015-07-08T09:57:30.1Z</time>
      </trkpt>
      <trkpt lat="48.08856" lon="7.09707">
        <ele>789</ele>
        <time>2015-07-08T09:57:33.1Z</time>
      </trkpt>
      <trkpt lat="48.08839" lon="7.09702">
        <ele>789</ele>
        <time>2015-07-08T09:57:36.1Z</time>
      </trkpt>
      <trkpt lat="48.08828" lon="7.09697">
        <ele>789</ele>
        <time>2015-07-08T09:57:38.1Z</time>
      </trkpt>
      <trkpt lat="48.08814" lon="7.09687">
        <ele>789</ele>
        <time>2015-07-08T09:57:41.1Z</time>
      </trkpt>
      <trkpt lat="48.08805" lon="7.09679">
        <ele>789</ele>
        <time>2015-07-08T09:57:43.1Z</time>
      </trkpt>
      <trkpt lat="48.08793" lon="7.09671">
        <ele>789</ele>
        <time>2015-07-08T09:57:46.1Z</time>
      </trkpt>
      <trkpt lat="48.08784" lon="7.09665">
        <ele>789</ele>
        <time>2015-07-08T09:57:48.1Z</time>
      </trkpt>
      <trkpt lat="48.0877" lon="7.09656">
        <ele>789</ele>
        <time>2015-07-08T09:57:51.1Z</time>
      </trkpt>
      <trkpt lat="48.08755" lon="7.09647">
        <ele>789</ele>
        <time>2015-07-08T09:57:54.1Z</time>
      </trkpt>
      <trkpt lat="48.08745" lon="7.0964">
        <ele>789</ele>
        <time>2015-07-08T09:57:57.1Z</time>
      </trkpt>
      <trkpt lat="48.0873" lon="7.09626">
        <ele>788</ele>
        <time>2015-07-08T09:57:59.1Z</time>
      </trkpt>
      <trkpt lat="48.08719" lon="7.09615">
        <ele>787</ele>
        <time>2015-07-08T09:58:01.1Z</time>
      </trkpt>
      <trkpt lat="48.08702" lon="7.09594">
        <ele>787</ele>
        <time>2015-07-08T09:58:04.1Z</time>
      </trkpt>
      <trkpt lat="48.08687" lon="7.09578">
        <ele>787</ele>
        <time>2015-07-08T09:58:06.1Z</time>
      </trkpt>
      <trkpt lat="48.08675" lon="7.09562">
        <ele>787</ele>
        <time>2015-07-08T09:58:08.1Z</time>
      </trkpt>
      <trkpt lat="48.08658" lon="7.09537">
        <ele>786</ele>
        <time>2015-07-08T09:58:11.1Z</time>
      </trkpt>
      <trkpt lat="48.08651" lon="7.09523">
        <ele>785</ele>
        <time>2015-07-08T09:58:13.1Z</time>
      </trkpt>
      <trkpt lat="48.08646" lon="7.09511">
        <ele>783</ele>
        <time>2015-07-08T09:58:15.1Z</time>
      </trkpt>
      <trkpt lat="48.08724" lon="7.08775">
        <ele>730</ele>
        <time>2015-07-08T09:58:18.1Z</time>
      </trkpt>
      <trkpt lat="48.0871" lon="7.08759">
        <ele>729</ele>
        <time>2015-07-08T09:58:20.1Z</time>
      </trkpt>
      <trkpt lat="48.0869" lon="7.08732">
        <ele>728</ele>
        <time>2015-07-08T09:58:23.1Z</time>
      </trkpt>
      <trkpt lat="48.08678" lon="7.08711">
        <ele>727</ele>
        <time>2015-07-08T09:58:25.1Z</time>
      </trkpt>
      <trkpt lat="48.08657" lon="7.0869">
        <ele>724</ele>
        <time>2015-07-08T09:58:28.1Z</time>
      </trkpt>
      <trkpt lat="48.0864" lon="7.08684">
        <ele>723</ele>
        <time>2015-07-08T09:58:30.1Z</time>
      </trkpt>
      <trkpt lat="48.08612" lon="7.08671">
        <ele>722</ele>
        <time>2015-07-08T09:58:33.1Z</time>
      </trkpt>
      <trkpt lat="48.08582" lon="7.0866">
        <ele>721</ele>
        <time>2015-07-08T09:58:36.1Z</time>
      </trkpt>
      <trkpt lat="48.0855" lon="7.08662">
        <ele>719</ele>
        <time>2015-07-08T09:58:39.1Z</time>
      </trkpt>
      <trkpt lat="48.0853" lon="7.08668">
        <ele>717</ele>
        <time>2015-07-08T09:58:41.1Z</time>
      </trkpt>
      <trkpt lat="48.08502" lon="7.0869">
        <ele>716</ele>
        <time>2015-07-08T09:58:44.1Z</time>
      </trkpt>
      <trkpt lat="48.08482" lon="7.08707">
        <ele>714</ele>
        <time>2015-07-08T09:58:46.1Z</time>
      </trkpt>
      <trkpt lat="48.08451" lon="7.08734">
        <ele>711</ele>
        <time>2015-07-08T09:58:49.1Z</time>
      </trkpt>
      <trkpt lat="48.08431" lon="7.08752">
        <ele>709</ele>
        <time>2015-07-08T09:58:51.1Z</time>
      </trkpt>
      <trkpt lat="48.08416" lon="7.08779">
        <ele>707</ele>
        <time>2015-07-08T09:58:53.1Z</time>
      </trkpt>
      <trkpt lat="48.08395" lon="7.0882">
        <ele>705</ele>
        <time>2015-07-08T09:58:56.1Z</time>
      </trkpt>
      <trkpt lat="48.08384" lon="7.08848">
        <ele>703</ele>
        <time>2015-07-08T09:58:58.1Z</time>
      </trkpt>
      <trkpt lat="48.08365" lon="7.08892">
        <ele>699</ele>
        <time>2015-07-08T09:59:01.1Z</time>
      </trkpt>
      <trkpt lat="48.08344" lon="7.08937">
        <ele>694</ele>
        <time>2015-07-08T09:59:04.1Z</time>
      </trkpt>
      <trkpt lat="48.08332" lon="7.08962">
        <ele>691</ele>
        <time>2015-07-08T09:59:06.1Z</time>
      </trkpt>
      <trkpt lat="48.08318" lon="7.08988">
        <ele>687</ele>
        <time>2015-07-08T09:59:09.1Z</time>
      </trkpt>
      <trkpt lat="48.08311" lon="7.09">
        <ele>682</ele>
        <time>2015-07-08T09:59:11.1Z</time>
      </trkpt>
      <trkpt lat="48.08299" lon="7.09008">
        <ele>675</ele>
        <time>2015-07-08T09:59:14.1Z</time>
      </trkpt>
      <trkpt lat="48.08292" lon="7.09013">
        <ele>673</ele>
        <time>2015-07-08T09:59:17.1Z</time>
      </trkpt>
      <trkpt lat="48.08289" lon="7.09016">
        <ele>672</ele>
        <time>2015-07-08T09:59:19.1Z</time>
      </trkpt>
      <trkpt lat="48.08286" lon="7.09019">
        <ele>672</ele>
        <time>2015-07-08T09:59:22.1Z</time>
      </trkpt>
      <trkpt lat="48.08284" lon="7.09021">
        <ele>672</ele>
        <time>2015-07-08T09:59:24.1Z</time>
      </trkpt>
      <trkpt lat="48.08282" lon="7.09022">
        <ele>672</ele>
        <time>2015-07-08T09:59:27.1Z</time>
      </trkpt>
      <trkpt lat="48.08282" lon="7.09023">
        <ele>672</ele>
        <time>2015-07-08T09:59:29.1Z</time>
      </trkpt>
      <trkpt lat="48.08282" lon="7.09024">
        <ele>673</ele>
        <time>2015-07-08T09:59:31.1Z</time>
      </trkpt>
      <trkpt lat="48.08282" lon="7.09024">
        <ele>673</ele>
        <time>2015-07-08T09:59:34.1Z</time>
      </trkpt>
      <trkpt lat="48.08281" lon="7.09024">
        <ele>673</ele>
        <time>2015-07-08T09:59:36.1Z</time>
      </trkpt>
      <trkpt lat="48.08279" lon="7.09026">
        <ele>673</ele>
        <time>2015-07-08T09:59:38.1Z</time>
      </trkpt>
      <trkpt lat="48.08275" lon="7.09027">
        <ele>673</ele>
        <time>2015-07-08T09:59:41.1Z</time>
      </trkpt>
      <trkpt lat="48.08271" lon="7.09029">
        <ele>673</ele>
        <time>2015-07-08T09:59:44.1Z</time>
      </trkpt>
      <trkpt lat="48.08268" lon="7.09031">
        <ele>674</ele>
        <time>2015-07-08T09:59:46.1Z</time>
      </trkpt>
      <trkpt lat="48.08262" lon="7.09031">
        <ele>674</ele>
        <time>2015-07-08T09:59:49.1Z</time>
      </trkpt>
      <trkpt lat="48.08258" lon="7.09031">
        <ele>675</ele>
        <time>2015-07-08T09:59:51.1Z</time>
      </trkpt>
      <trkpt lat="48.08254" lon="7.09029">
        <ele>675</ele>
        <time>2015-07-08T09:59:53.1Z</time>
      </trkpt>
      <trkpt lat="48.0825" lon="7.09025">
        <ele>676</ele>
        <time>2015-07-08T09:59:56.1Z</time>
      </trkpt>
      <trkpt lat="48.08248" lon="7.09023">
        <ele>676</ele>
        <time>2015-07-08T09:59:58.1Z</time>
      </trkpt>
      <trkpt lat="48.08245" lon="7.09017">
        <ele>677</ele>
        <time>2015-07-08T10:00:01.1Z</time>
      </trkpt>
      <trkpt lat="48.08243" lon="7.09014">
        <ele>677</ele>
        <time>2015-07-08T10:00:03.1Z</time>
      </trkpt>
      <trkpt lat="48.08239" lon="7.09008">
        <ele>678</ele>
        <time>2015-07-08T10:00:06.1Z</time>
      </trkpt>
      <trkpt lat="48.08236" lon="7.09003">
        <ele>679</ele>
        <time>2015-07-08T10:00:09.1Z</time>
      </trkpt>
      <trkpt lat="48.08232" lon="7.08997">
        <ele>680</ele>
        <time>2015-07-08T10:00:12.1Z</time>
      </trkpt>
      <trkpt lat="48.08227" lon="7.08991">
        <ele>680</ele>
        <time>2015-07-08T10:00:15.1Z</time>
      </trkpt>
      <trkpt lat="48.08224" lon="7.08987">
        <ele>681</ele>
        <time>2015-07-08T10:00:17.1Z</time>
      </trkpt>
      <trkpt lat="48.08222" lon="7.08983">
        <ele>681</ele>
        <time>2015-07-08T10:00:19.1Z</time>
      </trkpt>
      <trkpt lat="48.08218" lon="7.08979">
        <ele>682</ele>
        <time>2015-07-08T10:00:22.1Z</time>
      </trkpt>
      <trkpt lat="48.08214" lon="7.08974">
        <ele>683</ele>
        <time>2015-07-08T10:00:25.1Z</time>
      </trkpt>
      <trkpt lat="48.08212" lon="7.08971">
        <ele>683</ele>
        <time>2015-07-08T10:00:27.1Z</time>
      </trkpt>
      <trkpt lat="48.08209" lon="7.08967">
        <ele>683</ele>
        <time>2015-07-08T10:00:29.1Z</time>
      </trkpt>
      <trkpt lat="48.08206" lon="7.08963">
        <ele>684</ele>
        <time>2015-07-08T10:00:31.1Z</time>
      </trkpt>
      <trkpt lat="48.08203" lon="7.08956">
        <ele>684</ele>
        <time>2015-07-08T10:00:34.1Z</time>
      </trkpt>
      <trkpt lat="48.08201" lon="7.08951">
        <ele>685</ele>
        <time>2015-07-08T10:00:37.1Z</time>
      </trkpt>
      <trkpt lat="48.082" lon="7.08945">
        <ele>686</ele>
        <time>2015-07-08T10:00:40.1Z</time>
      </trkpt>
      <trkpt lat="48.08199" lon="7.08941">
        <ele>686</ele>
        <time>2015-07-08T10:00:42.1Z</time>
      </trkpt>
      <trkpt lat="48.08196" lon="7.08934">
        <ele>687</ele>
        <time>2015-07-08T10:00:45.1Z</time>
      </trkpt>
      <trkpt lat="48.08195" lon="7.08929">
        <ele>687</ele>
        <time>2015-07-08T10:00:47.1Z</time>
      </trkpt>
      <trkpt lat="48.08194" lon="7.08923">
        <ele>688</ele>
        <time>2015-07-08T10:00:50.1Z</time>
      </trkpt>
      <trkpt lat="48.08193" lon="7.08918">
        <ele>689</ele>
        <time>2015-07-08T10:00:52.1Z</time>
      </trkpt>
      <trkpt lat="48.0819" lon="7.08909">
        <ele>689</ele>
        <time>2015-07-08T10:00:55.1Z</time>
      </trkpt>
      <trkpt lat="48.08187" lon="7.08903">
        <ele>689</ele>
        <time>2015-07-08T10:00:57.1Z</time>
      </trkpt>
      <trkpt lat="48.08185" lon="7.08897">
        <ele>690</ele>
        <time>2015-07-08T10:01:00.1Z</time>
      </trkpt>
      <trkpt lat="48.08183" lon="7.08893">
        <ele>690</ele>
        <time>2015-07-08T10:01:02.1Z</time>
      </trkpt>
      <trkpt lat="48.08181" lon="7.08889">
        <ele>690</ele>
        <time>2015-07-08T10:01:04.1Z</time>
      </trkpt>
      <trkpt lat="48.08178" lon="7.08883">
        <ele>690</ele>
        <time>2015-07-08T10:01:07.1Z</time>
      </trkpt>
      <trkpt lat="48.08176" lon="7.08875">
        <ele>691</ele>
        <time>2015-07-08T10:01:10.1Z</time>
      </trkpt>
      <trkpt lat="48.08174" lon="7.08869">
        <ele>691</ele>
        <time>2015-07-08T10:01:12.1Z</time>
      </trkpt>
      <trkpt lat="48.08172" lon="7.08863">
        <ele>692</ele>
        <time>2015-07-08T10:01:14.1Z</time>
      </trkpt>
      <trkpt lat="48.08171" lon="7.08857">
        <ele>692</ele>
        <time>2015-07-08T10:01:16.1Z</time>
      </trkpt>
      <trkpt lat="48.08168" lon="7.08848">
        <ele>692</ele>
        <time>2015-07-08T10:01:19.1Z</time>
      </trkpt>
      <trkpt lat="48.08166" lon="7.08842">
        <ele>693</ele>
        <time>2015-07-08T10:01:21.1Z</time>
      </trkpt>
      <trkpt lat="48.08165" lon="7.08837">
        <ele>693</ele>
        <time>2015-07-08T10:01:23.1Z</time>
      </trkpt>
      <trkpt lat="48.08162" lon="7.0883">
        <ele>693</ele>
        <time>2015-07-08T10:01:26.1Z</time>
      </trkpt>
      <trkpt lat="48.0816" lon="7.08822">
        <ele>693</ele>
        <time>2015-07-08T10:01:29.1Z</time>
      </trkpt>
      <trkpt lat="48.08158" lon="7.08813">
        <ele>693</ele>
        <time>2015-07-08T10:01:32.1Z</time>
      </trkpt>
      <trkpt lat="48.08157" lon="7.08805">
        <ele>694</ele>
        <time>2015-07-08T10:01:35.1Z</time>
      </trkpt>
      <trkpt lat="48.08156" lon="7.08799">
        <ele>695</ele>
        <time>2015-07-08T10:01:37.1Z</time>
      </trkpt>
      <trkpt lat="48.08154" lon="7.08789">
        <ele>695</ele>
        <time>2015-07-08T10:01:40.1Z</time>
      </trkpt>
      <trkpt lat="48.08152" lon="7.08783">
        <ele>695</ele>
        <time>2015-07-08T10:01:42.1Z</time>
      </trkpt>
      <trkpt lat="48.0815" lon="7.08774">
        <ele>696</ele>
        <time>2015-07-08T10:01:45.1Z</time>
      </trkpt>
      <trkpt lat="48.08149" lon="7.08768">
        <ele>696</ele>
        <time>2015-07-08T10:01:47.1Z</time>
      </trkpt>
      <trkpt lat="48.08147" lon="7.08758">
        <ele>697</ele>
        <time>2015-07-08T10:01:50.1Z</time>
      </trkpt>
      <trkpt lat="48.08146" lon="7.0875">
        <ele>698</ele>
        <time>2015-07-08T10:01:53.1Z</time>
      </trkpt>
      <trkpt lat="48.08147" lon="7.08742">
        <ele>698</ele>
        <time>2015-07-08T10:01:56.1Z</time>
      </trkpt>
      <trkpt lat="48.08147" lon="7.08733">
        <ele>699</ele>
        <time>2015-07-08T10:01:59.1Z</time>
      </trkpt>
      <trkpt lat="48.08149" lon="7.08724">
        <ele>700</ele>
        <time>2015-07-08T10:02:02.1Z</time>
      </trkpt>
      <trkpt lat="48.08149" lon="7.08715">
        <ele>700</ele>
        <time>2015-07-08T10:02:05.1Z</time>
      </trkpt>
      <trkpt lat="48.0815" lon="7.08706">
        <ele>700</ele>
        <time>2015-07-08T10:02:08.1Z</time>
      </trkpt>
      <trkpt lat="48.08151" lon="7.087">
        <ele>700</ele>
        <time>2015-07-08T10:02:10.1Z</time>
      </trkpt>
      <trkpt lat="48.08152" lon="7.08691">
        <ele>701</ele>
        <time>2015-07-08T10:02:13.1Z</time>
      </trkpt>
      <trkpt lat="48.08152" lon="7.08685">
        <ele>701</ele>
        <time>2015-07-08T10:02:15.1Z</time>
      </trkpt>
      <trkpt lat="48.08152" lon="7.0868">
        <ele>701</ele>
        <time>2015-07-08T10:02:17.1Z</time>
      </trkpt>
      <trkpt lat="48.08149" lon="7.08674">
        <ele>701</ele>
        <time>2015-07-08T10:02:20.1Z</time>
      </trkpt>
      <trkpt lat="48.08146" lon="7.0867">
        <ele>702</ele>
        <time>2015-07-08T10:02:23.1Z</time>
      </trkpt>
      <trkpt lat="48.08143" lon="7.08668">
        <ele>702</ele>
        <time>2015-07-08T10:02:25.1Z</time>
      </trkpt>
      <trkpt lat="48.08138" lon="7.08668">
        <ele>703</ele>
        <time>2015-07-08T10:02:28.1Z</time>
      </trkpt>
      <trkpt lat="48.08133" lon="7.0867">
        <ele>703</ele>
        <time>2015-07-08T10:02:31.1Z</time>
      </trkpt>
      <trkpt lat="48.0813" lon="7.08671">
        <ele>703</ele>
        <time>2015-07-08T10:02:33.1Z</time>
      </trkpt>
      <trkpt lat="48.08124" lon="7.08675">
        <ele>704</ele>
        <time>2015-07-08T10:02:36.1Z</time>
      </trkpt>
      <trkpt lat="48.0812" lon="7.08678">
        <ele>705</ele>
        <time>2015-07-08T10:02:38.1Z</time>
      </trkpt>
      <trkpt lat="48.08113" lon="7.08681">
        <ele>705</ele>
        <time>2015-07-08T10:02:41.1Z</time>
      </trkpt>
      <trkpt lat="48.08107" lon="7.08685">
        <ele>705</ele>
        <time>2015-07-08T10:02:44.1Z</time>
      </trkpt>
      <trkpt lat="48.08102" lon="7.08688">
        <ele>706</ele>
        <time>2015-07-08T10:02:46.1Z</time>
      </trkpt>
      <trkpt lat="48.08097" lon="7.08691">
        <ele>706</ele>
        <time>2015-07-08T10:02:49.1Z</time>
      </trkpt>
      <trkpt lat="48.08093" lon="7.08693">
        <ele>707</ele>
        <time>2015-07-08T10:02:52.1Z</time>
      </trkpt>
      <trkpt lat="48.08089" lon="7.08695">
        <ele>707</ele>
        <time>2015-07-08T10:02:54.1Z</time>
      </trkpt>
      <trkpt lat="48.08084" lon="7.08702">
        <ele>707</ele>
        <time>2015-07-08T10:02:57.1Z</time>
      </trkpt>
      <trkpt lat="48.08081" lon="7.08707">
        <ele>708</ele>
        <time>2015-07-08T10:02:59.1Z</time>
      </trkpt>
      <trkpt lat="48.08076" lon="7.08716">
        <ele>708</ele>
        <time>2015-07-08T10:03:02.1Z</time>
      </trkpt>
      <trkpt lat="48.08072" lon="7.08725">
        <ele>709</ele>
        <time>2015-07-08T10:03:05.1Z</time>
      </trkpt>
      <trkpt lat="48.08069" lon="7.08731">
        <ele>709</ele>
        <time>2015-07-08T10:03:07.1Z</time>
      </trkpt>
      <trkpt lat="48.08065" lon="7.0874">
        <ele>710</ele>
        <time>2015-07-08T10:03:10.1Z</time>
      </trkpt>
      <trkpt lat="48.0806" lon="7.0875">
        <ele>710</ele>
        <time>2015-07-08T10:03:13.1Z</time>
      </trkpt>
      <trkpt lat="48.08052" lon="7.08761">
        <ele>711</ele>
        <time>2015-07-08T10:03:16.1Z</time>
      </trkpt>
      <trkpt lat="48.08046" lon="7.08769">
        <ele>712</ele>
        <time>2015-07-08T10:03:18.1Z</time>
      </trkpt>
      <trkpt lat="48.08039" lon="7.08778">
        <ele>713</ele>
        <time>2015-07-08T10:03:20.1Z</time>
      </trkpt>
      <trkpt lat="48.08028" lon="7.08789">
        <ele>714</ele>
        <time>2015-07-08T10:03:23.1Z</time>
      </trkpt>
      <trkpt lat="48.08018" lon="7.088">
        <ele>715</ele>
        <time>2015-07-08T10:03:26.1Z</time>
      </trkpt>
      <trkpt lat="48.08013" lon="7.08808">
        <ele>715</ele>
        <time>2015-07-08T10:03:28.1Z</time>
      </trkpt>
      <trkpt lat="48.08008" lon="7.08816">
        <ele>715</ele>
        <time>2015-07-08T10:03:30.1Z</time>
      </trkpt>
      <trkpt lat="48.08001" lon="7.08829">
        <ele>716</ele>
        <time>2015-07-08T10:03:33.1Z</time>
      </trkpt>
      <trkpt lat="48.07995" lon="7.08843">
        <ele>716</ele>
        <time>2015-07-08T10:03:36.1Z</time>
      </trkpt>
      <trkpt lat="48.07988" lon="7.08858">
        <ele>717</ele>
        <time>2015-07-08T10:03:39.1Z</time>
      </trkpt>
      <trkpt lat="48.07983" lon="7.08869">
        <ele>718</ele>
        <time>2015-07-08T10:03:41.1Z</time>
      </trkpt>
      <trkpt lat="48.07976" lon="7.08883">
        <ele>719</ele>
        <time>2015-07-08T10:03:44.1Z</time>
      </trkpt>
      <trkpt lat="48.07971" lon="7.08892">
        <ele>720</ele>
        <time>2015-07-08T10:03:46.1Z</time>
      </trkpt>
      <trkpt lat="48.07967" lon="7.089">
        <ele>720</ele>
        <time>2015-07-08T10:03:48.1Z</time>
      </trkpt>
      <trkpt lat="48.07964" lon="7.08907">
        <ele>721</ele>
        <time>2015-07-08T10:03:50.1Z</time>
      </trkpt>
      <trkpt lat="48.07959" lon="7.08916">
        <ele>721</ele>
        <time>2015-07-08T10:03:53.1Z</time>
      </trkpt>
      <trkpt lat="48.07955" lon="7.08923">
        <ele>721</ele>
        <time>2015-07-08T10:03:55.1Z</time>
      </trkpt>
      <trkpt lat="48.07948" lon="7.08934">
        <ele>722</ele>
        <time>2015-07-08T10:03:58.1Z</time>
      </trkpt>
      <trkpt lat="48.07943" lon="7.08943">
        <ele>722</ele>
        <time>2015-07-08T10:04:00.1Z</time>
      </trkpt>
      <trkpt lat="48.07935" lon="7.08955">
        <ele>724</ele>
        <time>2015-07-08T10:04:03.1Z</time>
      </trkpt>
      <trkpt lat="48.0793" lon="7.08963">
        <ele>725</ele>
        <time>2015-07-08T10:04:05.1Z</time>
      </trkpt>
      <trkpt lat="48.07922" lon="7.08975">
        <ele>725</ele>
        <time>2015-07-08T10:04:08.1Z</time>
      </trkpt>
      <trkpt lat="48.07916" lon="7.08982">
        <ele>726</ele>
        <time>2015-07-08T10:04:10.1Z</time>
      </trkpt>
      <trkpt lat="48.07908" lon="7.08991">
        <ele>727</ele>
        <time>2015-07-08T10:04:13.1Z</time>
      </trkpt>
      <trkpt lat="48.079" lon="7.09002">
        <ele>729</ele>
        <time>2015-07-08T10:04:16.1Z</time>
      </trkpt>
      <trkpt lat="48.07894" lon="7.0901">
        <ele>729</ele>
        <time>2015-07-08T10:04:18.1Z</time>
      </trkpt>
      <trkpt lat="48.07886" lon="7.09022">
        <ele>730</ele>
        <time>2015-07-08T10:04:21.1Z</time>
      </trkpt>
      <trkpt lat="48.07879" lon="7.09033">
        <ele>730</ele>
        <time>2015-07-08T10:04:24.1Z</time>
      </trkpt>
      <trkpt lat="48.07875" lon="7.09039">
        <ele>731</ele>
        <time>2015-07-08T10:04:26.1Z</time>
      </trkpt>
      <trkpt lat="48.07868" lon="7.09048">
        <ele>731</ele>
        <time>2015-07-08T10:04:29.1Z</time>
      </trkpt>
      <trkpt lat="48.0786" lon="7.09059">
        <ele>731</ele>
        <time>2015-07-08T10:04:32.1Z</time>
      </trkpt>
      <trkpt lat="48.07851" lon="7.09067">
        <ele>732</ele>
        <time>2015-07-08T10:04:35.1Z</time>
      </trkpt>
      <trkpt lat="48.0784" lon="7.09069">
        <ele>733</ele>
        <time>2015-07-08T10:04:38.1Z</time>
      </trkpt>
      <trkpt lat="48.07833" lon="7.09072">
        <ele>734</ele>
        <time>2015-07-08T10:04:40.1Z</time>
      </trkpt>
      <trkpt lat="48.07822" lon="7.09077">
        <ele>734</ele>
        <time>2015-07-08T10:04:43.1Z</time>
      </trkpt>
      <trkpt lat="48.07816" lon="7.09083">
        <ele>735</ele>
        <time>2015-07-08T10:04:45.1Z</time>
      </trkpt>
      <trkpt lat="48.07809" lon="7.0909">
        <ele>735</ele>
        <time>2015-07-08T10:04:48.1Z</time>
      </trkpt>
      <trkpt lat="48.07798" lon="7.09098">
        <ele>737</ele>
        <time>2015-07-08T10:04:51.1Z</time>
      </trkpt>
      <trkpt lat="48.07788" lon="7.09107">
        <ele>738</ele>
        <time>2015-07-08T10:04:54.1Z</time>
      </trkpt>
      <trkpt lat="48.07777" lon="7.09115">
        <ele>739</ele>
        <time>2015-07-08T10:04:57.1Z</time>
      </trkpt>
      <trkpt lat="48.07764" lon="7.0912">
        <ele>741</ele>
        <time>2015-07-08T10:05:00.1Z</time>
      </trkpt>
      <trkpt lat="48.07752" lon="7.09125">
        <ele>741</ele>
        <time>2015-07-08T10:05:03.1Z</time>
      </trkpt>
      <trkpt lat="48.07741" lon="7.09127">
        <ele>742</ele>
        <time>2015-07-08T10:05:06.1Z</time>
      </trkpt>
      <trkpt lat="48.07734" lon="7.09128">
        <ele>742</ele>
        <time>2015-07-08T10:05:08.1Z</time>
      </trkpt>
      <trkpt lat="48.07723" lon="7.0913">
        <ele>743</ele>
        <time>2015-07-08T10:05:11.1Z</time>
      </trkpt>
      <trkpt lat="48.07713" lon="7.09132">
        <ele>743</ele>
        <time>2015-07-08T10:05:14.1Z</time>
      </trkpt>
      <trkpt lat="48.07706" lon="7.09134">
        <ele>744</ele>
        <time>2015-07-08T10:05:16.1Z</time>
      </trkpt>
      <trkpt lat="48.07695" lon="7.09138">
        <ele>745</ele>
        <time>2015-07-08T10:05:19.1Z</time>
      </trkpt>
      <trkpt lat="48.07687" lon="7.0914">
        <ele>745</ele>
        <time>2015-07-08T10:05:21.1Z</time>
      </trkpt>
      <trkpt lat="48.07679" lon="7.09141">
        <ele>746</ele>
        <time>2015-07-08T10:05:23.1Z</time>
      </trkpt>
      <trkpt lat="48.07667" lon="7.09138">
        <ele>747</ele>
        <time>2015-07-08T10:05:26.1Z</time>
      </trkpt>
      <trkpt lat="48.07657" lon="7.09134">
        <ele>748</ele>
        <time>2015-07-08T10:05:29.1Z</time>
      </trkpt>
      <trkpt lat="48.07648" lon="7.09128">
        <ele>748</ele>
        <time>2015-07-08T10:05:32.1Z</time>
      </trkpt>
      <trkpt lat="48.07642" lon="7.09124">
        <ele>749</ele>
        <time>2015-07-08T10:05:34.1Z</time>
      </trkpt>
      <trkpt lat="48.07634" lon="7.09119">
        <ele>750</ele>
        <time>2015-07-08T10:05:37.1Z</time>
      </trkpt>
      <trkpt lat="48.07626" lon="7.09115">
        <ele>751</ele>
        <time>2015-07-08T10:05:40.1Z</time>
      </trkpt>
      <trkpt lat="48.07619" lon="7.0911">
        <ele>751</ele>
        <time>2015-07-08T10:05:43.1Z</time>
      </trkpt>
      <trkpt lat="48.07614" lon="7.09107">
        <ele>751</ele>
        <time>2015-07-08T10:05:45.1Z</time>
      </trkpt>
      <trkpt lat="48.07609" lon="7.09104">
        <ele>751</ele>
        <time>2015-07-08T10:05:47.1Z</time>
      </trkpt>
      <trkpt lat="48.07605" lon="7.09102">
        <ele>751</ele>
        <time>2015-07-08T10:05:49.1Z</time>
      </trkpt>
      <trkpt lat="48.076" lon="7.09098">
        <ele>752</ele>
        <time>2015-07-08T10:05:52.1Z</time>
      </trkpt>
      <trkpt lat="48.07599" lon="7.09097">
        <ele>752</ele>
        <time>2015-07-08T10:05:55.1Z</time>
      </trkpt>
      <trkpt lat="48.07591" lon="7.09092">
        <ele>751</ele>
        <time>2015-07-08T10:05:58.1Z</time>
      </trkpt>
      <trkpt lat="48.07586" lon="7.0909">
        <ele>752</ele>
        <time>2015-07-08T10:06:00.1Z</time>
      </trkpt>
      <trkpt lat="48.0758" lon="7.09086">
        <ele>752</ele>
        <time>2015-07-08T10:06:03.1Z</time>
      </trkpt>
      <trkpt lat="48.07575" lon="7.09084">
        <ele>752</ele>
        <time>2015-07-08T10:06:05.1Z</time>
      </trkpt>
      <trkpt lat="48.07571" lon="7.09082">
        <ele>753</ele>
        <time>2015-07-08T10:06:07.1Z</time>
      </trkpt>
      <trkpt lat="48.07566" lon="7.0908">
        <ele>753</ele>
        <time>2015-07-08T10:06:10.1Z</time>
      </trkpt>
      <trkpt lat="48.07563" lon="7.09078">
        <ele>754</ele>
        <time>2015-07-08T10:06:12.1Z</time>
      </trkpt>
      <trkpt lat="48.07559" lon="7.09074">
        <ele>754</ele>
        <time>2015-07-08T10:06:14.1Z</time>
      </trkpt>
      <trkpt lat="48.07554" lon="7.09071">
        <ele>754</ele>
        <time>2015-07-08T10:06:17.1Z</time>
      </trkpt>
      <trkpt lat="48.0755" lon="7.09068">
        <ele>754</ele>
        <time>2015-07-08T10:06:20.1Z</time>
      </trkpt>
      <trkpt lat="48.07546" lon="7.09063">
        <ele>755</ele>
        <time>2015-07-08T10:06:23.1Z</time>
      </trkpt>
      <trkpt lat="48.0754" lon="7.09058">
        <ele>755</ele>
        <time>2015-07-08T10:06:26.1Z</time>
      </trkpt>
      <trkpt lat="48.07534" lon="7.09054">
        <ele>756</ele>
        <time>2015-07-08T10:06:29.1Z</time>
      </trkpt>
      <trkpt lat="48.07527" lon="7.0905">
        <ele>756</ele>
        <time>2015-07-08T10:06:32.1Z</time>
      </trkpt>
      <trkpt lat="48.07522" lon="7.09047">
        <ele>756</ele>
        <time>2015-07-08T10:06:35.1Z</time>
      </trkpt>
      <trkpt lat="48.07516" lon="7.09044">
        <ele>757</ele>
        <time>2015-07-08T10:06:38.1Z</time>
      </trkpt>
      <trkpt lat="48.07513" lon="7.09042">
        <ele>757</ele>
        <time>2015-07-08T10:06:40.1Z</time>
      </trkpt>
      <trkpt lat="48.07509" lon="7.09039">
        <ele>758</ele>
        <time>2015-07-08T10:06:42.1Z</time>
      </trkpt>
      <trkpt lat="48.07505" lon="7.09036">
        <ele>758</ele>
        <time>2015-07-08T10:06:44.1Z</time>
      </trkpt>
      <trkpt lat="48.07499" lon="7.0903">
        <ele>758</ele>
        <time>2015-07-08T10:06:47.1Z</time>
      </trkpt>
      <trkpt lat="48.07493" lon="7.09024">
        <ele>759</ele>
        <time>2015-07-08T10:06:50.1Z</time>
      </trkpt>
      <trkpt lat="48.07488" lon="7.09021">
        <ele>760</ele>
        <time>2015-07-08T10:06:52.1Z</time>
      </trkpt>
      <trkpt lat="48.0748" lon="7.09018">
        <ele>761</ele>
        <time>2015-07-08T10:06:55.1Z</time>
      </trkpt>
      <trkpt lat="48.07475" lon="7.09015">
        <ele>761</ele>
        <time>2015-07-08T10:06:57.1Z</time>
      </trkpt>
      <trkpt lat="48.07469" lon="7.09012">
        <ele>762</ele>
        <time>2015-07-08T10:07:00.1Z</time>
      </trkpt>
      <trkpt lat="48.07466" lon="7.0901">
        <ele>762</ele>
        <time>2015-07-08T10:07:02.1Z</time>
      </trkpt>
      <trkpt lat="48.07463" lon="7.09009">
        <ele>762</ele>
        <time>2015-07-08T10:07:04.1Z</time>
      </trkpt>
      <trkpt lat="48.07457" lon="7.09007">
        <ele>763</ele>
        <time>2015-07-08T10:07:07.1Z</time>
      </trkpt>
      <trkpt lat="48.07452" lon="7.09006">
        <ele>763</ele>
        <time>2015-07-08T10:07:10.1Z</time>
      </trkpt>
      <trkpt lat="48.07446" lon="7.09003">
        <ele>764</ele>
        <time>2015-07-08T10:07:13.1Z</time>
      </trkpt>
      <trkpt lat="48.0744" lon="7.09002">
        <ele>764</ele>
        <time>2015-07-08T10:07:16.1Z</time>
      </trkpt>
      <trkpt lat="48.07434" lon="7.09001">
        <ele>765</ele>
        <time>2015-07-08T10:07:19.1Z</time>
      </trkpt>
      <trkpt lat="48.07425" lon="7.08998">
        <ele>766</ele>
        <time>2015-07-08T10:07:22.1Z</time>
      </trkpt>
      <trkpt lat="48.07416" lon="7.08996">
        <ele>767</ele>
        <time>2015-07-08T10:07:24.1Z</time>
      </trkpt>
      <trkpt lat="48.07407" lon="7.08994">
        <ele>768</ele>
        <time>2015-07-08T10:07:26.1Z</time>
      </trkpt>
      <trkpt lat="48.07394" lon="7.08989">
        <ele>769</ele>
        <time>2015-07-08T10:07:29.1Z</time>
      </trkpt>
      <trkpt lat="48.07386" lon="7.08984">
        <ele>770</ele>
        <time>2015-07-08T10:07:31.1Z</time>
      </trkpt>
      <trkpt lat="48.07378" lon="7.0898">
        <ele>771</ele>
        <time>2015-07-08T10:07:33.1Z</time>
      </trkpt>
      <trkpt lat="48.0737" lon="7.08976">
        <ele>771</ele>
        <time>2015-07-08T10:07:35.1Z</time>
      </trkpt>
      <trkpt lat="48.07362" lon="7.0897">
        <ele>772</ele>
        <time>2015-07-08T10:07:37.1Z</time>
      </trkpt>
      <trkpt lat="48.07355" lon="7.08965">
        <ele>773</ele>
        <time>2015-07-08T10:07:39.1Z</time>
      </trkpt>
      <trkpt lat="48.07344" lon="7.08957">
        <ele>773</ele>
        <time>2015-07-08T10:07:42.1Z</time>
      </trkpt>
      <trkpt lat="48.07333" lon="7.08951">
        <ele>774</ele>
        <time>2015-07-08T10:07:45.1Z</time>
      </trkpt>
      <trkpt lat="48.0732" lon="7.08948">
        <ele>775</ele>
        <time>2015-07-08T10:07:48.1Z</time>
      </trkpt>
      <trkpt lat="48.07312" lon="7.08947">
        <ele>775</ele>
        <time>2015-07-08T10:07:50.1Z</time>
      </trkpt>
      <trkpt lat="48.07304" lon="7.08947">
        <ele>775</ele>
        <time>2015-07-08T10:07:52.1Z</time>
      </trkpt>
      <trkpt lat="48.07293" lon="7.08944">
        <ele>776</ele>
        <time>2015-07-08T10:07:55.1Z</time>
      </trkpt>
      <trkpt lat="48.07283" lon="7.08939">
        <ele>776</ele>
        <time>2015-07-08T10:07:58.1Z</time>
      </trkpt>
      <trkpt lat="48.07273" lon="7.08928">
        <ele>778</ele>
        <time>2015-07-08T10:08:01.1Z</time>
      </trkpt>
      <trkpt lat="48.07272" lon="7.08918">
        <ele>778</ele>
        <time>2015-07-08T10:08:03.1Z</time>
      </trkpt>
      <trkpt lat="48.07273" lon="7.08909">
        <ele>779</ele>
        <time>2015-07-08T10:08:05.1Z</time>
      </trkpt>
      <trkpt lat="48.07276" lon="7.08901">
        <ele>779</ele>
        <time>2015-07-08T10:08:08.1Z</time>
      </trkpt>
      <trkpt lat="48.0728" lon="7.08897">
        <ele>780</ele>
        <time>2015-07-08T10:08:10.1Z</time>
      </trkpt>
      <trkpt lat="48.07286" lon="7.08896">
        <ele>781</ele>
        <time>2015-07-08T10:08:13.1Z</time>
      </trkpt>
      <trkpt lat="48.07291" lon="7.08899">
        <ele>781</ele>
        <time>2015-07-08T10:08:15.1Z</time>
      </trkpt>
      <trkpt lat="48.07301" lon="7.08902">
        <ele>782</ele>
        <time>2015-07-08T10:08:18.1Z</time>
      </trkpt>
      <trkpt lat="48.07307" lon="7.08905">
        <ele>783</ele>
        <time>2015-07-08T10:08:20.1Z</time>
      </trkpt>
      <trkpt lat="48.07316" lon="7.08908">
        <ele>783</ele>
        <time>2015-07-08T10:08:23.1Z</time>
      </trkpt>
      <trkpt lat="48.07322" lon="7.08909">
        <ele>783</ele>
        <time>2015-07-08T10:08:25.1Z</time>
      </trkpt>
      <trkpt lat="48.07327" lon="7.0891">
        <ele>784</ele>
        <time>2015-07-08T10:08:27.1Z</time>
      </trkpt>
      <trkpt lat="48.07334" lon="7.0891">
        <ele>784</ele>
        <time>2015-07-08T10:08:30.1Z</time>
      </trkpt>
      <trkpt lat="48.07339" lon="7.0891">
        <ele>785</ele>
        <time>2015-07-08T10:08:32.1Z</time>
      </trkpt>
      <trkpt lat="48.07344" lon="7.08909">
        <ele>785</ele>
        <time>2015-07-08T10:08:34.1Z</time>
      </trkpt>
      <trkpt lat="48.0735" lon="7.08909">
        <ele>786</ele>
        <time>2015-07-08T10:08:36.1Z</time>
      </trkpt>
      <trkpt lat="48.07355" lon="7.08908">
        <ele>787</ele>
        <time>2015-07-08T10:08:38.1Z</time>
      </trkpt>
      <trkpt lat="48.07362" lon="7.08907">
        <ele>788</ele>
        <time>2015-07-08T10:08:40.1Z</time>
      </trkpt>
      <trkpt lat="48.07367" lon="7.08905">
        <ele>789</ele>
        <time>2015-07-08T10:08:42.1Z</time>
      </trkpt>
      <trkpt lat="48.07376" lon="7.08904">
        <ele>789</ele>
        <time>2015-07-08T10:08:45.1Z</time>
      </trkpt>
      <trkpt lat="48.07385" lon="7.08901">
        <ele>789</ele>
        <time>2015-07-08T10:08:48.1Z</time>
      </trkpt>
      <trkpt lat="48.07394" lon="7.08897">
        <ele>790</ele>
        <time>2015-07-08T10:08:51.1Z</time>
      </trkpt>
      <trkpt lat="48.07398" lon="7.08895">
        <ele>791</ele>
        <time>2015-07-08T10:08:53.1Z</time>
      </trkpt>
      <trkpt lat="48.07403" lon="7.08893">
        <ele>791</ele>
        <time>2015-07-08T10:08:55.1Z</time>
      </trkpt>
      <trkpt lat="48.07412" lon="7.08889">
        <ele>792</ele>
        <time>2015-07-08T10:08:58.1Z</time>
      </trkpt>
      <trkpt lat="48.07421" lon="7.08887">
        <ele>793</ele>
        <time>2015-07-08T10:09:01.1Z</time>
      </trkpt>
      <trkpt lat="48.07427" lon="7.08884">
        <ele>794</ele>
        <time>2015-07-08T10:09:03.1Z</time>
      </trkpt>
      <trkpt lat="48.07436" lon="7.08878">
        <ele>795</ele>
        <time>2015-07-08T10:09:06.1Z</time>
      </trkpt>
      <trkpt lat="48.07443" lon="7.08875">
        <ele>795</ele>
        <time>2015-07-08T10:09:08.1Z</time>
      </trkpt>
      <trkpt lat="48.07451" lon="7.08872">
        <ele>796</ele>
        <time>2015-07-08T10:09:11.1Z</time>
      </trkpt>
      <trkpt lat="48.07456" lon="7.08871">
        <ele>796</ele>
        <time>2015-07-08T10:09:13.1Z</time>
      </trkpt>
      <trkpt lat="48.07465" lon="7.08868">
        <ele>797</ele>
        <time>2015-07-08T10:09:16.1Z</time>
      </trkpt>
      <trkpt lat="48.07471" lon="7.08868">
        <ele>798</ele>
        <time>2015-07-08T10:09:18.1Z</time>
      </trkpt>
      <trkpt lat="48.07478" lon="7.08867">
        <ele>798</ele>
        <time>2015-07-08T10:09:20.1Z</time>
      </trkpt>
      <trkpt lat="48.07488" lon="7.08866">
        <ele>799</ele>
        <time>2015-07-08T10:09:23.1Z</time>
      </trkpt>
      <trkpt lat="48.07498" lon="7.08865">
        <ele>799</ele>
        <time>2015-07-08T10:09:26.1Z</time>
      </trkpt>
      <trkpt lat="48.07508" lon="7.08863">
        <ele>800</ele>
        <time>2015-07-08T10:09:29.1Z</time>
      </trkpt>
      <trkpt lat="48.07517" lon="7.08861">
        <ele>801</ele>
        <time>2015-07-08T10:09:32.1Z</time>
      </trkpt>
      <trkpt lat="48.07524" lon="7.0886">
        <ele>802</ele>
        <time>2015-07-08T10:09:34.1Z</time>
      </trkpt>
      <trkpt lat="48.07531" lon="7.08859">
        <ele>803</ele>
        <time>2015-07-08T10:09:36.1Z</time>
      </trkpt>
      <trkpt lat="48.07537" lon="7.08857">
        <ele>803</ele>
        <time>2015-07-08T10:09:38.1Z</time>
      </trkpt>
      <trkpt lat="48.07546" lon="7.08855">
        <ele>804</ele>
        <time>2015-07-08T10:09:41.1Z</time>
      </trkpt>
      <trkpt lat="48.07554" lon="7.08853">
        <ele>805</ele>
        <time>2015-07-08T10:09:44.1Z</time>
      </trkpt>
      <trkpt lat="48.07564" lon="7.0885">
        <ele>806</ele>
        <time>2015-07-08T10:09:47.1Z</time>
      </trkpt>
      <trkpt lat="48.0757" lon="7.08848">
        <ele>807</ele>
        <time>2015-07-08T10:09:49.1Z</time>
      </trkpt>
      <trkpt lat="48.07578" lon="7.08846">
        <ele>807</ele>
        <time>2015-07-08T10:09:52.1Z</time>
      </trkpt>
      <trkpt lat="48.07586" lon="7.08844">
        <ele>808</ele>
        <time>2015-07-08T10:09:55.1Z</time>
      </trkpt>
      <trkpt lat="48.0759" lon="7.08842">
        <ele>808</ele>
        <time>2015-07-08T10:09:57.1Z</time>
      </trkpt>
      <trkpt lat="48.07599" lon="7.08838">
        <ele>809</ele>
        <time>2015-07-08T10:10:00.1Z</time>
      </trkpt>
      <trkpt lat="48.07606" lon="7.08834">
        <ele>810</ele>
        <time>2015-07-08T10:10:03.1Z</time>
      </trkpt>
      <trkpt lat="48.07611" lon="7.08831">
        <ele>811</ele>
        <time>2015-07-08T10:10:05.1Z</time>
      </trkpt>
      <trkpt lat="48.07621" lon="7.08825">
        <ele>811</ele>
        <time>2015-07-08T10:10:08.1Z</time>
      </trkpt>
      <trkpt lat="48.07629" lon="7.0882">
        <ele>812</ele>
        <time>2015-07-08T10:10:10.1Z</time>
      </trkpt>
      <trkpt lat="48.07638" lon="7.08815">
        <ele>812</ele>
        <time>2015-07-08T10:10:13.1Z</time>
      </trkpt>
      <trkpt lat="48.07647" lon="7.08808">
        <ele>814</ele>
        <time>2015-07-08T10:10:16.1Z</time>
      </trkpt>
      <trkpt lat="48.07654" lon="7.08802">
        <ele>815</ele>
        <time>2015-07-08T10:10:18.1Z</time>
      </trkpt>
      <trkpt lat="48.07662" lon="7.08796">
        <ele>815</ele>
        <time>2015-07-08T10:10:20.1Z</time>
      </trkpt>
      <trkpt lat="48.07671" lon="7.08787">
        <ele>816</ele>
        <time>2015-07-08T10:10:23.1Z</time>
      </trkpt>
      <trkpt lat="48.07679" lon="7.08777">
        <ele>817</ele>
        <time>2015-07-08T10:10:26.1Z</time>
      </trkpt>
      <trkpt lat="48.07685" lon="7.0877">
        <ele>817</ele>
        <time>2015-07-08T10:10:28.1Z</time>
      </trkpt>
      <trkpt lat="48.07689" lon="7.08764">
        <ele>818</ele>
        <time>2015-07-08T10:10:30.1Z</time>
      </trkpt>
      <trkpt lat="48.07695" lon="7.08754">
        <ele>819</ele>
        <time>2015-07-08T10:10:33.1Z</time>
      </trkpt>
      <trkpt lat="48.07698" lon="7.08746">
        <ele>819</ele>
        <time>2015-07-08T10:10:35.1Z</time>
      </trkpt>
      <trkpt lat="48.07703" lon="7.08735">
        <ele>820</ele>
        <time>2015-07-08T10:10:38.1Z</time>
      </trkpt>
      <trkpt lat="48.07705" lon="7.08726">
        <ele>820</ele>
        <time>2015-07-08T10:10:40.1Z</time>
      </trkpt>
      <trkpt lat="48.07709" lon="7.08712">
        <ele>821</ele>
        <time>2015-07-08T10:10:43.1Z</time>
      </trkpt>
      <trkpt lat="48.07712" lon="7.08698">
        <ele>822</ele>
        <time>2015-07-08T10:10:46.1Z</time>
      </trkpt>
      <trkpt lat="48.07716" lon="7.08683">
        <ele>823</ele>
        <time>2015-07-08T10:10:49.1Z</time>
      </trkpt>
      <trkpt lat="48.07717" lon="7.08674">
        <ele>823</ele>
        <time>2015-07-08T10:10:51.1Z</time>
      </trkpt>
      <trkpt lat="48.07721" lon="7.0866">
        <ele>825</ele>
        <time>2015-07-08T10:10:54.1Z</time>
      </trkpt>
      <trkpt lat="48.07724" lon="7.08651">
        <ele>825</ele>
        <time>2015-07-08T10:10:56.1Z</time>
      </trkpt>
      <trkpt lat="48.07726" lon="7.08639">
        <ele>826</ele>
        <time>2015-07-08T10:10:59.1Z</time>
      </trkpt>
      <trkpt lat="48.07728" lon="7.08628">
        <ele>826</ele>
        <time>2015-07-08T10:11:02.1Z</time>
      </trkpt>
      <trkpt lat="48.0773" lon="7.08619">
        <ele>827</ele>
        <time>2015-07-08T10:11:04.1Z</time>
      </trkpt>
      <trkpt lat="48.07732" lon="7.08607">
        <ele>828</ele>
        <time>2015-07-08T10:11:07.1Z</time>
      </trkpt>
      <trkpt lat="48.07733" lon="7.08598">
        <ele>828</ele>
        <time>2015-07-08T10:11:09.1Z</time>
      </trkpt>
      <trkpt lat="48.07734" lon="7.08584">
        <ele>829</ele>
        <time>2015-07-08T10:11:12.1Z</time>
      </trkpt>
      <trkpt lat="48.07733" lon="7.08575">
        <ele>829</ele>
        <time>2015-07-08T10:11:14.1Z</time>
      </trkpt>
      <trkpt lat="48.07729" lon="7.08562">
        <ele>830</ele>
        <time>2015-07-08T10:11:17.1Z</time>
      </trkpt>
      <trkpt lat="48.07727" lon="7.08553">
        <ele>831</ele>
        <time>2015-07-08T10:11:19.1Z</time>
      </trkpt>
      <trkpt lat="48.07725" lon="7.08542">
        <ele>832</ele>
        <time>2015-07-08T10:11:21.1Z</time>
      </trkpt>
      <trkpt lat="48.07721" lon="7.08529">
        <ele>833</ele>
        <time>2015-07-08T10:11:24.1Z</time>
      </trkpt>
      <trkpt lat="48.07718" lon="7.08521">
        <ele>833</ele>
        <time>2015-07-08T10:11:26.1Z</time>
      </trkpt>
      <trkpt lat="48.07716" lon="7.08514">
        <ele>833</ele>
        <time>2015-07-08T10:11:28.1Z</time>
      </trkpt>
      <trkpt lat="48.07714" lon="7.08509">
        <ele>833</ele>
        <time>2015-07-08T10:11:30.1Z</time>
      </trkpt>
      <trkpt lat="48.07712" lon="7.085">
        <ele>833</ele>
        <time>2015-07-08T10:11:33.1Z</time>
      </trkpt>
      <trkpt lat="48.07711" lon="7.08493">
        <ele>833</ele>
        <time>2015-07-08T10:11:35.1Z</time>
      </trkpt>
      <trkpt lat="48.07708" lon="7.0848">
        <ele>834</ele>
        <time>2015-07-08T10:11:38.1Z</time>
      </trkpt>
      <trkpt lat="48.07706" lon="7.08471">
        <ele>835</ele>
        <time>2015-07-08T10:11:40.1Z</time>
      </trkpt>
      <trkpt lat="48.07705" lon="7.08462">
        <ele>835</ele>
        <time>2015-07-08T10:11:42.1Z</time>
      </trkpt>
      <trkpt lat="48.07701" lon="7.08452">
        <ele>836</ele>
        <time>2015-07-08T10:11:45.1Z</time>
      </trkpt>
      <trkpt lat="48.07699" lon="7.08444">
        <ele>837</ele>
        <time>2015-07-08T10:11:47.1Z</time>
      </trkpt>
      <trkpt lat="48.07698" lon="7.08438">
        <ele>837</ele>
        <time>2015-07-08T10:11:49.1Z</time>
      </trkpt>
      <trkpt lat="48.07696" lon="7.08425">
        <ele>838</ele>
        <time>2015-07-08T10:11:52.1Z</time>
      </trkpt>
      <trkpt lat="48.07694" lon="7.08416">
        <ele>839</ele>
        <time>2015-07-08T10:11:54.1Z</time>
      </trkpt>
      <trkpt lat="48.0769" lon="7.08404">
        <ele>840</ele>
        <time>2015-07-08T10:11:57.1Z</time>
      </trkpt>
      <trkpt lat="48.07688" lon="7.08391">
        <ele>841</ele>
        <time>2015-07-08T10:12:00.1Z</time>
      </trkpt>
      <trkpt lat="48.07687" lon="7.08379">
        <ele>841</ele>
        <time>2015-07-08T10:12:03.1Z</time>
      </trkpt>
      <trkpt lat="48.07685" lon="7.08372">
        <ele>842</ele>
        <time>2015-07-08T10:12:05.1Z</time>
      </trkpt>
      <trkpt lat="48.07685" lon="7.08365">
        <ele>842</ele>
        <time>2015-07-08T10:12:07.1Z</time>
      </trkpt>
      <trkpt lat="48.07684" lon="7.08353">
        <ele>843</ele>
        <time>2015-07-08T10:12:10.1Z</time>
      </trkpt>
      <trkpt lat="48.07682" lon="7.08342">
        <ele>844</ele>
        <time>2015-07-08T10:12:13.1Z</time>
      </trkpt>
      <trkpt lat="48.0768" lon="7.08333">
        <ele>845</ele>
        <time>2015-07-08T10:12:15.1Z</time>
      </trkpt>
      <trkpt lat="48.07677" lon="7.08323">
        <ele>845</ele>
        <time>2015-07-08T10:12:17.1Z</time>
      </trkpt>
      <trkpt lat="48.07673" lon="7.08308">
        <ele>846</ele>
        <time>2015-07-08T10:12:20.1Z</time>
      </trkpt>
      <trkpt lat="48.07669" lon="7.08292">
        <ele>847</ele>
        <time>2015-07-08T10:12:23.1Z</time>
      </trkpt>
      <trkpt lat="48.07667" lon="7.08281">
        <ele>847</ele>
        <time>2015-07-08T10:12:25.1Z</time>
      </trkpt>
      <trkpt lat="48.07665" lon="7.08266">
        <ele>848</ele>
        <time>2015-07-08T10:12:28.1Z</time>
      </trkpt>
      <trkpt lat="48.07662" lon="7.08252">
        <ele>849</ele>
        <time>2015-07-08T10:12:31.1Z</time>
      </trkpt>
      <trkpt lat="48.07661" lon="7.08245">
        <ele>849</ele>
        <time>2015-07-08T10:12:33.1Z</time>
      </trkpt>
      <trkpt lat="48.0766" lon="7.0823">
        <ele>850</ele>
        <time>2015-07-08T10:12:36.1Z</time>
      </trkpt>
      <trkpt lat="48.07658" lon="7.08221">
        <ele>851</ele>
        <time>2015-07-08T10:12:38.1Z</time>
      </trkpt>
      <trkpt lat="48.07658" lon="7.0821">
        <ele>852</ele>
        <time>2015-07-08T10:12:41.1Z</time>
      </trkpt>
      <trkpt lat="48.07657" lon="7.08202">
        <ele>852</ele>
        <time>2015-07-08T10:12:43.1Z</time>
      </trkpt>
      <trkpt lat="48.07655" lon="7.0819">
        <ele>852</ele>
        <time>2015-07-08T10:12:46.1Z</time>
      </trkpt>
      <trkpt lat="48.07653" lon="7.08179">
        <ele>853</ele>
        <time>2015-07-08T10:12:49.1Z</time>
      </trkpt>
      <trkpt lat="48.07653" lon="7.08166">
        <ele>854</ele>
        <time>2015-07-08T10:12:52.1Z</time>
      </trkpt>
      <trkpt lat="48.07654" lon="7.08156">
        <ele>854</ele>
        <time>2015-07-08T10:12:54.1Z</time>
      </trkpt>
      <trkpt lat="48.07653" lon="7.08142">
        <ele>855</ele>
        <time>2015-07-08T10:12:57.1Z</time>
      </trkpt>
      <trkpt lat="48.0765" lon="7.08133">
        <ele>855</ele>
        <time>2015-07-08T10:12:59.1Z</time>
      </trkpt>
      <trkpt lat="48.07645" lon="7.08119">
        <ele>856</ele>
        <time>2015-07-08T10:13:02.1Z</time>
      </trkpt>
      <trkpt lat="48.07642" lon="7.08109">
        <ele>857</ele>
        <time>2015-07-08T10:13:04.1Z</time>
      </trkpt>
      <trkpt lat="48.07637" lon="7.08096">
        <ele>857</ele>
        <time>2015-07-08T10:13:07.1Z</time>
      </trkpt>
      <trkpt lat="48.07634" lon="7.08083">
        <ele>858</ele>
        <time>2015-07-08T10:13:10.1Z</time>
      </trkpt>
      <trkpt lat="48.07632" lon="7.08076">
        <ele>859</ele>
        <time>2015-07-08T10:13:12.1Z</time>
      </trkpt>
      <trkpt lat="48.07628" lon="7.08065">
        <ele>859</ele>
        <time>2015-07-08T10:13:15.1Z</time>
      </trkpt>
      <trkpt lat="48.07626" lon="7.08059">
        <ele>860</ele>
        <time>2015-07-08T10:13:17.1Z</time>
      </trkpt>
      <trkpt lat="48.07623" lon="7.08048">
        <ele>861</ele>
        <time>2015-07-08T10:13:20.1Z</time>
      </trkpt>
      <trkpt lat="48.07619" lon="7.08036">
        <ele>862</ele>
        <time>2015-07-08T10:13:23.1Z</time>
      </trkpt>
      <trkpt lat="48.07616" lon="7.08028">
        <ele>863</ele>
        <time>2015-07-08T10:13:25.1Z</time>
      </trkpt>
      <trkpt lat="48.07611" lon="7.08017">
        <ele>863</ele>
        <time>2015-07-08T10:13:28.1Z</time>
      </trkpt>
      <trkpt lat="48.07609" lon="7.08008">
        <ele>864</ele>
        <time>2015-07-08T10:13:30.1Z</time>
      </trkpt>
      <trkpt lat="48.07605" lon="7.07994">
        <ele>865</ele>
        <time>2015-07-08T10:13:33.1Z</time>
      </trkpt>
      <trkpt lat="48.076" lon="7.07978">
        <ele>866</ele>
        <time>2015-07-08T10:13:36.1Z</time>
      </trkpt>
      <trkpt lat="48.07596" lon="7.07966">
        <ele>866</ele>
        <time>2015-07-08T10:13:39.1Z</time>
      </trkpt>
      <trkpt lat="48.07594" lon="7.07959">
        <ele>867</ele>
        <time>2015-07-08T10:13:41.1Z</time>
      </trkpt>
      <trkpt lat="48.07592" lon="7.07951">
        <ele>867</ele>
        <time>2015-07-08T10:13:44.1Z</time>
      </trkpt>
      <trkpt lat="48.0759" lon="7.07945">
        <ele>867</ele>
        <time>2015-07-08T10:13:46.1Z</time>
      </trkpt>
      <trkpt lat="48.07589" lon="7.07935">
        <ele>867</ele>
        <time>2015-07-08T10:13:49.1Z</time>
      </trkpt>
      <trkpt lat="48.07589" lon="7.07928">
        <ele>867</ele>
        <time>2015-07-08T10:13:51.1Z</time>
      </trkpt>
      <trkpt lat="48.07587" lon="7.07911">
        <ele>868</ele>
        <time>2015-07-08T10:13:54.1Z</time>
      </trkpt>
      <trkpt lat="48.07584" lon="7.07896">
        <ele>869</ele>
        <time>2015-07-08T10:13:57.1Z</time>
      </trkpt>
      <trkpt lat="48.07582" lon="7.07881">
        <ele>869</ele>
        <time>2015-07-08T10:14:00.1Z</time>
      </trkpt>
      <trkpt lat="48.07581" lon="7.07873">
        <ele>869</ele>
        <time>2015-07-08T10:14:02.1Z</time>
      </trkpt>
      <trkpt lat="48.07579" lon="7.07864">
        <ele>870</ele>
        <time>2015-07-08T10:14:04.1Z</time>
      </trkpt>
      <trkpt lat="48.07577" lon="7.07853">
        <ele>871</ele>
        <time>2015-07-08T10:14:07.1Z</time>
      </trkpt>
      <trkpt lat="48.07576" lon="7.07846">
        <ele>871</ele>
        <time>2015-07-08T10:14:09.1Z</time>
      </trkpt>
      <trkpt lat="48.07575" lon="7.07834">
        <ele>871</ele>
        <time>2015-07-08T10:14:12.1Z</time>
      </trkpt>
      <trkpt lat="48.07573" lon="7.07823">
        <ele>872</ele>
        <time>2015-07-08T10:14:15.1Z</time>
      </trkpt>
      <trkpt lat="48.07571" lon="7.07812">
        <ele>872</ele>
        <time>2015-07-08T10:14:18.1Z</time>
      </trkpt>
      <trkpt lat="48.07569" lon="7.07803">
        <ele>873</ele>
        <time>2015-07-08T10:14:20.1Z</time>
      </trkpt>
      <trkpt lat="48.07567" lon="7.07791">
        <ele>873</ele>
        <time>2015-07-08T10:14:23.1Z</time>
      </trkpt>
      <trkpt lat="48.07566" lon="7.07761">
        <ele>876</ele>
        <time>2015-07-08T10:14:25.1Z</time>
      </trkpt>
      <trkpt lat="48.0757" lon="7.07761">
        <ele>877</ele>
        <time>2015-07-08T10:14:27.1Z</time>
      </trkpt>
      <trkpt lat="48.07573" lon="7.0776">
        <ele>878</ele>
        <time>2015-07-08T10:14:29.1Z</time>
      </trkpt>
      <trkpt lat="48.0758" lon="7.0776">
        <ele>879</ele>
        <time>2015-07-08T10:14:32.1Z</time>
      </trkpt>
      <trkpt lat="48.07584" lon="7.0776">
        <ele>879</ele>
        <time>2015-07-08T10:14:35.1Z</time>
      </trkpt>
      <trkpt lat="48.07587" lon="7.0776">
        <ele>879</ele>
        <time>2015-07-08T10:14:38.1Z</time>
      </trkpt>
      <trkpt lat="48.07591" lon="7.0776">
        <ele>879</ele>
        <time>2015-07-08T10:14:41.1Z</time>
      </trkpt>
      <trkpt lat="48.07594" lon="7.07761">
        <ele>879</ele>
        <time>2015-07-08T10:14:44.1Z</time>
      </trkpt>
      <trkpt lat="48.07596" lon="7.07762">
        <ele>879</ele>
        <time>2015-07-08T10:14:46.1Z</time>
      </trkpt>
      <trkpt lat="48.076" lon="7.07762">
        <ele>879</ele>
        <time>2015-07-08T10:14:49.1Z</time>
      </trkpt>
      <trkpt lat="48.07602" lon="7.07762">
        <ele>880</ele>
        <time>2015-07-08T10:14:51.1Z</time>
      </trkpt>
      <trkpt lat="48.07605" lon="7.07761">
        <ele>880</ele>
        <time>2015-07-08T10:14:53.1Z</time>
      </trkpt>
      <trkpt lat="48.0761" lon="7.07761">
        <ele>880</ele>
        <time>2015-07-08T10:14:56.1Z</time>
      </trkpt>
      <trkpt lat="48.07612" lon="7.0776">
        <ele>881</ele>
        <time>2015-07-08T10:14:58.1Z</time>
      </trkpt>
      <trkpt lat="48.07616" lon="7.07758">
        <ele>881</ele>
        <time>2015-07-08T10:15:01.1Z</time>
      </trkpt>
      <trkpt lat="48.07622" lon="7.07755">
        <ele>882</ele>
        <time>2015-07-08T10:15:04.1Z</time>
      </trkpt>
      <trkpt lat="48.07624" lon="7.07753">
        <ele>883</ele>
        <time>2015-07-08T10:15:06.1Z</time>
      </trkpt>
      <trkpt lat="48.07628" lon="7.0775">
        <ele>883</ele>
        <time>2015-07-08T10:15:09.1Z</time>
      </trkpt>
      <trkpt lat="48.07631" lon="7.07746">
        <ele>883</ele>
        <time>2015-07-08T10:15:12.1Z</time>
      </trkpt>
      <trkpt lat="48.07635" lon="7.07741">
        <ele>884</ele>
        <time>2015-07-08T10:15:15.1Z</time>
      </trkpt>
      <trkpt lat="48.07637" lon="7.07739">
        <ele>884</ele>
        <time>2015-07-08T10:15:17.1Z</time>
      </trkpt>
      <trkpt lat="48.0764" lon="7.07733">
        <ele>884</ele>
        <time>2015-07-08T10:15:20.1Z</time>
      </trkpt>
      <trkpt lat="48.07643" lon="7.07728">
        <ele>885</ele>
        <time>2015-07-08T10:15:23.1Z</time>
      </trkpt>
      <trkpt lat="48.07645" lon="7.07724">
        <ele>885</ele>
        <time>2015-07-08T10:15:25.1Z</time>
      </trkpt>
      <trkpt lat="48.0765" lon="7.07719">
        <ele>886</ele>
        <time>2015-07-08T10:15:28.1Z</time>
      </trkpt>
      <trkpt lat="48.07653" lon="7.07715">
        <ele>886</ele>
        <time>2015-07-08T10:15:30.1Z</time>
      </trkpt>
      <trkpt lat="48.07656" lon="7.07711">
        <ele>886</ele>
        <time>2015-07-08T10:15:32.1Z</time>
      </trkpt>
      <trkpt lat="48.07659" lon="7.07707">
        <ele>886</ele>
        <time>2015-07-08T10:15:34.1Z</time>
      </trkpt>
      <trkpt lat="48.07662" lon="7.07703">
        <ele>886</ele>
        <time>2015-07-08T10:15:36.1Z</time>
      </trkpt>
      <trkpt lat="48.07665" lon="7.07697">
        <ele>887</ele>
        <time>2015-07-08T10:15:39.1Z</time>
      </trkpt>
      <trkpt lat="48.07669" lon="7.07694">
        <ele>887</ele>
        <time>2015-07-08T10:15:42.1Z</time>
      </trkpt>
      <trkpt lat="48.07671" lon="7.07691">
        <ele>887</ele>
        <time>2015-07-08T10:15:44.1Z</time>
      </trkpt>
      <trkpt lat="48.07674" lon="7.07687">
        <ele>887</ele>
        <time>2015-07-08T10:15:47.1Z</time>
      </trkpt>
      <trkpt lat="48.07676" lon="7.07684">
        <ele>888</ele>
        <time>2015-07-08T10:15:50.1Z</time>
      </trkpt>
      <trkpt lat="48.07679" lon="7.07683">
        <ele>888</ele>
        <time>2015-07-08T10:15:52.1Z</time>
      </trkpt>
      <trkpt lat="48.07682" lon="7.07679">
        <ele>889</ele>
        <time>2015-07-08T10:15:55.1Z</time>
      </trkpt>
      <trkpt lat="48.07686" lon="7.07677">
        <ele>889</ele>
        <time>2015-07-08T10:15:57.1Z</time>
      </trkpt>
      <trkpt lat="48.0769" lon="7.07672">
        <ele>890</ele>
        <time>2015-07-08T10:16:00.1Z</time>
      </trkpt>
      <trkpt lat="48.07692" lon="7.07667">
        <ele>890</ele>
        <time>2015-07-08T10:16:02.1Z</time>
      </trkpt>
      <trkpt lat="48.07695" lon="7.07662">
        <ele>891</ele>
        <time>2015-07-08T10:16:05.1Z</time>
      </trkpt>
      <trkpt lat="48.07698" lon="7.07659">
        <ele>891</ele>
        <time>2015-07-08T10:16:07.1Z</time>
      </trkpt>
      <trkpt lat="48.07702" lon="7.07654">
        <ele>891</ele>
        <time>2015-07-08T10:16:10.1Z</time>
      </trkpt>
      <trkpt lat="48.07705" lon="7.07651">
        <ele>891</ele>
        <time>2015-07-08T10:16:12.1Z</time>
      </trkpt>
      <trkpt lat="48.07708" lon="7.07649">
        <ele>892</ele>
        <time>2015-07-08T10:16:14.1Z</time>
      </trkpt>
      <trkpt lat="48.07713" lon="7.07644">
        <ele>892</ele>
        <time>2015-07-08T10:16:17.1Z</time>
      </trkpt>
      <trkpt lat="48.07714" lon="7.07639">
        <ele>893</ele>
        <time>2015-07-08T10:16:19.1Z</time>
      </trkpt>
      <trkpt lat="48.07716" lon="7.07634">
        <ele>894</ele>
        <time>2015-07-08T10:16:22.1Z</time>
      </trkpt>
      <trkpt lat="48.0772" lon="7.07628">
        <ele>894</ele>
        <time>2015-07-08T10:16:25.1Z</time>
      </trkpt>
      <trkpt lat="48.07722" lon="7.07624">
        <ele>894</ele>
        <time>2015-07-08T10:16:27.1Z</time>
      </trkpt>
      <trkpt lat="48.07725" lon="7.07617">
        <ele>894</ele>
        <time>2015-07-08T10:16:30.1Z</time>
      </trkpt>
      <trkpt lat="48.07729" lon="7.07609">
        <ele>895</ele>
        <time>2015-07-08T10:16:33.1Z</time>
      </trkpt>
      <trkpt lat="48.07732" lon="7.07604">
        <ele>895</ele>
        <time>2015-07-08T10:16:36.1Z</time>
      </trkpt>
      <trkpt lat="48.07734" lon="7.07601">
        <ele>896</ele>
        <time>2015-07-08T10:16:38.1Z</time>
      </trkpt>
      <trkpt lat="48.07735" lon="7.07598">
        <ele>896</ele>
        <time>2015-07-08T10:16:40.1Z</time>
      </trkpt>
      <trkpt lat="48.07737" lon="7.07592">
        <ele>896</ele>
        <time>2015-07-08T10:16:43.1Z</time>
      </trkpt>
      <trkpt lat="48.07737" lon="7.07589">
        <ele>897</ele>
        <time>2015-07-08T10:16:45.1Z</time>
      </trkpt>
      <trkpt lat="48.07739" lon="7.07581">
        <ele>897</ele>
        <time>2015-07-08T10:16:48.1Z</time>
      </trkpt>
      <trkpt lat="48.0774" lon="7.07577">
        <ele>897</ele>
        <time>2015-07-08T10:16:50.1Z</time>
      </trkpt>
      <trkpt lat="48.07743" lon="7.07572">
        <ele>898</ele>
        <time>2015-07-08T10:16:53.1Z</time>
      </trkpt>
      <trkpt lat="48.07747" lon="7.07565">
        <ele>898</ele>
        <time>2015-07-08T10:16:56.1Z</time>
      </trkpt>
      <trkpt lat="48.07749" lon="7.07556">
        <ele>899</ele>
        <time>2015-07-08T10:16:59.1Z</time>
      </trkpt>
      <trkpt lat="48.07752" lon="7.07543">
        <ele>900</ele>
        <time>2015-07-08T10:17:02.1Z</time>
      </trkpt>
      <trkpt lat="48.07756" lon="7.07532">
        <ele>900</ele>
        <time>2015-07-08T10:17:05.1Z</time>
      </trkpt>
      <trkpt lat="48.07758" lon="7.07525">
        <ele>901</ele>
        <time>2015-07-08T10:17:08.1Z</time>
      </trkpt>
      <trkpt lat="48.07761" lon="7.07519">
        <ele>902</ele>
        <time>2015-07-08T10:17:11.1Z</time>
      </trkpt>
      <trkpt lat="48.07763" lon="7.07514">
        <ele>903</ele>
        <time>2015-07-08T10:17:14.1Z</time>
      </trkpt>
      <trkpt lat="48.07764" lon="7.07512">
        <ele>903</ele>
        <time>2015-07-08T10:17:16.1Z</time>
      </trkpt>
      <trkpt lat="48.07765" lon="7.0751">
        <ele>903</ele>
        <time>2015-07-08T10:17:18.1Z</time>
      </trkpt>
      <trkpt lat="48.07768" lon="7.07507">
        <ele>903</ele>
        <time>2015-07-08T10:17:21.1Z</time>
      </trkpt>
      <trkpt lat="48.0777" lon="7.07505">
        <ele>903</ele>
        <time>2015-07-08T10:17:23.1Z</time>
      </trkpt>
      <trkpt lat="48.07772" lon="7.07501">
        <ele>903</ele>
        <time>2015-07-08T10:17:26.1Z</time>
      </trkpt>
      <trkpt lat="48.07774" lon="7.07497">
        <ele>904</ele>
        <time>2015-07-08T10:17:28.1Z</time>
      </trkpt>
      <trkpt lat="48.07777" lon="7.07492">
        <ele>904</ele>
        <time>2015-07-08T10:17:31.1Z</time>
      </trkpt>
      <trkpt lat="48.07778" lon="7.0749">
        <ele>904</ele>
        <time>2015-07-08T10:17:33.1Z</time>
      </trkpt>
      <trkpt lat="48.0778" lon="7.07486">
        <ele>904</ele>
        <time>2015-07-08T10:17:36.1Z</time>
      </trkpt>
      <trkpt lat="48.07782" lon="7.07484">
        <ele>905</ele>
        <time>2015-07-08T10:17:39.1Z</time>
      </trkpt>
      <trkpt lat="48.07783" lon="7.0748">
        <ele>905</ele>
        <time>2015-07-08T10:17:42.1Z</time>
      </trkpt>
      <trkpt lat="48.07785" lon="7.07477">
        <ele>905</ele>
        <time>2015-07-08T10:17:45.1Z</time>
      </trkpt>
      <trkpt lat="48.07787" lon="7.07475">
        <ele>905</ele>
        <time>2015-07-08T10:17:47.1Z</time>
      </trkpt>
      <trkpt lat="48.07789" lon="7.07471">
        <ele>905</ele>
        <time>2015-07-08T10:17:50.1Z</time>
      </trkpt>
      <trkpt lat="48.07791" lon="7.07468">
        <ele>906</ele>
        <time>2015-07-08T10:17:52.1Z</time>
      </trkpt>
      <trkpt lat="48.07794" lon="7.07465">
        <ele>906</ele>
        <time>2015-07-08T10:17:55.1Z</time>
      </trkpt>
      <trkpt lat="48.07798" lon="7.07461">
        <ele>906</ele>
        <time>2015-07-08T10:17:58.1Z</time>
      </trkpt>
      <trkpt lat="48.078" lon="7.07458">
        <ele>907</ele>
        <time>2015-07-08T10:18:00.1Z</time>
      </trkpt>
      <trkpt lat="48.07802" lon="7.07455">
        <ele>907</ele>
        <time>2015-07-08T10:18:02.1Z</time>
      </trkpt>
      <trkpt lat="48.07806" lon="7.07451">
        <ele>907</ele>
        <time>2015-07-08T10:18:05.1Z</time>
      </trkpt>
      <trkpt lat="48.07809" lon="7.07447">
        <ele>908</ele>
        <time>2015-07-08T10:18:08.1Z</time>
      </trkpt>
      <trkpt lat="48.07812" lon="7.07442">
        <ele>908</ele>
        <time>2015-07-08T10:18:11.1Z</time>
      </trkpt>
      <trkpt lat="48.07816" lon="7.07437">
        <ele>908</ele>
        <time>2015-07-08T10:18:14.1Z</time>
      </trkpt>
      <trkpt lat="48.07817" lon="7.07434">
        <ele>908</ele>
        <time>2015-07-08T10:18:16.1Z</time>
      </trkpt>
      <trkpt lat="48.0782" lon="7.07429">
        <ele>909</ele>
        <time>2015-07-08T10:18:19.1Z</time>
      </trkpt>
      <trkpt lat="48.07822" lon="7.07425">
        <ele>909</ele>
        <time>2015-07-08T10:18:21.1Z</time>
      </trkpt>
      <trkpt lat="48.07825" lon="7.0742">
        <ele>910</ele>
        <time>2015-07-08T10:18:24.1Z</time>
      </trkpt>
      <trkpt lat="48.07827" lon="7.07416">
        <ele>910</ele>
        <time>2015-07-08T10:18:26.1Z</time>
      </trkpt>
      <trkpt lat="48.07829" lon="7.07412">
        <ele>910</ele>
        <time>2015-07-08T10:18:28.1Z</time>
      </trkpt>
      <trkpt lat="48.07832" lon="7.07407">
        <ele>911</ele>
        <time>2015-07-08T10:18:31.1Z</time>
      </trkpt>
      <trkpt lat="48.07834" lon="7.07403">
        <ele>911</ele>
        <time>2015-07-08T10:18:33.1Z</time>
      </trkpt>
      <trkpt lat="48.07836" lon="7.074">
        <ele>911</ele>
        <time>2015-07-08T10:18:35.1Z</time>
      </trkpt>
      <trkpt lat="48.07838" lon="7.07394">
        <ele>912</ele>
        <time>2015-07-08T10:18:38.1Z</time>
      </trkpt>
      <trkpt lat="48.0784" lon="7.07389">
        <ele>912</ele>
        <time>2015-07-08T10:18:41.1Z</time>
      </trkpt>
      <trkpt lat="48.07842" lon="7.07386">
        <ele>913</ele>
        <time>2015-07-08T10:18:43.1Z</time>
      </trkpt>
      <trkpt lat="48.07845" lon="7.0738">
        <ele>914</ele>
        <time>2015-07-08T10:18:46.1Z</time>
      </trkpt>
      <trkpt lat="48.07847" lon="7.07376">
        <ele>915</ele>
        <time>2015-07-08T10:18:48.1Z</time>
      </trkpt>
      <trkpt lat="48.07851" lon="7.07371">
        <ele>914</ele>
        <time>2015-07-08T10:18:51.1Z</time>
      </trkpt>
      <trkpt lat="48.07853" lon="7.07367">
        <ele>914</ele>
        <time>2015-07-08T10:18:53.1Z</time>
      </trkpt>
      <trkpt lat="48.07855" lon="7.07364">
        <ele>915</ele>
        <time>2015-07-08T10:18:55.1Z</time>
      </trkpt>
      <trkpt lat="48.07859" lon="7.0736">
        <ele>915</ele>
        <time>2015-07-08T10:18:58.1Z</time>
      </trkpt>
      <trkpt lat="48.07863" lon="7.07355">
        <ele>915</ele>
        <time>2015-07-08T10:19:01.1Z</time>
      </trkpt>
      <trkpt lat="48.07865" lon="7.0735">
        <ele>915</ele>
        <time>2015-07-08T10:19:04.1Z</time>
      </trkpt>
      <trkpt lat="48.07868" lon="7.07346">
        <ele>915</ele>
        <time>2015-07-08T10:19:07.1Z</time>
      </trkpt>
      <trkpt lat="48.07871" lon="7.07341">
        <ele>915</ele>
        <time>2015-07-08T10:19:10.1Z</time>
      </trkpt>
      <trkpt lat="48.07875" lon="7.07337">
        <ele>916</ele>
        <time>2015-07-08T10:19:13.1Z</time>
      </trkpt>
      <trkpt lat="48.07877" lon="7.07335">
        <ele>916</ele>
        <time>2015-07-08T10:19:15.1Z</time>
      </trkpt>
      <trkpt lat="48.0788" lon="7.0733">
        <ele>917</ele>
        <time>2015-07-08T10:19:18.1Z</time>
      </trkpt>
      <trkpt lat="48.07883" lon="7.07326">
        <ele>917</ele>
        <time>2015-07-08T10:19:20.1Z</time>
      </trkpt>
      <trkpt lat="48.07885" lon="7.07323">
        <ele>917</ele>
        <time>2015-07-08T10:19:22.1Z</time>
      </trkpt>
      <trkpt lat="48.07889" lon="7.0732">
        <ele>917</ele>
        <time>2015-07-08T10:19:25.1Z</time>
      </trkpt>
      <trkpt lat="48.07891" lon="7.07318">
        <ele>918</ele>
        <time>2015-07-08T10:19:27.1Z</time>
      </trkpt>
      <trkpt lat="48.07895" lon="7.07315">
        <ele>918</ele>
        <time>2015-07-08T10:19:30.1Z</time>
      </trkpt>
      <trkpt lat="48.07898" lon="7.07312">
        <ele>918</ele>
        <time>2015-07-08T10:19:32.1Z</time>
      </trkpt>
      <trkpt lat="48.079" lon="7.07309">
        <ele>919</ele>
        <time>2015-07-08T10:19:34.1Z</time>
      </trkpt>
      <trkpt lat="48.07905" lon="7.07306">
        <ele>919</ele>
        <time>2015-07-08T10:19:37.1Z</time>
      </trkpt>
      <trkpt lat="48.07908" lon="7.07303">
        <ele>919</ele>
        <time>2015-07-08T10:19:39.1Z</time>
      </trkpt>
      <trkpt lat="48.07912" lon="7.073">
        <ele>920</ele>
        <time>2015-07-08T10:19:42.1Z</time>
      </trkpt>
      <trkpt lat="48.07915" lon="7.07297">
        <ele>920</ele>
        <time>2015-07-08T10:19:44.1Z</time>
      </trkpt>
      <trkpt lat="48.07918" lon="7.07295">
        <ele>920</ele>
        <time>2015-07-08T10:19:46.1Z</time>
      </trkpt>
      <trkpt lat="48.0792" lon="7.07292">
        <ele>921</ele>
        <time>2015-07-08T10:19:48.1Z</time>
      </trkpt>
      <trkpt lat="48.07923" lon="7.07288">
        <ele>921</ele>
        <time>2015-07-08T10:19:51.1Z</time>
      </trkpt>
      <trkpt lat="48.07928" lon="7.07285">
        <ele>922</ele>
        <time>2015-07-08T10:19:54.1Z</time>
      </trkpt>
      <trkpt lat="48.0793" lon="7.07282">
        <ele>922</ele>
        <time>2015-07-08T10:19:56.1Z</time>
      </trkpt>
      <trkpt lat="48.07934" lon="7.07278">
        <ele>922</ele>
        <time>2015-07-08T10:19:59.1Z</time>
      </trkpt>
      <trkpt lat="48.07936" lon="7.07276">
        <ele>922</ele>
        <time>2015-07-08T10:20:01.1Z</time>
      </trkpt>
      <trkpt lat="48.0794" lon="7.07272">
        <ele>922</ele>
        <time>2015-07-08T10:20:04.1Z</time>
      </trkpt>
      <trkpt lat="48.07942" lon="7.0727">
        <ele>923</ele>
        <time>2015-07-08T10:20:06.1Z</time>
      </trkpt>
      <trkpt lat="48.07945" lon="7.07265">
        <ele>923</ele>
        <time>2015-07-08T10:20:09.1Z</time>
      </trkpt>
      <trkpt lat="48.07947" lon="7.07263">
        <ele>923</ele>
        <time>2015-07-08T10:20:11.1Z</time>
      </trkpt>
      <trkpt lat="48.0795" lon="7.0726">
        <ele>924</ele>
        <time>2015-07-08T10:20:13.1Z</time>
      </trkpt>
      <trkpt lat="48.07954" lon="7.07256">
        <ele>924</ele>
        <time>2015-07-08T10:20:16.1Z</time>
      </trkpt>
      <trkpt lat="48.07957" lon="7.07252">
        <ele>924</ele>
        <time>2015-07-08T10:20:18.1Z</time>
      </trkpt>
      <trkpt lat="48.07961" lon="7.07246">
        <ele>925</ele>
        <time>2015-07-08T10:20:21.1Z</time>
      </trkpt>
      <trkpt lat="48.07963" lon="7.07243">
        <ele>926</ele>
        <time>2015-07-08T10:20:23.1Z</time>
      </trkpt>
      <trkpt lat="48.07965" lon="7.07239">
        <ele>926</ele>
        <time>2015-07-08T10:20:25.1Z</time>
      </trkpt>
      <trkpt lat="48.07968" lon="7.07236">
        <ele>927</ele>
        <time>2015-07-08T10:20:27.1Z</time>
      </trkpt>
      <trkpt lat="48.07971" lon="7.07232">
        <ele>927</ele>
        <time>2015-07-08T10:20:29.1Z</time>
      </trkpt>
      <trkpt lat="48.07975" lon="7.07227">
        <ele>927</ele>
        <time>2015-07-08T10:20:32.1Z</time>
      </trkpt>
      <trkpt lat="48.07978" lon="7.0722">
        <ele>928</ele>
        <time>2015-07-08T10:20:35.1Z</time>
      </trkpt>
      <trkpt lat="48.07982" lon="7.07215">
        <ele>929</ele>
        <time>2015-07-08T10:20:38.1Z</time>
      </trkpt>
      <trkpt lat="48.07986" lon="7.07212">
        <ele>929</ele>
        <time>2015-07-08T10:20:40.1Z</time>
      </trkpt>
      <trkpt lat="48.0799" lon="7.07205">
        <ele>930</ele>
        <time>2015-07-08T10:20:43.1Z</time>
      </trkpt>
      <trkpt lat="48.07993" lon="7.07202">
        <ele>930</ele>
        <time>2015-07-08T10:20:45.1Z</time>
      </trkpt>
      <trkpt lat="48.07996" lon="7.07197">
        <ele>931</ele>
        <time>2015-07-08T10:20:48.1Z</time>
      </trkpt>
      <trkpt lat="48.07998" lon="7.07194">
        <ele>931</ele>
        <time>2015-07-08T10:20:50.1Z</time>
      </trkpt>
      <trkpt lat="48.07999" lon="7.07192">
        <ele>931</ele>
        <time>2015-07-08T10:20:53.1Z</time>
      </trkpt>
      <trkpt lat="48.08001" lon="7.0719">
        <ele>931</ele>
        <time>2015-07-08T10:20:55.1Z</time>
      </trkpt>
      <trkpt lat="48.08003" lon="7.07188">
        <ele>931</ele>
        <time>2015-07-08T10:20:57.1Z</time>
      </trkpt>
      <trkpt lat="48.08006" lon="7.07181">
        <ele>931</ele>
        <time>2015-07-08T10:21:00.1Z</time>
      </trkpt>
      <trkpt lat="48.08009" lon="7.07177">
        <ele>931</ele>
        <time>2015-07-08T10:21:02.1Z</time>
      </trkpt>
      <trkpt lat="48.08012" lon="7.07171">
        <ele>931</ele>
        <time>2015-07-08T10:21:05.1Z</time>
      </trkpt>
      <trkpt lat="48.08014" lon="7.07167">
        <ele>931</ele>
        <time>2015-07-08T10:21:07.1Z</time>
      </trkpt>
      <trkpt lat="48.08015" lon="7.0716">
        <ele>932</ele>
        <time>2015-07-08T10:21:10.1Z</time>
      </trkpt>
      <trkpt lat="48.08015" lon="7.07151">
        <ele>933</ele>
        <time>2015-07-08T10:21:13.1Z</time>
      </trkpt>
      <trkpt lat="48.08018" lon="7.07147">
        <ele>933</ele>
        <time>2015-07-08T10:21:15.1Z</time>
      </trkpt>
      <trkpt lat="48.08021" lon="7.0714">
        <ele>933</ele>
        <time>2015-07-08T10:21:18.1Z</time>
      </trkpt>
      <trkpt lat="48.08024" lon="7.07133">
        <ele>933</ele>
        <time>2015-07-08T10:21:21.1Z</time>
      </trkpt>
      <trkpt lat="48.08025" lon="7.07128">
        <ele>934</ele>
        <time>2015-07-08T10:21:23.1Z</time>
      </trkpt>
      <trkpt lat="48.08027" lon="7.07124">
        <ele>934</ele>
        <time>2015-07-08T10:21:26.1Z</time>
      </trkpt>
      <trkpt lat="48.08029" lon="7.07119">
        <ele>934</ele>
        <time>2015-07-08T10:21:29.1Z</time>
      </trkpt>
      <trkpt lat="48.0803" lon="7.07114">
        <ele>934</ele>
        <time>2015-07-08T10:21:31.1Z</time>
      </trkpt>
      <trkpt lat="48.08032" lon="7.07106">
        <ele>934</ele>
        <time>2015-07-08T10:21:34.1Z</time>
      </trkpt>
      <trkpt lat="48.08034" lon="7.071">
        <ele>934</ele>
        <time>2015-07-08T10:21:37.1Z</time>
      </trkpt>
      <trkpt lat="48.08035" lon="7.07095">
        <ele>935</ele>
        <time>2015-07-08T10:21:39.1Z</time>
      </trkpt>
      <trkpt lat="48.08038" lon="7.07089">
        <ele>935</ele>
        <time>2015-07-08T10:21:42.1Z</time>
      </trkpt>
      <trkpt lat="48.08039" lon="7.07083">
        <ele>935</ele>
        <time>2015-07-08T10:21:45.1Z</time>
      </trkpt>
      <trkpt lat="48.08041" lon="7.07078">
        <ele>935</ele>
        <time>2015-07-08T10:21:47.1Z</time>
      </trkpt>
      <trkpt lat="48.08042" lon="7.07073">
        <ele>935</ele>
        <time>2015-07-08T10:21:49.1Z</time>
      </trkpt>
      <trkpt lat="48.08044" lon="7.07066">
        <ele>935</ele>
        <time>2015-07-08T10:21:52.1Z</time>
      </trkpt>
      <trkpt lat="48.08045" lon="7.07061">
        <ele>936</ele>
        <time>2015-07-08T10:21:54.1Z</time>
      </trkpt>
      <trkpt lat="48.08046" lon="7.07054">
        <ele>936</ele>
        <time>2015-07-08T10:21:57.1Z</time>
      </trkpt>
      <trkpt lat="48.08047" lon="7.07046">
        <ele>937</ele>
        <time>2015-07-08T10:22:00.1Z</time>
      </trkpt>
      <trkpt lat="48.08049" lon="7.0704">
        <ele>937</ele>
        <time>2015-07-08T10:22:02.1Z</time>
      </trkpt>
      <trkpt lat="48.0805" lon="7.07035">
        <ele>937</ele>
        <time>2015-07-08T10:22:04.1Z</time>
      </trkpt>
      <trkpt lat="48.08051" lon="7.07028">
        <ele>938</ele>
        <time>2015-07-08T10:22:07.1Z</time>
      </trkpt>
      <trkpt lat="48.08052" lon="7.07024">
        <ele>938</ele>
        <time>2015-07-08T10:22:09.1Z</time>
      </trkpt>
      <trkpt lat="48.08052" lon="7.07019">
        <ele>938</ele>
        <time>2015-07-08T10:22:11.1Z</time>
      </trkpt>
      <trkpt lat="48.08053" lon="7.07012">
        <ele>939</ele>
        <time>2015-07-08T10:22:14.1Z</time>
      </trkpt>
      <trkpt lat="48.08053" lon="7.07005">
        <ele>939</ele>
        <time>2015-07-08T10:22:17.1Z</time>
      </trkpt>
      <trkpt lat="48.08053" lon="7.06997">
        <ele>939</ele>
        <time>2015-07-08T10:22:20.1Z</time>
      </trkpt>
      <trkpt lat="48.08055" lon="7.06989">
        <ele>939</ele>
        <time>2015-07-08T10:22:23.1Z</time>
      </trkpt>
      <trkpt lat="48.08056" lon="7.06984">
        <ele>940</ele>
        <time>2015-07-08T10:22:25.1Z</time>
      </trkpt>
      <trkpt lat="48.08057" lon="7.06977">
        <ele>940</ele>
        <time>2015-07-08T10:22:28.1Z</time>
      </trkpt>
      <trkpt lat="48.08057" lon="7.06973">
        <ele>941</ele>
        <time>2015-07-08T10:22:30.1Z</time>
      </trkpt>
      <trkpt lat="48.08058" lon="7.06965">
        <ele>942</ele>
        <time>2015-07-08T10:22:33.1Z</time>
      </trkpt>
      <trkpt lat="48.08059" lon="7.06959">
        <ele>942</ele>
        <time>2015-07-08T10:22:35.1Z</time>
      </trkpt>
      <trkpt lat="48.08061" lon="7.06952">
        <ele>942</ele>
        <time>2015-07-08T10:22:38.1Z</time>
      </trkpt>
      <trkpt lat="48.08062" lon="7.06945">
        <ele>943</ele>
        <time>2015-07-08T10:22:41.1Z</time>
      </trkpt>
      <trkpt lat="48.08063" lon="7.06938">
        <ele>943</ele>
        <time>2015-07-08T10:22:44.1Z</time>
      </trkpt>
      <trkpt lat="48.08063" lon="7.06931">
        <ele>944</ele>
        <time>2015-07-08T10:22:47.1Z</time>
      </trkpt>
      <trkpt lat="48.08064" lon="7.06923">
        <ele>944</ele>
        <time>2015-07-08T10:22:50.1Z</time>
      </trkpt>
      <trkpt lat="48.08064" lon="7.06916">
        <ele>945</ele>
        <time>2015-07-08T10:22:53.1Z</time>
      </trkpt>
      <trkpt lat="48.08065" lon="7.06911">
        <ele>945</ele>
        <time>2015-07-08T10:22:55.1Z</time>
      </trkpt>
      <trkpt lat="48.08065" lon="7.06906">
        <ele>946</ele>
        <time>2015-07-08T10:22:57.1Z</time>
      </trkpt>
      <trkpt lat="48.08065" lon="7.06901">
        <ele>946</ele>
        <time>2015-07-08T10:22:59.1Z</time>
      </trkpt>
      <trkpt lat="48.08066" lon="7.06895">
        <ele>946</ele>
        <time>2015-07-08T10:23:02.1Z</time>
      </trkpt>
      <trkpt lat="48.08066" lon="7.06888">
        <ele>946</ele>
        <time>2015-07-08T10:23:05.1Z</time>
      </trkpt>
      <trkpt lat="48.08066" lon="7.06884">
        <ele>946</ele>
        <time>2015-07-08T10:23:07.1Z</time>
      </trkpt>
      <trkpt lat="48.08066" lon="7.06879">
        <ele>947</ele>
        <time>2015-07-08T10:23:10.1Z</time>
      </trkpt>
      <trkpt lat="48.08067" lon="7.06874">
        <ele>947</ele>
        <time>2015-07-08T10:23:13.1Z</time>
      </trkpt>
      <trkpt lat="48.08068" lon="7.0687">
        <ele>948</ele>
        <time>2015-07-08T10:23:15.1Z</time>
      </trkpt>
      <trkpt lat="48.08069" lon="7.06867">
        <ele>949</ele>
        <time>2015-07-08T10:23:17.1Z</time>
      </trkpt>
      <trkpt lat="48.0807" lon="7.06861">
        <ele>950</ele>
        <time>2015-07-08T10:23:20.1Z</time>
      </trkpt>
      <trkpt lat="48.08071" lon="7.06854">
        <ele>950</ele>
        <time>2015-07-08T10:23:23.1Z</time>
      </trkpt>
      <trkpt lat="48.08072" lon="7.06849">
        <ele>949</ele>
        <time>2015-07-08T10:23:26.1Z</time>
      </trkpt>
      <trkpt lat="48.08073" lon="7.06842">
        <ele>950</ele>
        <time>2015-07-08T10:23:29.1Z</time>
      </trkpt>
      <trkpt lat="48.08073" lon="7.06837">
        <ele>950</ele>
        <time>2015-07-08T10:23:31.1Z</time>
      </trkpt>
      <trkpt lat="48.08074" lon="7.06832">
        <ele>951</ele>
        <time>2015-07-08T10:23:33.1Z</time>
      </trkpt>
      <trkpt lat="48.08075" lon="7.06823">
        <ele>951</ele>
        <time>2015-07-08T10:23:36.1Z</time>
      </trkpt>
      <trkpt lat="48.08075" lon="7.06816">
        <ele>951</ele>
        <time>2015-07-08T10:23:39.1Z</time>
      </trkpt>
      <trkpt lat="48.08076" lon="7.06811">
        <ele>951</ele>
        <time>2015-07-08T10:23:41.1Z</time>
      </trkpt>
      <trkpt lat="48.08078" lon="7.06803">
        <ele>952</ele>
        <time>2015-07-08T10:23:44.1Z</time>
      </trkpt>
      <trkpt lat="48.08079" lon="7.06797">
        <ele>953</ele>
        <time>2015-07-08T10:23:46.1Z</time>
      </trkpt>
      <trkpt lat="48.08081" lon="7.06788">
        <ele>953</ele>
        <time>2015-07-08T10:23:49.1Z</time>
      </trkpt>
      <trkpt lat="48.08082" lon="7.06782">
        <ele>953</ele>
        <time>2015-07-08T10:23:51.1Z</time>
      </trkpt>
      <trkpt lat="48.08083" lon="7.06776">
        <ele>953</ele>
        <time>2015-07-08T10:23:53.1Z</time>
      </trkpt>
      <trkpt lat="48.08085" lon="7.06768">
        <ele>953</ele>
        <time>2015-07-08T10:23:56.1Z</time>
      </trkpt>
      <trkpt lat="48.08087" lon="7.06762">
        <ele>954</ele>
        <time>2015-07-08T10:23:58.1Z</time>
      </trkpt>
      <trkpt lat="48.08089" lon="7.06745">
        <ele>954</ele>
        <time>2015-07-08T10:24:01.1Z</time>
      </trkpt>
      <trkpt lat="48.08091" lon="7.06735">
        <ele>955</ele>
        <time>2015-07-08T10:24:03.1Z</time>
      </trkpt>
      <trkpt lat="48.08091" lon="7.06726">
        <ele>956</ele>
        <time>2015-07-08T10:24:05.1Z</time>
      </trkpt>
      <trkpt lat="48.08089" lon="7.06721">
        <ele>957</ele>
        <time>2015-07-08T10:24:08.1Z</time>
      </trkpt>
      <trkpt lat="48.08088" lon="7.06725">
        <ele>957</ele>
        <time>2015-07-08T10:24:10.1Z</time>
      </trkpt>
      <trkpt lat="48.08086" lon="7.06732">
        <ele>957</ele>
        <time>2015-07-08T10:24:13.1Z</time>
      </trkpt>
      <trkpt lat="48.08085" lon="7.06735">
        <ele>957</ele>
        <time>2015-07-08T10:24:15.1Z</time>
      </trkpt>
      <trkpt lat="48.08085" lon="7.06736">
        <ele>957</ele>
        <time>2015-07-08T10:24:17.1Z</time>
      </trkpt>
      <trkpt lat="48.08085" lon="7.06737">
        <ele>957</ele>
        <time>2015-07-08T10:24:19.1Z</time>
      </trkpt>
      <trkpt lat="48.08097" lon="7.06715">
        <ele>957</ele>
        <time>2015-07-08T10:24:22.1Z</time>
      </trkpt>
      <trkpt lat="48.081" lon="7.06711">
        <ele>957</ele>
        <time>2015-07-08T10:24:24.1Z</time>
      </trkpt>
      <trkpt lat="48.08101" lon="7.06706">
        <ele>957</ele>
        <time>2015-07-08T10:24:26.1Z</time>
      </trkpt>
      <trkpt lat="48.08104" lon="7.06698">
        <ele>958</ele>
        <time>2015-07-08T10:24:29.1Z</time>
      </trkpt>
      <trkpt lat="48.08106" lon="7.0669">
        <ele>958</ele>
        <time>2015-07-08T10:24:32.1Z</time>
      </trkpt>
      <trkpt lat="48.08107" lon="7.06683">
        <ele>958</ele>
        <time>2015-07-08T10:24:34.1Z</time>
      </trkpt>
      <trkpt lat="48.08109" lon="7.06672">
        <ele>959</ele>
        <time>2015-07-08T10:24:37.1Z</time>
      </trkpt>
      <trkpt lat="48.08111" lon="7.06664">
        <ele>959</ele>
        <time>2015-07-08T10:24:39.1Z</time>
      </trkpt>
      <trkpt lat="48.08113" lon="7.06656">
        <ele>960</ele>
        <time>2015-07-08T10:24:41.1Z</time>
      </trkpt>
      <trkpt lat="48.08114" lon="7.0665">
        <ele>960</ele>
        <time>2015-07-08T10:24:43.1Z</time>
      </trkpt>
      <trkpt lat="48.08115" lon="7.06642">
        <ele>960</ele>
        <time>2015-07-08T10:24:46.1Z</time>
      </trkpt>
      <trkpt lat="48.08117" lon="7.06634">
        <ele>960</ele>
        <time>2015-07-08T10:24:48.1Z</time>
      </trkpt>
      <trkpt lat="48.08117" lon="7.06625">
        <ele>961</ele>
        <time>2015-07-08T10:24:51.1Z</time>
      </trkpt>
      <trkpt lat="48.08118" lon="7.06621">
        <ele>961</ele>
        <time>2015-07-08T10:24:54.1Z</time>
      </trkpt>
      <trkpt lat="48.08119" lon="7.06613">
        <ele>962</ele>
        <time>2015-07-08T10:24:57.1Z</time>
      </trkpt>
      <trkpt lat="48.0812" lon="7.06607">
        <ele>962</ele>
        <time>2015-07-08T10:24:59.1Z</time>
      </trkpt>
      <trkpt lat="48.08121" lon="7.066">
        <ele>963</ele>
        <time>2015-07-08T10:25:01.1Z</time>
      </trkpt>
      <trkpt lat="48.08124" lon="7.06589">
        <ele>963</ele>
        <time>2015-07-08T10:25:04.1Z</time>
      </trkpt>
      <trkpt lat="48.08125" lon="7.06579">
        <ele>964</ele>
        <time>2015-07-08T10:25:07.1Z</time>
      </trkpt>
      <trkpt lat="48.08129" lon="7.06566">
        <ele>965</ele>
        <time>2015-07-08T10:25:10.1Z</time>
      </trkpt>
      <trkpt lat="48.08136" lon="7.06547">
        <ele>967</ele>
        <time>2015-07-08T10:25:13.1Z</time>
      </trkpt>
      <trkpt lat="48.08142" lon="7.06529">
        <ele>969</ele>
        <time>2015-07-08T10:25:16.1Z</time>
      </trkpt>
      <trkpt lat="48.08146" lon="7.06518">
        <ele>970</ele>
        <time>2015-07-08T10:25:18.1Z</time>
      </trkpt>
      <trkpt lat="48.0815" lon="7.06506">
        <ele>971</ele>
        <time>2015-07-08T10:25:20.1Z</time>
      </trkpt>
      <trkpt lat="48.08155" lon="7.0649">
        <ele>971</ele>
        <time>2015-07-08T10:25:23.1Z</time>
      </trkpt>
      <trkpt lat="48.08158" lon="7.0648">
        <ele>971</ele>
        <time>2015-07-08T10:25:25.1Z</time>
      </trkpt>
      <trkpt lat="48.08163" lon="7.06465">
        <ele>971</ele>
        <time>2015-07-08T10:25:28.1Z</time>
      </trkpt>
      <trkpt lat="48.08165" lon="7.06458">
        <ele>971</ele>
        <time>2015-07-08T10:25:30.1Z</time>
      </trkpt>
      <trkpt lat="48.08168" lon="7.06447">
        <ele>971</ele>
        <time>2015-07-08T10:25:33.1Z</time>
      </trkpt>
      <trkpt lat="48.08169" lon="7.06441">
        <ele>971</ele>
        <time>2015-07-08T10:25:36.1Z</time>
      </trkpt>
      <trkpt lat="48.0817" lon="7.06439">
        <ele>971</ele>
        <time>2015-07-08T10:25:38.1Z</time>
      </trkpt>
      <trkpt lat="48.0817" lon="7.06438">
        <ele>971</ele>
        <time>2015-07-08T10:25:41.1Z</time>
      </trkpt>
      <trkpt lat="48.08173" lon="7.06424">
        <ele>972</ele>
        <time>2015-07-08T10:25:43.1Z</time>
      </trkpt>
      <trkpt lat="48.08174" lon="7.06416">
        <ele>972</ele>
        <time>2015-07-08T10:25:46.1Z</time>
      </trkpt>
      <trkpt lat="48.08176" lon="7.06403">
        <ele>971</ele>
        <time>2015-07-08T10:25:49.1Z</time>
      </trkpt>
      <trkpt lat="48.08178" lon="7.06394">
        <ele>971</ele>
        <time>2015-07-08T10:25:51.1Z</time>
      </trkpt>
      <trkpt lat="48.08181" lon="7.0638">
        <ele>971</ele>
        <time>2015-07-08T10:25:54.1Z</time>
      </trkpt>
      <trkpt lat="48.08184" lon="7.06371">
        <ele>971</ele>
        <time>2015-07-08T10:25:56.1Z</time>
      </trkpt>
      <trkpt lat="48.08186" lon="7.06361">
        <ele>970</ele>
        <time>2015-07-08T10:25:59.1Z</time>
      </trkpt>
      <trkpt lat="48.08188" lon="7.06352">
        <ele>969</ele>
        <time>2015-07-08T10:26:02.1Z</time>
      </trkpt>
      <trkpt lat="48.0819" lon="7.06346">
        <ele>968</ele>
        <time>2015-07-08T10:26:05.1Z</time>
      </trkpt>
      <trkpt lat="48.08191" lon="7.06344">
        <ele>968</ele>
        <time>2015-07-08T10:26:07.1Z</time>
      </trkpt>
      <trkpt lat="48.0819" lon="7.06344">
        <ele>967</ele>
        <time>2015-07-08T10:26:10.1Z</time>
      </trkpt>
      <trkpt lat="48.08192" lon="7.06336">
        <ele>967</ele>
        <time>2015-07-08T10:26:13.1Z</time>
      </trkpt>
      <trkpt lat="48.08197" lon="7.06322">
        <ele>967</ele>
        <time>2015-07-08T10:26:16.1Z</time>
      </trkpt>
      <trkpt lat="48.08202" lon="7.06308">
        <ele>967</ele>
        <time>2015-07-08T10:26:18.1Z</time>
      </trkpt>
      <trkpt lat="48.08208" lon="7.06292">
        <ele>968</ele>
        <time>2015-07-08T10:26:20.1Z</time>
      </trkpt>
      <trkpt lat="48.08215" lon="7.06279">
        <ele>968</ele>
        <time>2015-07-08T10:26:22.1Z</time>
      </trkpt>
      <trkpt lat="48.08222" lon="7.06264">
        <ele>968</ele>
        <time>2015-07-08T10:26:24.1Z</time>
      </trkpt>
      <trkpt lat="48.08237" lon="7.06243">
        <ele>967</ele>
        <time>2015-07-08T10:26:27.1Z</time>
      </trkpt>
      <trkpt lat="48.08253" lon="7.06229">
        <ele>965</ele>
        <time>2015-07-08T10:26:30.1Z</time>
      </trkpt>
      <trkpt lat="48.08276" lon="7.06222">
        <ele>965</ele>
        <time>2015-07-08T10:26:33.1Z</time>
      </trkpt>
      <trkpt lat="48.08297" lon="7.06221">
        <ele>966</ele>
        <time>2015-07-08T10:26:36.1Z</time>
      </trkpt>
      <trkpt lat="48.08318" lon="7.06218">
        <ele>969</ele>
        <time>2015-07-08T10:26:39.1Z</time>
      </trkpt>
      <trkpt lat="48.08329" lon="7.06209">
        <ele>970</ele>
        <time>2015-07-08T10:26:41.1Z</time>
      </trkpt>
      <trkpt lat="48.08337" lon="7.06195">
        <ele>971</ele>
        <time>2015-07-08T10:26:43.1Z</time>
      </trkpt>
      <trkpt lat="48.08333" lon="7.06182">
        <ele>972</ele>
        <time>2015-07-08T10:26:45.1Z</time>
      </trkpt>
      <trkpt lat="48.0832" lon="7.06178">
        <ele>973</ele>
        <time>2015-07-08T10:26:48.1Z</time>
      </trkpt>
      <trkpt lat="48.08309" lon="7.06175">
        <ele>975</ele>
        <time>2015-07-08T10:26:51.1Z</time>
      </trkpt>
      <trkpt lat="48.08302" lon="7.06167">
        <ele>976</ele>
        <time>2015-07-08T10:26:54.1Z</time>
      </trkpt>
      <trkpt lat="48.083" lon="7.06162">
        <ele>977</ele>
        <time>2015-07-08T10:26:56.1Z</time>
      </trkpt>
      <trkpt lat="48.08302" lon="7.06151">
        <ele>978</ele>
        <time>2015-07-08T10:26:59.1Z</time>
      </trkpt>
      <trkpt lat="48.08305" lon="7.06147">
        <ele>979</ele>
        <time>2015-07-08T10:27:01.1Z</time>
      </trkpt>
      <trkpt lat="48.08312" lon="7.06146">
        <ele>980</ele>
        <time>2015-07-08T10:27:04.1Z</time>
      </trkpt>
      <trkpt lat="48.08316" lon="7.06147">
        <ele>981</ele>
        <time>2015-07-08T10:27:06.1Z</time>
      </trkpt>
      <trkpt lat="48.08323" lon="7.06146">
        <ele>981</ele>
        <time>2015-07-08T10:27:09.1Z</time>
      </trkpt>
      <trkpt lat="48.08331" lon="7.06145">
        <ele>982</ele>
        <time>2015-07-08T10:27:12.1Z</time>
      </trkpt>
      <trkpt lat="48.0834" lon="7.06142">
        <ele>983</ele>
        <time>2015-07-08T10:27:15.1Z</time>
      </trkpt>
      <trkpt lat="48.08346" lon="7.06138">
        <ele>984</ele>
        <time>2015-07-08T10:27:17.1Z</time>
      </trkpt>
      <trkpt lat="48.08351" lon="7.06134">
        <ele>985</ele>
        <time>2015-07-08T10:27:19.1Z</time>
      </trkpt>
      <trkpt lat="48.08356" lon="7.06131">
        <ele>985</ele>
        <time>2015-07-08T10:27:21.1Z</time>
      </trkpt>
      <trkpt lat="48.08363" lon="7.06127">
        <ele>986</ele>
        <time>2015-07-08T10:27:24.1Z</time>
      </trkpt>
      <trkpt lat="48.08369" lon="7.06123">
        <ele>987</ele>
        <time>2015-07-08T10:27:27.1Z</time>
      </trkpt>
      <trkpt lat="48.08374" lon="7.06121">
        <ele>988</ele>
        <time>2015-07-08T10:27:29.1Z</time>
      </trkpt>
      <trkpt lat="48.0838" lon="7.06119">
        <ele>988</ele>
        <time>2015-07-08T10:27:32.1Z</time>
      </trkpt>
      <trkpt lat="48.08389" lon="7.06117">
        <ele>989</ele>
        <time>2015-07-08T10:27:35.1Z</time>
      </trkpt>
      <trkpt lat="48.08395" lon="7.06116">
        <ele>990</ele>
        <time>2015-07-08T10:27:37.1Z</time>
      </trkpt>
      <trkpt lat="48.08403" lon="7.06115">
        <ele>991</ele>
        <time>2015-07-08T10:27:40.1Z</time>
      </trkpt>
      <trkpt lat="48.08408" lon="7.06114">
        <ele>991</ele>
        <time>2015-07-08T10:27:42.1Z</time>
      </trkpt>
      <trkpt lat="48.08414" lon="7.0611">
        <ele>992</ele>
        <time>2015-07-08T10:27:45.1Z</time>
      </trkpt>
      <trkpt lat="48.08419" lon="7.061">
        <ele>992</ele>
        <time>2015-07-08T10:27:48.1Z</time>
      </trkpt>
      <trkpt lat="48.08418" lon="7.06093">
        <ele>993</ele>
        <time>2015-07-08T10:27:50.1Z</time>
      </trkpt>
      <trkpt lat="48.08413" lon="7.06086">
        <ele>994</ele>
        <time>2015-07-08T10:27:53.1Z</time>
      </trkpt>
      <trkpt lat="48.08408" lon="7.0608">
        <ele>994</ele>
        <time>2015-07-08T10:27:56.1Z</time>
      </trkpt>
      <trkpt lat="48.08405" lon="7.06075">
        <ele>994</ele>
        <time>2015-07-08T10:27:59.1Z</time>
      </trkpt>
      <trkpt lat="48.084" lon="7.0607">
        <ele>994</ele>
        <time>2015-07-08T10:28:02.1Z</time>
      </trkpt>
      <trkpt lat="48.08397" lon="7.06065">
        <ele>995</ele>
        <time>2015-07-08T10:28:04.1Z</time>
      </trkpt>
      <trkpt lat="48.08389" lon="7.06059">
        <ele>996</ele>
        <time>2015-07-08T10:28:07.1Z</time>
      </trkpt>
      <trkpt lat="48.08381" lon="7.0605">
        <ele>997</ele>
        <time>2015-07-08T10:28:10.1Z</time>
      </trkpt>
      <trkpt lat="48.08376" lon="7.06043">
        <ele>998</ele>
        <time>2015-07-08T10:28:12.1Z</time>
      </trkpt>
      <trkpt lat="48.08372" lon="7.06037">
        <ele>998</ele>
        <time>2015-07-08T10:28:14.1Z</time>
      </trkpt>
      <trkpt lat="48.08366" lon="7.06027">
        <ele>999</ele>
        <time>2015-07-08T10:28:17.1Z</time>
      </trkpt>
      <trkpt lat="48.08362" lon="7.0602">
        <ele>1000</ele>
        <time>2015-07-08T10:28:19.1Z</time>
      </trkpt>
      <trkpt lat="48.08356" lon="7.0601">
        <ele>1001</ele>
        <time>2015-07-08T10:28:22.1Z</time>
      </trkpt>
      <trkpt lat="48.08353" lon="7.06002">
        <ele>1002</ele>
        <time>2015-07-08T10:28:24.1Z</time>
      </trkpt>
      <trkpt lat="48.08353" lon="7.05994">
        <ele>1002</ele>
        <time>2015-07-08T10:28:26.1Z</time>
      </trkpt>
      <trkpt lat="48.08352" lon="7.05988">
        <ele>1003</ele>
        <time>2015-07-08T10:28:28.1Z</time>
      </trkpt>
      <trkpt lat="48.08352" lon="7.05979">
        <ele>1004</ele>
        <time>2015-07-08T10:28:31.1Z</time>
      </trkpt>
      <trkpt lat="48.08352" lon="7.05973">
        <ele>1004</ele>
        <time>2015-07-08T10:28:34.1Z</time>
      </trkpt>
      <trkpt lat="48.08351" lon="7.05967">
        <ele>1004</ele>
        <time>2015-07-08T10:28:36.1Z</time>
      </trkpt>
      <trkpt lat="48.08351" lon="7.05961">
        <ele>1005</ele>
        <time>2015-07-08T10:28:38.1Z</time>
      </trkpt>
      <trkpt lat="48.08353" lon="7.0595">
        <ele>1005</ele>
        <time>2015-07-08T10:28:41.1Z</time>
      </trkpt>
      <trkpt lat="48.08354" lon="7.05938">
        <ele>1006</ele>
        <time>2015-07-08T10:28:44.1Z</time>
      </trkpt>
      <trkpt lat="48.08355" lon="7.0593">
        <ele>1006</ele>
        <time>2015-07-08T10:28:46.1Z</time>
      </trkpt>
      <trkpt lat="48.08357" lon="7.05922">
        <ele>1007</ele>
        <time>2015-07-08T10:28:48.1Z</time>
      </trkpt>
      <trkpt lat="48.0836" lon="7.0591">
        <ele>1008</ele>
        <time>2015-07-08T10:28:51.1Z</time>
      </trkpt>
      <trkpt lat="48.08362" lon="7.05899">
        <ele>1008</ele>
        <time>2015-07-08T10:28:54.1Z</time>
      </trkpt>
      <trkpt lat="48.08365" lon="7.0589">
        <ele>1009</ele>
        <time>2015-07-08T10:28:57.1Z</time>
      </trkpt>
      <trkpt lat="48.08369" lon="7.05887">
        <ele>1009</ele>
        <time>2015-07-08T10:28:59.1Z</time>
      </trkpt>
      <trkpt lat="48.08373" lon="7.05891">
        <ele>1010</ele>
        <time>2015-07-08T10:29:01.1Z</time>
      </trkpt>
      <trkpt lat="48.08374" lon="7.05903">
        <ele>1010</ele>
        <time>2015-07-08T10:29:04.1Z</time>
      </trkpt>
      <trkpt lat="48.08374" lon="7.05913">
        <ele>1011</ele>
        <time>2015-07-08T10:29:06.1Z</time>
      </trkpt>
      <trkpt lat="48.08373" lon="7.05927">
        <ele>1011</ele>
        <time>2015-07-08T10:29:09.1Z</time>
      </trkpt>
      <trkpt lat="48.08372" lon="7.05935">
        <ele>1011</ele>
        <time>2015-07-08T10:29:11.1Z</time>
      </trkpt>
      <trkpt lat="48.0837" lon="7.05942">
        <ele>1010</ele>
        <time>2015-07-08T10:29:13.1Z</time>
      </trkpt>
      <trkpt lat="48.08369" lon="7.0595">
        <ele>1010</ele>
        <time>2015-07-08T10:29:15.1Z</time>
      </trkpt>
      <trkpt lat="48.08375" lon="7.05933">
        <ele>1008</ele>
        <time>2015-07-08T10:29:18.1Z</time>
      </trkpt>
      <trkpt lat="48.08377" lon="7.05934">
        <ele>1008</ele>
        <time>2015-07-08T10:29:20.1Z</time>
      </trkpt>
      <trkpt lat="48.08377" lon="7.05941">
        <ele>1008</ele>
        <time>2015-07-08T10:29:23.1Z</time>
      </trkpt>
      <trkpt lat="48.08377" lon="7.05948">
        <ele>1008</ele>
        <time>2015-07-08T10:29:25.1Z</time>
      </trkpt>
      <trkpt lat="48.08378" lon="7.0596">
        <ele>1008</ele>
        <time>2015-07-08T10:29:28.1Z</time>
      </trkpt>
      <trkpt lat="48.08379" lon="7.05972">
        <ele>1008</ele>
        <time>2015-07-08T10:29:31.1Z</time>
      </trkpt>
      <trkpt lat="48.08382" lon="7.05975">
        <ele>1008</ele>
        <time>2015-07-08T10:29:33.1Z</time>
      </trkpt>
      <trkpt lat="48.08389" lon="7.05973">
        <ele>1008</ele>
        <time>2015-07-08T10:29:36.1Z</time>
      </trkpt>
      <trkpt lat="48.08393" lon="7.05971">
        <ele>1008</ele>
        <time>2015-07-08T10:29:38.1Z</time>
      </trkpt>
      <trkpt lat="48.08398" lon="7.05974">
        <ele>1008</ele>
        <time>2015-07-08T10:29:41.1Z</time>
      </trkpt>
      <trkpt lat="48.084" lon="7.05979">
        <ele>1008</ele>
        <time>2015-07-08T10:29:43.1Z</time>
      </trkpt>
      <trkpt lat="48.08403" lon="7.05979">
        <ele>1007</ele>
        <time>2015-07-08T10:29:46.1Z</time>
      </trkpt>
      <trkpt lat="48.08406" lon="7.0598">
        <ele>1006</ele>
        <time>2015-07-08T10:29:48.1Z</time>
      </trkpt>
      <trkpt lat="48.08412" lon="7.05982">
        <ele>1006</ele>
        <time>2015-07-08T10:29:51.1Z</time>
      </trkpt>
      <trkpt lat="48.08418" lon="7.05985">
        <ele>1007</ele>
        <time>2015-07-08T10:29:54.1Z</time>
      </trkpt>
      <trkpt lat="48.08421" lon="7.05986">
        <ele>1007</ele>
        <time>2015-07-08T10:29:56.1Z</time>
      </trkpt>
      <trkpt lat="48.08423" lon="7.05987">
        <ele>1007</ele>
        <time>2015-07-08T10:29:59.1Z</time>
      </trkpt>
      <trkpt lat="48.08425" lon="7.05987">
        <ele>1007</ele>
        <time>2015-07-08T10:30:01.1Z</time>
      </trkpt>
      <trkpt lat="48.08428" lon="7.05988">
        <ele>1007</ele>
        <time>2015-07-08T10:30:04.1Z</time>
      </trkpt>
      <trkpt lat="48.08432" lon="7.0599">
        <ele>1007</ele>
        <time>2015-07-08T10:30:06.1Z</time>
      </trkpt>
      <trkpt lat="48.08439" lon="7.05992">
        <ele>1007</ele>
        <time>2015-07-08T10:30:09.1Z</time>
      </trkpt>
      <trkpt lat="48.08446" lon="7.05995">
        <ele>1007</ele>
        <time>2015-07-08T10:30:11.1Z</time>
      </trkpt>
      <trkpt lat="48.08454" lon="7.05996">
        <ele>1007</ele>
        <time>2015-07-08T10:30:14.1Z</time>
      </trkpt>
      <trkpt lat="48.08461" lon="7.05996">
        <ele>1007</ele>
        <time>2015-07-08T10:30:17.1Z</time>
      </trkpt>
      <trkpt lat="48.08467" lon="7.05994">
        <ele>1007</ele>
        <time>2015-07-08T10:30:19.1Z</time>
      </trkpt>
      <trkpt lat="48.08477" lon="7.05988">
        <ele>1007</ele>
        <time>2015-07-08T10:30:22.1Z</time>
      </trkpt>
      <trkpt lat="48.08485" lon="7.05983">
        <ele>1008</ele>
        <time>2015-07-08T10:30:24.1Z</time>
      </trkpt>
      <trkpt lat="48.08489" lon="7.05976">
        <ele>1008</ele>
        <time>2015-07-08T10:30:27.1Z</time>
      </trkpt>
      <trkpt lat="48.08491" lon="7.05975">
        <ele>1008</ele>
        <time>2015-07-08T10:30:29.1Z</time>
      </trkpt>
      <trkpt lat="48.08491" lon="7.05976">
        <ele>1008</ele>
        <time>2015-07-08T10:30:32.1Z</time>
      </trkpt>
      <trkpt lat="48.08493" lon="7.05979">
        <ele>1008</ele>
        <time>2015-07-08T10:30:35.1Z</time>
      </trkpt>
      <trkpt lat="48.08495" lon="7.05981">
        <ele>1008</ele>
        <time>2015-07-08T10:30:37.1Z</time>
      </trkpt>
      <trkpt lat="48.08499" lon="7.05982">
        <ele>1007</ele>
        <time>2015-07-08T10:30:39.1Z</time>
      </trkpt>
      <trkpt lat="48.08502" lon="7.05983">
        <ele>1007</ele>
        <time>2015-07-08T10:30:41.1Z</time>
      </trkpt>
      <trkpt lat="48.08506" lon="7.05978">
        <ele>1006</ele>
        <time>2015-07-08T10:30:44.1Z</time>
      </trkpt>
      <trkpt lat="48.0851" lon="7.05974">
        <ele>1006</ele>
        <time>2015-07-08T10:30:47.1Z</time>
      </trkpt>
      <trkpt lat="48.08511" lon="7.05974">
        <ele>1006</ele>
        <time>2015-07-08T10:30:49.1Z</time>
      </trkpt>
      <trkpt lat="48.08513" lon="7.05974">
        <ele>1006</ele>
        <time>2015-07-08T10:30:52.1Z</time>
      </trkpt>
      <trkpt lat="48.08514" lon="7.05975">
        <ele>1006</ele>
        <time>2015-07-08T10:30:54.1Z</time>
      </trkpt>
      <trkpt lat="48.08516" lon="7.05976">
        <ele>1006</ele>
        <time>2015-07-08T10:30:57.1Z</time>
      </trkpt>
      <trkpt lat="48.08517" lon="7.05977">
        <ele>1006</ele>
        <time>2015-07-08T10:31:00.1Z</time>
      </trkpt>
      <trkpt lat="48.08517" lon="7.05978">
        <ele>1005</ele>
        <time>2015-07-08T10:31:02.1Z</time>
      </trkpt>
      <trkpt lat="48.08519" lon="7.05978">
        <ele>1005</ele>
        <time>2015-07-08T10:31:05.1Z</time>
      </trkpt>
      <trkpt lat="48.0852" lon="7.05979">
        <ele>1005</ele>
        <time>2015-07-08T10:31:08.1Z</time>
      </trkpt>
      <trkpt lat="48.0852" lon="7.0598">
        <ele>1006</ele>
        <time>2015-07-08T10:31:11.1Z</time>
      </trkpt>
      <trkpt lat="48.0852" lon="7.0598">
        <ele>1006</ele>
        <time>2015-07-08T10:31:14.1Z</time>
      </trkpt>
      <trkpt lat="48.0852" lon="7.0598">
        <ele>1006</ele>
        <time>2015-07-08T10:31:16.1Z</time>
      </trkpt>
      <trkpt lat="48.08522" lon="7.0598">
        <ele>1006</ele>
        <time>2015-07-08T10:31:19.1Z</time>
      </trkpt>
      <trkpt lat="48.08522" lon="7.05981">
        <ele>1006</ele>
        <time>2015-07-08T10:31:22.1Z</time>
      </trkpt>
      <trkpt lat="48.08523" lon="7.05982">
        <ele>1006</ele>
        <time>2015-07-08T10:31:24.1Z</time>
      </trkpt>
      <trkpt lat="48.08524" lon="7.05985">
        <ele>1006</ele>
        <time>2015-07-08T10:31:26.1Z</time>
      </trkpt>
      <trkpt lat="48.08525" lon="7.05989">
        <ele>1006</ele>
        <time>2015-07-08T10:31:29.1Z</time>
      </trkpt>
      <trkpt lat="48.08525" lon="7.05994">
        <ele>1006</ele>
        <time>2015-07-08T10:31:32.1Z</time>
      </trkpt>
      <trkpt lat="48.08524" lon="7.05997">
        <ele>1006</ele>
        <time>2015-07-08T10:31:34.1Z</time>
      </trkpt>
      <trkpt lat="48.08524" lon="7.05999">
        <ele>1005</ele>
        <time>2015-07-08T10:31:36.1Z</time>
      </trkpt>
      <trkpt lat="48.08523" lon="7.06">
        <ele>1005</ele>
        <time>2015-07-08T10:31:39.1Z</time>
      </trkpt>
      <trkpt lat="48.08523" lon="7.06001">
        <ele>1005</ele>
        <time>2015-07-08T10:31:41.1Z</time>
      </trkpt>
      <trkpt lat="48.08521" lon="7.06002">
        <ele>1005</ele>
        <time>2015-07-08T10:31:43.1Z</time>
      </trkpt>
      <trkpt lat="48.0852" lon="7.06005">
        <ele>1005</ele>
        <time>2015-07-08T10:31:46.1Z</time>
      </trkpt>
      <trkpt lat="48.08519" lon="7.06008">
        <ele>1004</ele>
        <time>2015-07-08T10:31:48.1Z</time>
      </trkpt>
      <trkpt lat="48.08518" lon="7.06011">
        <ele>1004</ele>
        <time>2015-07-08T10:31:50.1Z</time>
      </trkpt>
      <trkpt lat="48.08519" lon="7.06019">
        <ele>1003</ele>
        <time>2015-07-08T10:31:53.1Z</time>
      </trkpt>
      <trkpt lat="48.0852" lon="7.06028">
        <ele>1003</ele>
        <time>2015-07-08T10:31:55.1Z</time>
      </trkpt>
      <trkpt lat="48.08522" lon="7.06044">
        <ele>1003</ele>
        <time>2015-07-08T10:31:58.1Z</time>
      </trkpt>
      <trkpt lat="48.08522" lon="7.06055">
        <ele>1003</ele>
        <time>2015-07-08T10:32:00.1Z</time>
      </trkpt>
      <trkpt lat="48.08522" lon="7.06072">
        <ele>1004</ele>
        <time>2015-07-08T10:32:03.1Z</time>
      </trkpt>
      <trkpt lat="48.08522" lon="7.06084">
        <ele>1004</ele>
        <time>2015-07-08T10:32:05.1Z</time>
      </trkpt>
      <trkpt lat="48.08522" lon="7.06101">
        <ele>1004</ele>
        <time>2015-07-08T10:32:08.1Z</time>
      </trkpt>
      <trkpt lat="48.08525" lon="7.06112">
        <ele>1004</ele>
        <time>2015-07-08T10:32:10.1Z</time>
      </trkpt>
      <trkpt lat="48.08529" lon="7.06122">
        <ele>1003</ele>
        <time>2015-07-08T10:32:12.1Z</time>
      </trkpt>
      <trkpt lat="48.08537" lon="7.06135">
        <ele>1003</ele>
        <time>2015-07-08T10:32:15.1Z</time>
      </trkpt>
      <trkpt lat="48.08545" lon="7.06147">
        <ele>1002</ele>
        <time>2015-07-08T10:32:17.1Z</time>
      </trkpt>
      <trkpt lat="48.08555" lon="7.06166">
        <ele>1002</ele>
        <time>2015-07-08T10:32:20.1Z</time>
      </trkpt>
      <trkpt lat="48.08562" lon="7.06179">
        <ele>1002</ele>
        <time>2015-07-08T10:32:22.1Z</time>
      </trkpt>
      <trkpt lat="48.08569" lon="7.06194">
        <ele>1002</ele>
        <time>2015-07-08T10:32:24.1Z</time>
      </trkpt>
      <trkpt lat="48.08577" lon="7.06217">
        <ele>1002</ele>
        <time>2015-07-08T10:32:27.1Z</time>
      </trkpt>
      <trkpt lat="48.08579" lon="7.06236">
        <ele>1001</ele>
        <time>2015-07-08T10:32:29.1Z</time>
      </trkpt>
      <trkpt lat="48.0858" lon="7.0627">
        <ele>1000</ele>
        <time>2015-07-08T10:32:32.1Z</time>
      </trkpt>
      <trkpt lat="48.0858" lon="7.06306">
        <ele>1000</ele>
        <time>2015-07-08T10:32:35.1Z</time>
      </trkpt>
      <trkpt lat="48.08581" lon="7.0633">
        <ele>1000</ele>
        <time>2015-07-08T10:32:37.1Z</time>
      </trkpt>
      <trkpt lat="48.08586" lon="7.06362">
        <ele>1000</ele>
        <time>2015-07-08T10:32:40.1Z</time>
      </trkpt>
      <trkpt lat="48.08596" lon="7.06372">
        <ele>999</ele>
        <time>2015-07-08T10:32:42.1Z</time>
      </trkpt>
      <trkpt lat="48.08608" lon="7.06365">
        <ele>998</ele>
        <time>2015-07-08T10:32:44.1Z</time>
      </trkpt>
      <trkpt lat="48.08615" lon="7.06356">
        <ele>998</ele>
        <time>2015-07-08T10:32:46.1Z</time>
      </trkpt>
      <trkpt lat="48.08628" lon="7.0634">
        <ele>997</ele>
        <time>2015-07-08T10:32:49.1Z</time>
      </trkpt>
      <trkpt lat="48.08641" lon="7.06327">
        <ele>997</ele>
        <time>2015-07-08T10:32:52.1Z</time>
      </trkpt>
      <trkpt lat="48.0865" lon="7.06322">
        <ele>996</ele>
        <time>2015-07-08T10:32:54.1Z</time>
      </trkpt>
      <trkpt lat="48.08665" lon="7.0632">
        <ele>996</ele>
        <time>2015-07-08T10:32:57.1Z</time>
      </trkpt>
      <trkpt lat="48.08671" lon="7.0632">
        <ele>995</ele>
        <time>2015-07-08T10:33:00.1Z</time>
      </trkpt>
      <trkpt lat="48.08684" lon="7.06319">
        <ele>996</ele>
        <time>2015-07-08T10:33:03.1Z</time>
      </trkpt>
      <trkpt lat="48.08687" lon="7.0632">
        <ele>996</ele>
        <time>2015-07-08T10:33:06.1Z</time>
      </trkpt>
      <trkpt lat="48.0869" lon="7.06324">
        <ele>996</ele>
        <time>2015-07-08T10:33:08.1Z</time>
      </trkpt>
      <trkpt lat="48.08693" lon="7.06332">
        <ele>997</ele>
        <time>2015-07-08T10:33:10.1Z</time>
      </trkpt>
      <trkpt lat="48.08697" lon="7.06342">
        <ele>997</ele>
        <time>2015-07-08T10:33:12.1Z</time>
      </trkpt>
      <trkpt lat="48.08702" lon="7.06354">
        <ele>998</ele>
        <time>2015-07-08T10:33:14.1Z</time>
      </trkpt>
      <trkpt lat="48.08707" lon="7.06376">
        <ele>998</ele>
        <time>2015-07-08T10:33:17.1Z</time>
      </trkpt>
      <trkpt lat="48.08709" lon="7.06397">
        <ele>997</ele>
        <time>2015-07-08T10:33:20.1Z</time>
      </trkpt>
      <trkpt lat="48.08709" lon="7.0641">
        <ele>997</ele>
        <time>2015-07-08T10:33:22.1Z</time>
      </trkpt>
      <trkpt lat="48.0871" lon="7.06422">
        <ele>998</ele>
        <time>2015-07-08T10:33:24.1Z</time>
      </trkpt>
      <trkpt lat="48.08713" lon="7.06439">
        <ele>997</ele>
        <time>2015-07-08T10:33:27.1Z</time>
      </trkpt>
      <trkpt lat="48.08714" lon="7.06447">
        <ele>998</ele>
        <time>2015-07-08T10:33:29.1Z</time>
      </trkpt>
      <trkpt lat="48.08716" lon="7.06458">
        <ele>997</ele>
        <time>2015-07-08T10:33:32.1Z</time>
      </trkpt>
      <trkpt lat="48.08718" lon="7.06466">
        <ele>996</ele>
        <time>2015-07-08T10:33:35.1Z</time>
      </trkpt>
      <trkpt lat="48.08721" lon="7.06477">
        <ele>996</ele>
        <time>2015-07-08T10:33:38.1Z</time>
      </trkpt>
      <trkpt lat="48.08723" lon="7.06484">
        <ele>996</ele>
        <time>2015-07-08T10:33:40.1Z</time>
      </trkpt>
      <trkpt lat="48.08725" lon="7.06489">
        <ele>996</ele>
        <time>2015-07-08T10:33:42.1Z</time>
      </trkpt>
      <trkpt lat="48.08728" lon="7.06497">
        <ele>996</ele>
        <time>2015-07-08T10:33:45.1Z</time>
      </trkpt>
      <trkpt lat="48.08729" lon="7.06505">
        <ele>997</ele>
        <time>2015-07-08T10:33:48.1Z</time>
      </trkpt>
      <trkpt lat="48.08732" lon="7.06515">
        <ele>998</ele>
        <time>2015-07-08T10:33:51.1Z</time>
      </trkpt>
      <trkpt lat="48.08736" lon="7.06525">
        <ele>999</ele>
        <time>2015-07-08T10:33:53.1Z</time>
      </trkpt>
      <trkpt lat="48.08741" lon="7.06536">
        <ele>1000</ele>
        <time>2015-07-08T10:33:55.1Z</time>
      </trkpt>
      <trkpt lat="48.08751" lon="7.06552">
        <ele>1000</ele>
        <time>2015-07-08T10:33:58.1Z</time>
      </trkpt>
      <trkpt lat="48.08757" lon="7.06561">
        <ele>1001</ele>
        <time>2015-07-08T10:34:00.1Z</time>
      </trkpt>
      <trkpt lat="48.08764" lon="7.06568">
        <ele>1001</ele>
        <time>2015-07-08T10:34:03.1Z</time>
      </trkpt>
      <trkpt lat="48.08767" lon="7.06571">
        <ele>1002</ele>
        <time>2015-07-08T10:34:05.1Z</time>
      </trkpt>
      <trkpt lat="48.08774" lon="7.06572">
        <ele>1002</ele>
        <time>2015-07-08T10:34:08.1Z</time>
      </trkpt>
      <trkpt lat="48.08778" lon="7.06573">
        <ele>1003</ele>
        <time>2015-07-08T10:34:10.1Z</time>
      </trkpt>
      <trkpt lat="48.08785" lon="7.06576">
        <ele>1003</ele>
        <time>2015-07-08T10:34:13.1Z</time>
      </trkpt>
      <trkpt lat="48.08794" lon="7.06579">
        <ele>1002</ele>
        <time>2015-07-08T10:34:16.1Z</time>
      </trkpt>
      <trkpt lat="48.08803" lon="7.06583">
        <ele>1002</ele>
        <time>2015-07-08T10:34:18.1Z</time>
      </trkpt>
      <trkpt lat="48.08813" lon="7.06586">
        <ele>1001</ele>
        <time>2015-07-08T10:34:20.1Z</time>
      </trkpt>
      <trkpt lat="48.08824" lon="7.06589">
        <ele>1000</ele>
        <time>2015-07-08T10:34:22.1Z</time>
      </trkpt>
      <trkpt lat="48.08833" lon="7.0659">
        <ele>999</ele>
        <time>2015-07-08T10:34:25.1Z</time>
      </trkpt>
      <trkpt lat="48.08838" lon="7.0659">
        <ele>998</ele>
        <time>2015-07-08T10:34:27.1Z</time>
      </trkpt>
      <trkpt lat="48.08841" lon="7.0659">
        <ele>997</ele>
        <time>2015-07-08T10:34:29.1Z</time>
      </trkpt>
      <trkpt lat="48.08841" lon="7.0659">
        <ele>997</ele>
        <time>2015-07-08T10:34:31.1Z</time>
      </trkpt>
      <trkpt lat="48.08857" lon="7.06599">
        <ele>998</ele>
        <time>2015-07-08T11:19:39.1Z</time>
      </trkpt>
      <trkpt lat="48.08856" lon="7.06599">
        <ele>998</ele>
        <time>2015-07-08T11:19:41.1Z</time>
      </trkpt>
      <trkpt lat="48.08856" lon="7.06599">
        <ele>998</ele>
        <time>2015-07-08T11:19:44.1Z</time>
      </trkpt>
      <trkpt lat="48.08855" lon="7.06599">
        <ele>998</ele>
        <time>2015-07-08T11:19:46.1Z</time>
      </trkpt>
      <trkpt lat="48.08849" lon="7.06599">
        <ele>998</ele>
        <time>2015-07-08T11:19:49.1Z</time>
      </trkpt>
      <trkpt lat="48.08844" lon="7.06598">
        <ele>998</ele>
        <time>2015-07-08T11:19:51.1Z</time>
      </trkpt>
      <trkpt lat="48.08837" lon="7.06592">
        <ele>999</ele>
        <time>2015-07-08T11:19:53.1Z</time>
      </trkpt>
      <trkpt lat="48.08827" lon="7.06591">
        <ele>999</ele>
        <time>2015-07-08T11:19:56.1Z</time>
      </trkpt>
      <trkpt lat="48.08821" lon="7.06591">
        <ele>999</ele>
        <time>2015-07-08T11:19:58.1Z</time>
      </trkpt>
      <trkpt lat="48.08815" lon="7.0659">
        <ele>1000</ele>
        <time>2015-07-08T11:20:00.1Z</time>
      </trkpt>
      <trkpt lat="48.08804" lon="7.06587">
        <ele>1001</ele>
        <time>2015-07-08T11:20:03.1Z</time>
      </trkpt>
      <trkpt lat="48.08798" lon="7.06586">
        <ele>1002</ele>
        <time>2015-07-08T11:20:05.1Z</time>
      </trkpt>
      <trkpt lat="48.08792" lon="7.06586">
        <ele>1002</ele>
        <time>2015-07-08T11:20:08.1Z</time>
      </trkpt>
      <trkpt lat="48.08789" lon="7.06585">
        <ele>1003</ele>
        <time>2015-07-08T11:20:10.1Z</time>
      </trkpt>
      <trkpt lat="48.08787" lon="7.06582">
        <ele>1003</ele>
        <time>2015-07-08T11:20:12.1Z</time>
      </trkpt>
      <trkpt lat="48.08784" lon="7.06581">
        <ele>1003</ele>
        <time>2015-07-08T11:20:15.1Z</time>
      </trkpt>
      <trkpt lat="48.08783" lon="7.0658">
        <ele>1003</ele>
        <time>2015-07-08T11:20:17.1Z</time>
      </trkpt>
      <trkpt lat="48.08783" lon="7.06581">
        <ele>1003</ele>
        <time>2015-07-08T11:20:20.1Z</time>
      </trkpt>
      <trkpt lat="48.08787" lon="7.06585">
        <ele>1003</ele>
        <time>2015-07-08T11:20:23.1Z</time>
      </trkpt>
      <trkpt lat="48.0879" lon="7.06588">
        <ele>1003</ele>
        <time>2015-07-08T11:20:26.1Z</time>
      </trkpt>
      <trkpt lat="48.08792" lon="7.0659">
        <ele>1003</ele>
        <time>2015-07-08T11:20:28.1Z</time>
      </trkpt>
      <trkpt lat="48.08795" lon="7.06592">
        <ele>1003</ele>
        <time>2015-07-08T11:20:30.1Z</time>
      </trkpt>
      <trkpt lat="48.08799" lon="7.06594">
        <ele>1004</ele>
        <time>2015-07-08T11:20:33.1Z</time>
      </trkpt>
      <trkpt lat="48.08798" lon="7.06598">
        <ele>1004</ele>
        <time>2015-07-08T11:20:36.1Z</time>
      </trkpt>
      <trkpt lat="48.08791" lon="7.06601">
        <ele>1004</ele>
        <time>2015-07-08T11:20:39.1Z</time>
      </trkpt>
      <trkpt lat="48.08787" lon="7.06605">
        <ele>1005</ele>
        <time>2015-07-08T11:20:42.1Z</time>
      </trkpt>
      <trkpt lat="48.08784" lon="7.06607">
        <ele>1005</ele>
        <time>2015-07-08T11:20:45.1Z</time>
      </trkpt>
      <trkpt lat="48.08777" lon="7.0661">
        <ele>1006</ele>
        <time>2015-07-08T11:20:48.1Z</time>
      </trkpt>
      <trkpt lat="48.08772" lon="7.06615">
        <ele>1007</ele>
        <time>2015-07-08T11:20:50.1Z</time>
      </trkpt>
      <trkpt lat="48.08767" lon="7.06622">
        <ele>1008</ele>
        <time>2015-07-08T11:20:53.1Z</time>
      </trkpt>
      <trkpt lat="48.08762" lon="7.06628">
        <ele>1009</ele>
        <time>2015-07-08T11:20:55.1Z</time>
      </trkpt>
      <trkpt lat="48.08758" lon="7.06634">
        <ele>1010</ele>
        <time>2015-07-08T11:20:57.1Z</time>
      </trkpt>
      <trkpt lat="48.08755" lon="7.06642">
        <ele>1010</ele>
        <time>2015-07-08T11:20:59.1Z</time>
      </trkpt>
      <trkpt lat="48.08754" lon="7.0665">
        <ele>1010</ele>
        <time>2015-07-08T11:21:01.1Z</time>
      </trkpt>
      <trkpt lat="48.08755" lon="7.06658">
        <ele>1010</ele>
        <time>2015-07-08T11:21:03.1Z</time>
      </trkpt>
      <trkpt lat="48.08757" lon="7.06664">
        <ele>1011</ele>
        <time>2015-07-08T11:21:05.1Z</time>
      </trkpt>
      <trkpt lat="48.08762" lon="7.06674">
        <ele>1011</ele>
        <time>2015-07-08T11:21:08.1Z</time>
      </trkpt>
      <trkpt lat="48.08765" lon="7.06679">
        <ele>1011</ele>
        <time>2015-07-08T11:21:10.1Z</time>
      </trkpt>
      <trkpt lat="48.08768" lon="7.06686">
        <ele>1012</ele>
        <time>2015-07-08T11:21:13.1Z</time>
      </trkpt>
      <trkpt lat="48.08772" lon="7.06688">
        <ele>1013</ele>
        <time>2015-07-08T11:21:16.1Z</time>
      </trkpt>
      <trkpt lat="48.08773" lon="7.06687">
        <ele>1013</ele>
        <time>2015-07-08T11:21:18.1Z</time>
      </trkpt>
      <trkpt lat="48.08771" lon="7.06684">
        <ele>1014</ele>
        <time>2015-07-08T11:21:21.1Z</time>
      </trkpt>
      <trkpt lat="48.0877" lon="7.06676">
        <ele>1014</ele>
        <time>2015-07-08T11:21:24.1Z</time>
      </trkpt>
      <trkpt lat="48.0877" lon="7.06669">
        <ele>1015</ele>
        <time>2015-07-08T11:21:26.1Z</time>
      </trkpt>
      <trkpt lat="48.08772" lon="7.06665">
        <ele>1015</ele>
        <time>2015-07-08T11:21:28.1Z</time>
      </trkpt>
      <trkpt lat="48.08775" lon="7.0666">
        <ele>1015</ele>
        <time>2015-07-08T11:21:31.1Z</time>
      </trkpt>
      <trkpt lat="48.08778" lon="7.06657">
        <ele>1016</ele>
        <time>2015-07-08T11:21:33.1Z</time>
      </trkpt>
      <trkpt lat="48.08783" lon="7.06655">
        <ele>1017</ele>
        <time>2015-07-08T11:21:35.1Z</time>
      </trkpt>
      <trkpt lat="48.08788" lon="7.06654">
        <ele>1018</ele>
        <time>2015-07-08T11:21:37.1Z</time>
      </trkpt>
      <trkpt lat="48.08793" lon="7.06653">
        <ele>1019</ele>
        <time>2015-07-08T11:21:39.1Z</time>
      </trkpt>
      <trkpt lat="48.08801" lon="7.06655">
        <ele>1019</ele>
        <time>2015-07-08T11:21:42.1Z</time>
      </trkpt>
      <trkpt lat="48.08807" lon="7.06657">
        <ele>1020</ele>
        <time>2015-07-08T11:21:44.1Z</time>
      </trkpt>
      <trkpt lat="48.08813" lon="7.06659">
        <ele>1021</ele>
        <time>2015-07-08T11:21:46.1Z</time>
      </trkpt>
      <trkpt lat="48.08823" lon="7.06661">
        <ele>1021</ele>
        <time>2015-07-08T11:21:49.1Z</time>
      </trkpt>
      <trkpt lat="48.08829" lon="7.06663">
        <ele>1022</ele>
        <time>2015-07-08T11:21:51.1Z</time>
      </trkpt>
      <trkpt lat="48.08835" lon="7.06665">
        <ele>1023</ele>
        <time>2015-07-08T11:21:53.1Z</time>
      </trkpt>
      <trkpt lat="48.08843" lon="7.06668">
        <ele>1024</ele>
        <time>2015-07-08T11:21:56.1Z</time>
      </trkpt>
      <trkpt lat="48.08849" lon="7.06671">
        <ele>1024</ele>
        <time>2015-07-08T11:21:58.1Z</time>
      </trkpt>
      <trkpt lat="48.08855" lon="7.06672">
        <ele>1025</ele>
        <time>2015-07-08T11:22:00.1Z</time>
      </trkpt>
      <trkpt lat="48.08859" lon="7.06674">
        <ele>1025</ele>
        <time>2015-07-08T11:22:02.1Z</time>
      </trkpt>
      <trkpt lat="48.08867" lon="7.06675">
        <ele>1026</ele>
        <time>2015-07-08T11:22:05.1Z</time>
      </trkpt>
      <trkpt lat="48.08872" lon="7.06676">
        <ele>1026</ele>
        <time>2015-07-08T11:22:07.1Z</time>
      </trkpt>
      <trkpt lat="48.0888" lon="7.06677">
        <ele>1027</ele>
        <time>2015-07-08T11:22:10.1Z</time>
      </trkpt>
      <trkpt lat="48.08889" lon="7.06677">
        <ele>1028</ele>
        <time>2015-07-08T11:22:13.1Z</time>
      </trkpt>
      <trkpt lat="48.08897" lon="7.06677">
        <ele>1029</ele>
        <time>2015-07-08T11:22:16.1Z</time>
      </trkpt>
      <trkpt lat="48.08906" lon="7.06677">
        <ele>1030</ele>
        <time>2015-07-08T11:22:19.1Z</time>
      </trkpt>
      <trkpt lat="48.08915" lon="7.06678">
        <ele>1031</ele>
        <time>2015-07-08T11:22:22.1Z</time>
      </trkpt>
      <trkpt lat="48.08921" lon="7.0668">
        <ele>1031</ele>
        <time>2015-07-08T11:22:24.1Z</time>
      </trkpt>
      <trkpt lat="48.08927" lon="7.06683">
        <ele>1032</ele>
        <time>2015-07-08T11:22:26.1Z</time>
      </trkpt>
      <trkpt lat="48.08936" lon="7.06685">
        <ele>1033</ele>
        <time>2015-07-08T11:22:29.1Z</time>
      </trkpt>
      <trkpt lat="48.08945" lon="7.06685">
        <ele>1034</ele>
        <time>2015-07-08T11:22:32.1Z</time>
      </trkpt>
      <trkpt lat="48.08951" lon="7.06685">
        <ele>1034</ele>
        <time>2015-07-08T11:22:34.1Z</time>
      </trkpt>
      <trkpt lat="48.08958" lon="7.06684">
        <ele>1034</ele>
        <time>2015-07-08T11:22:37.1Z</time>
      </trkpt>
      <trkpt lat="48.08966" lon="7.06683">
        <ele>1035</ele>
        <time>2015-07-08T11:22:40.1Z</time>
      </trkpt>
      <trkpt lat="48.08971" lon="7.06684">
        <ele>1035</ele>
        <time>2015-07-08T11:22:42.1Z</time>
      </trkpt>
      <trkpt lat="48.08976" lon="7.06683">
        <ele>1036</ele>
        <time>2015-07-08T11:22:44.1Z</time>
      </trkpt>
      <trkpt lat="48.08982" lon="7.06682">
        <ele>1037</ele>
        <time>2015-07-08T11:22:47.1Z</time>
      </trkpt>
      <trkpt lat="48.08988" lon="7.06682">
        <ele>1038</ele>
        <time>2015-07-08T11:22:50.1Z</time>
      </trkpt>
      <trkpt lat="48.08993" lon="7.0668">
        <ele>1039</ele>
        <time>2015-07-08T11:22:53.1Z</time>
      </trkpt>
      <trkpt lat="48.08996" lon="7.06679">
        <ele>1039</ele>
        <time>2015-07-08T11:22:55.1Z</time>
      </trkpt>
      <trkpt lat="48.08999" lon="7.06679">
        <ele>1039</ele>
        <time>2015-07-08T11:22:58.1Z</time>
      </trkpt>
      <trkpt lat="48.09001" lon="7.06678">
        <ele>1039</ele>
        <time>2015-07-08T11:23:01.1Z</time>
      </trkpt>
      <trkpt lat="48.0901" lon="7.06669">
        <ele>1041</ele>
        <time>2015-07-08T11:23:03.1Z</time>
      </trkpt>
      <trkpt lat="48.09008" lon="7.06667">
        <ele>1041</ele>
        <time>2015-07-08T11:23:06.1Z</time>
      </trkpt>
      <trkpt lat="48.09007" lon="7.06667">
        <ele>1040</ele>
        <time>2015-07-08T11:23:08.1Z</time>
      </trkpt>
      <trkpt lat="48.09004" lon="7.0667">
        <ele>1040</ele>
        <time>2015-07-08T11:23:10.1Z</time>
      </trkpt>
      <trkpt lat="48.08995" lon="7.06671">
        <ele>1042</ele>
        <time>2015-07-08T11:23:13.1Z</time>
      </trkpt>
      <trkpt lat="48.08985" lon="7.06672">
        <ele>1042</ele>
        <time>2015-07-08T11:23:15.1Z</time>
      </trkpt>
      <trkpt lat="48.08959" lon="7.06674">
        <ele>1044</ele>
        <time>2015-07-08T11:23:18.1Z</time>
      </trkpt>
      <trkpt lat="48.08927" lon="7.06669">
        <ele>1043</ele>
        <time>2015-07-08T11:23:21.1Z</time>
      </trkpt>
      <trkpt lat="48.08895" lon="7.06669">
        <ele>1040</ele>
        <time>2015-07-08T11:23:24.1Z</time>
      </trkpt>
      <trkpt lat="48.08874" lon="7.06663">
        <ele>1039</ele>
        <time>2015-07-08T11:23:26.1Z</time>
      </trkpt>
      <trkpt lat="48.08842" lon="7.0665">
        <ele>1038</ele>
        <time>2015-07-08T11:23:29.1Z</time>
      </trkpt>
      <trkpt lat="48.08822" lon="7.06645">
        <ele>1036</ele>
        <time>2015-07-08T11:23:31.1Z</time>
      </trkpt>
      <trkpt lat="48.08795" lon="7.06649">
        <ele>1032</ele>
        <time>2015-07-08T11:23:34.1Z</time>
      </trkpt>
      <trkpt lat="48.0878" lon="7.06667">
        <ele>1026</ele>
        <time>2015-07-08T11:23:37.1Z</time>
      </trkpt>
      <trkpt lat="48.08778" lon="7.06683">
        <ele>1022</ele>
        <time>2015-07-08T11:23:39.1Z</time>
      </trkpt>
      <trkpt lat="48.08774" lon="7.06691">
        <ele>1018</ele>
        <time>2015-07-08T11:23:42.1Z</time>
      </trkpt>
      <trkpt lat="48.08767" lon="7.06688">
        <ele>1017</ele>
        <time>2015-07-08T11:23:44.1Z</time>
      </trkpt>
      <trkpt lat="48.0876" lon="7.06677">
        <ele>1016</ele>
        <time>2015-07-08T11:23:46.1Z</time>
      </trkpt>
      <trkpt lat="48.08755" lon="7.06654">
        <ele>1016</ele>
        <time>2015-07-08T11:23:49.1Z</time>
      </trkpt>
      <trkpt lat="48.08762" lon="7.06637">
        <ele>1015</ele>
        <time>2015-07-08T11:23:51.1Z</time>
      </trkpt>
      <trkpt lat="48.08773" lon="7.06624">
        <ele>1014</ele>
        <time>2015-07-08T11:23:53.1Z</time>
      </trkpt>
      <trkpt lat="48.08784" lon="7.06616">
        <ele>1012</ele>
        <time>2015-07-08T11:23:55.1Z</time>
      </trkpt>
      <trkpt lat="48.0879" lon="7.06609">
        <ele>1010</ele>
        <time>2015-07-08T11:23:57.1Z</time>
      </trkpt>
      <trkpt lat="48.08785" lon="7.06596">
        <ele>1008</ele>
        <time>2015-07-08T11:24:00.1Z</time>
      </trkpt>
      <trkpt lat="48.08775" lon="7.06589">
        <ele>1007</ele>
        <time>2015-07-08T11:24:02.1Z</time>
      </trkpt>
      <trkpt lat="48.08764" lon="7.06577">
        <ele>1007</ele>
        <time>2015-07-08T11:24:04.1Z</time>
      </trkpt>
      <trkpt lat="48.08749" lon="7.0655">
        <ele>1007</ele>
        <time>2015-07-08T11:24:07.1Z</time>
      </trkpt>
      <trkpt lat="48.08741" lon="7.0653">
        <ele>1006</ele>
        <time>2015-07-08T11:24:09.1Z</time>
      </trkpt>
      <trkpt lat="48.08734" lon="7.06507">
        <ele>1005</ele>
        <time>2015-07-08T11:24:11.1Z</time>
      </trkpt>
      <trkpt lat="48.08723" lon="7.06472">
        <ele>1002</ele>
        <time>2015-07-08T11:24:14.1Z</time>
      </trkpt>
      <trkpt lat="48.08718" lon="7.06447">
        <ele>1000</ele>
        <time>2015-07-08T11:24:16.1Z</time>
      </trkpt>
      <trkpt lat="48.08714" lon="7.06413">
        <ele>999</ele>
        <time>2015-07-08T11:24:19.1Z</time>
      </trkpt>
      <trkpt lat="48.08712" lon="7.06394">
        <ele>998</ele>
        <time>2015-07-08T11:24:21.1Z</time>
      </trkpt>
      <trkpt lat="48.08707" lon="7.06369">
        <ele>997</ele>
        <time>2015-07-08T11:24:24.1Z</time>
      </trkpt>
      <trkpt lat="48.087" lon="7.06348">
        <ele>997</ele>
        <time>2015-07-08T11:24:27.1Z</time>
      </trkpt>
      <trkpt lat="48.08695" lon="7.06333">
        <ele>997</ele>
        <time>2015-07-08T11:24:30.1Z</time>
      </trkpt>
      <trkpt lat="48.08689" lon="7.06314">
        <ele>998</ele>
        <time>2015-07-08T11:24:33.1Z</time>
      </trkpt>
      <trkpt lat="48.08685" lon="7.06311">
        <ele>997</ele>
        <time>2015-07-08T11:24:36.1Z</time>
      </trkpt>
      <trkpt lat="48.0868" lon="7.0631">
        <ele>997</ele>
        <time>2015-07-08T11:24:38.1Z</time>
      </trkpt>
      <trkpt lat="48.08674" lon="7.06313">
        <ele>997</ele>
        <time>2015-07-08T11:24:41.1Z</time>
      </trkpt>
      <trkpt lat="48.0867" lon="7.06319">
        <ele>998</ele>
        <time>2015-07-08T11:24:43.1Z</time>
      </trkpt>
      <trkpt lat="48.08663" lon="7.06328">
        <ele>998</ele>
        <time>2015-07-08T11:24:46.1Z</time>
      </trkpt>
      <trkpt lat="48.08657" lon="7.06334">
        <ele>998</ele>
        <time>2015-07-08T11:24:48.1Z</time>
      </trkpt>
      <trkpt lat="48.08651" lon="7.06339">
        <ele>997</ele>
        <time>2015-07-08T11:24:51.1Z</time>
      </trkpt>
      <trkpt lat="48.08649" lon="7.06343">
        <ele>995</ele>
        <time>2015-07-08T11:24:54.1Z</time>
      </trkpt>
      <trkpt lat="48.08646" lon="7.06346">
        <ele>994</ele>
        <time>2015-07-08T11:24:56.1Z</time>
      </trkpt>
      <trkpt lat="48.08644" lon="7.06351">
        <ele>994</ele>
        <time>2015-07-08T11:24:59.1Z</time>
      </trkpt>
      <trkpt lat="48.08642" lon="7.06355">
        <ele>994</ele>
        <time>2015-07-08T11:25:01.1Z</time>
      </trkpt>
      <trkpt lat="48.0864" lon="7.06362">
        <ele>994</ele>
        <time>2015-07-08T11:25:03.1Z</time>
      </trkpt>
      <trkpt lat="48.08632" lon="7.06371">
        <ele>994</ele>
        <time>2015-07-08T11:25:06.1Z</time>
      </trkpt>
      <trkpt lat="48.08623" lon="7.0638">
        <ele>993</ele>
        <time>2015-07-08T11:25:09.1Z</time>
      </trkpt>
      <trkpt lat="48.08618" lon="7.06385">
        <ele>992</ele>
        <time>2015-07-08T11:25:11.1Z</time>
      </trkpt>
      <trkpt lat="48.0861" lon="7.06391">
        <ele>992</ele>
        <time>2015-07-08T11:25:13.1Z</time>
      </trkpt>
      <trkpt lat="48.08601" lon="7.06406">
        <ele>991</ele>
        <time>2015-07-08T11:25:16.1Z</time>
      </trkpt>
      <trkpt lat="48.08599" lon="7.06426">
        <ele>989</ele>
        <time>2015-07-08T11:25:19.1Z</time>
      </trkpt>
      <trkpt lat="48.08601" lon="7.06447">
        <ele>988</ele>
        <time>2015-07-08T11:25:22.1Z</time>
      </trkpt>
      <trkpt lat="48.08602" lon="7.06471">
        <ele>988</ele>
        <time>2015-07-08T11:25:25.1Z</time>
      </trkpt>
      <trkpt lat="48.08603" lon="7.06499">
        <ele>987</ele>
        <time>2015-07-08T11:25:28.1Z</time>
      </trkpt>
      <trkpt lat="48.08615" lon="7.06518">
        <ele>986</ele>
        <time>2015-07-08T11:25:31.1Z</time>
      </trkpt>
      <trkpt lat="48.08625" lon="7.06521">
        <ele>985</ele>
        <time>2015-07-08T11:25:33.1Z</time>
      </trkpt>
      <trkpt lat="48.08636" lon="7.06527">
        <ele>984</ele>
        <time>2015-07-08T11:25:35.1Z</time>
      </trkpt>
      <trkpt lat="48.08642" lon="7.06552">
        <ele>983</ele>
        <time>2015-07-08T11:25:38.1Z</time>
      </trkpt>
      <trkpt lat="48.08634" lon="7.06569">
        <ele>983</ele>
        <time>2015-07-08T11:25:40.1Z</time>
      </trkpt>
      <trkpt lat="48.08622" lon="7.06606">
        <ele>982</ele>
        <time>2015-07-08T11:25:43.1Z</time>
      </trkpt>
      <trkpt lat="48.08623" lon="7.06635">
        <ele>981</ele>
        <time>2015-07-08T11:25:45.1Z</time>
      </trkpt>
      <trkpt lat="48.08627" lon="7.06664">
        <ele>980</ele>
        <time>2015-07-08T11:25:47.1Z</time>
      </trkpt>
      <trkpt lat="48.08626" lon="7.06704">
        <ele>977</ele>
        <time>2015-07-08T11:25:50.1Z</time>
      </trkpt>
      <trkpt lat="48.08624" lon="7.06733">
        <ele>976</ele>
        <time>2015-07-08T11:25:52.1Z</time>
      </trkpt>
      <trkpt lat="48.08622" lon="7.06764">
        <ele>974</ele>
        <time>2015-07-08T11:25:54.1Z</time>
      </trkpt>
      <trkpt lat="48.0862" lon="7.06815">
        <ele>974</ele>
        <time>2015-07-08T11:25:57.1Z</time>
      </trkpt>
      <trkpt lat="48.08618" lon="7.06853">
        <ele>973</ele>
        <time>2015-07-08T11:25:59.1Z</time>
      </trkpt>
      <trkpt lat="48.08615" lon="7.06892">
        <ele>973</ele>
        <time>2015-07-08T11:26:01.1Z</time>
      </trkpt>
      <trkpt lat="48.08612" lon="7.06953">
        <ele>972</ele>
        <time>2015-07-08T11:26:04.1Z</time>
      </trkpt>
      <trkpt lat="48.08612" lon="7.06992">
        <ele>971</ele>
        <time>2015-07-08T11:26:06.1Z</time>
      </trkpt>
      <trkpt lat="48.08614" lon="7.07048">
        <ele>969</ele>
        <time>2015-07-08T11:26:09.1Z</time>
      </trkpt>
      <trkpt lat="48.08615" lon="7.07084">
        <ele>966</ele>
        <time>2015-07-08T11:26:11.1Z</time>
      </trkpt>
      <trkpt lat="48.08619" lon="7.07137">
        <ele>963</ele>
        <time>2015-07-08T11:26:14.1Z</time>
      </trkpt>
      <trkpt lat="48.08622" lon="7.07171">
        <ele>960</ele>
        <time>2015-07-08T11:26:16.1Z</time>
      </trkpt>
      <trkpt lat="48.08628" lon="7.07205">
        <ele>958</ele>
        <time>2015-07-08T11:26:18.1Z</time>
      </trkpt>
      <trkpt lat="48.08636" lon="7.07257">
        <ele>955</ele>
        <time>2015-07-08T11:26:21.1Z</time>
      </trkpt>
      <trkpt lat="48.08641" lon="7.07291">
        <ele>953</ele>
        <time>2015-07-08T11:26:23.1Z</time>
      </trkpt>
      <trkpt lat="48.08647" lon="7.07318">
        <ele>950</ele>
        <time>2015-07-08T11:26:25.1Z</time>
      </trkpt>
      <trkpt lat="48.08664" lon="7.07346">
        <ele>945</ele>
        <time>2015-07-08T11:26:28.1Z</time>
      </trkpt>
      <trkpt lat="48.0868" lon="7.07355">
        <ele>942</ele>
        <time>2015-07-08T11:26:30.1Z</time>
      </trkpt>
      <trkpt lat="48.08696" lon="7.0736">
        <ele>940</ele>
        <time>2015-07-08T11:26:32.1Z</time>
      </trkpt>
      <trkpt lat="48.08714" lon="7.07362">
        <ele>938</ele>
        <time>2015-07-08T11:26:34.1Z</time>
      </trkpt>
      <trkpt lat="48.0873" lon="7.07363">
        <ele>937</ele>
        <time>2015-07-08T11:26:36.1Z</time>
      </trkpt>
      <trkpt lat="48.08759" lon="7.07363">
        <ele>936</ele>
        <time>2015-07-08T11:26:39.1Z</time>
      </trkpt>
      <trkpt lat="48.08778" lon="7.07367">
        <ele>935</ele>
        <time>2015-07-08T11:26:41.1Z</time>
      </trkpt>
      <trkpt lat="48.08796" lon="7.07367">
        <ele>934</ele>
        <time>2015-07-08T11:26:43.1Z</time>
      </trkpt>
      <trkpt lat="48.08814" lon="7.07365">
        <ele>933</ele>
        <time>2015-07-08T11:26:45.1Z</time>
      </trkpt>
      <trkpt lat="48.08831" lon="7.0736">
        <ele>931</ele>
        <time>2015-07-08T11:26:47.1Z</time>
      </trkpt>
      <trkpt lat="48.08858" lon="7.07352">
        <ele>928</ele>
        <time>2015-07-08T11:26:50.1Z</time>
      </trkpt>
      <trkpt lat="48.08877" lon="7.0735">
        <ele>928</ele>
        <time>2015-07-08T11:26:52.1Z</time>
      </trkpt>
      <trkpt lat="48.08906" lon="7.07354">
        <ele>928</ele>
        <time>2015-07-08T11:26:55.1Z</time>
      </trkpt>
      <trkpt lat="48.08926" lon="7.07362">
        <ele>928</ele>
        <time>2015-07-08T11:26:57.1Z</time>
      </trkpt>
      <trkpt lat="48.08956" lon="7.0737">
        <ele>926</ele>
        <time>2015-07-08T11:27:00.1Z</time>
      </trkpt>
      <trkpt lat="48.08975" lon="7.07371">
        <ele>925</ele>
        <time>2015-07-08T11:27:02.1Z</time>
      </trkpt>
      <trkpt lat="48.08994" lon="7.07373">
        <ele>922</ele>
        <time>2015-07-08T11:27:04.1Z</time>
      </trkpt>
      <trkpt lat="48.09015" lon="7.07376">
        <ele>919</ele>
        <time>2015-07-08T11:27:07.1Z</time>
      </trkpt>
      <trkpt lat="48.09025" lon="7.07377">
        <ele>916</ele>
        <time>2015-07-08T11:27:09.1Z</time>
      </trkpt>
      <trkpt lat="48.09041" lon="7.07385">
        <ele>912</ele>
        <time>2015-07-08T11:27:12.1Z</time>
      </trkpt>
      <trkpt lat="48.09052" lon="7.07392">
        <ele>911</ele>
        <time>2015-07-08T11:27:14.1Z</time>
      </trkpt>
      <trkpt lat="48.09061" lon="7.07402">
        <ele>911</ele>
        <time>2015-07-08T11:27:16.1Z</time>
      </trkpt>
      <trkpt lat="48.09071" lon="7.07419">
        <ele>911</ele>
        <time>2015-07-08T11:27:19.1Z</time>
      </trkpt>
      <trkpt lat="48.09074" lon="7.07429">
        <ele>911</ele>
        <time>2015-07-08T11:27:21.1Z</time>
      </trkpt>
      <trkpt lat="48.09074" lon="7.07445">
        <ele>912</ele>
        <time>2015-07-08T11:27:24.1Z</time>
      </trkpt>
      <trkpt lat="48.09074" lon="7.07453">
        <ele>913</ele>
        <time>2015-07-08T11:27:26.1Z</time>
      </trkpt>
      <trkpt lat="48.09071" lon="7.07462">
        <ele>914</ele>
        <time>2015-07-08T11:27:28.1Z</time>
      </trkpt>
      <trkpt lat="48.09068" lon="7.07472">
        <ele>915</ele>
        <time>2015-07-08T11:27:30.1Z</time>
      </trkpt>
      <trkpt lat="48.09066" lon="7.07484">
        <ele>915</ele>
        <time>2015-07-08T11:27:33.1Z</time>
      </trkpt>
      <trkpt lat="48.09065" lon="7.07493">
        <ele>915</ele>
        <time>2015-07-08T11:27:35.1Z</time>
      </trkpt>
      <trkpt lat="48.09063" lon="7.07502">
        <ele>916</ele>
        <time>2015-07-08T11:27:37.1Z</time>
      </trkpt>
      <trkpt lat="48.0906" lon="7.07511">
        <ele>916</ele>
        <time>2015-07-08T11:27:39.1Z</time>
      </trkpt>
      <trkpt lat="48.09057" lon="7.07518">
        <ele>916</ele>
        <time>2015-07-08T11:27:41.1Z</time>
      </trkpt>
      <trkpt lat="48.09053" lon="7.07526">
        <ele>917</ele>
        <time>2015-07-08T11:27:43.1Z</time>
      </trkpt>
      <trkpt lat="48.09049" lon="7.07531">
        <ele>918</ele>
        <time>2015-07-08T11:27:45.1Z</time>
      </trkpt>
      <trkpt lat="48.09046" lon="7.07535">
        <ele>917</ele>
        <time>2015-07-08T11:27:47.1Z</time>
      </trkpt>
      <trkpt lat="48.09042" lon="7.0754">
        <ele>917</ele>
        <time>2015-07-08T11:27:50.1Z</time>
      </trkpt>
      <trkpt lat="48.09039" lon="7.07545">
        <ele>917</ele>
        <time>2015-07-08T11:27:52.1Z</time>
      </trkpt>
      <trkpt lat="48.09033" lon="7.0755">
        <ele>917</ele>
        <time>2015-07-08T11:27:54.1Z</time>
      </trkpt>
      <trkpt lat="48.09027" lon="7.07552">
        <ele>918</ele>
        <time>2015-07-08T11:27:56.1Z</time>
      </trkpt>
      <trkpt lat="48.09021" lon="7.07556">
        <ele>918</ele>
        <time>2015-07-08T11:27:58.1Z</time>
      </trkpt>
      <trkpt lat="48.09015" lon="7.07561">
        <ele>919</ele>
        <time>2015-07-08T11:28:00.1Z</time>
      </trkpt>
      <trkpt lat="48.09008" lon="7.07566">
        <ele>919</ele>
        <time>2015-07-08T11:28:02.1Z</time>
      </trkpt>
      <trkpt lat="48.08999" lon="7.07574">
        <ele>920</ele>
        <time>2015-07-08T11:28:05.1Z</time>
      </trkpt>
      <trkpt lat="48.08993" lon="7.07578">
        <ele>921</ele>
        <time>2015-07-08T11:28:07.1Z</time>
      </trkpt>
      <trkpt lat="48.08984" lon="7.07587">
        <ele>921</ele>
        <time>2015-07-08T11:28:10.1Z</time>
      </trkpt>
      <trkpt lat="48.08979" lon="7.07596">
        <ele>922</ele>
        <time>2015-07-08T11:28:12.1Z</time>
      </trkpt>
      <trkpt lat="48.08976" lon="7.07605">
        <ele>922</ele>
        <time>2015-07-08T11:28:14.1Z</time>
      </trkpt>
      <trkpt lat="48.08976" lon="7.0762">
        <ele>922</ele>
        <time>2015-07-08T11:28:17.1Z</time>
      </trkpt>
      <trkpt lat="48.08977" lon="7.0763">
        <ele>922</ele>
        <time>2015-07-08T11:28:19.1Z</time>
      </trkpt>
      <trkpt lat="48.08979" lon="7.07639">
        <ele>922</ele>
        <time>2015-07-08T11:28:21.1Z</time>
      </trkpt>
      <trkpt lat="48.08979" lon="7.07649">
        <ele>923</ele>
        <time>2015-07-08T11:28:23.1Z</time>
      </trkpt>
      <trkpt lat="48.0898" lon="7.07658">
        <ele>923</ele>
        <time>2015-07-08T11:28:25.1Z</time>
      </trkpt>
      <trkpt lat="48.08979" lon="7.07672">
        <ele>924</ele>
        <time>2015-07-08T11:28:28.1Z</time>
      </trkpt>
      <trkpt lat="48.08978" lon="7.0768">
        <ele>924</ele>
        <time>2015-07-08T11:28:30.1Z</time>
      </trkpt>
      <trkpt lat="48.08977" lon="7.07687">
        <ele>924</ele>
        <time>2015-07-08T11:28:32.1Z</time>
      </trkpt>
      <trkpt lat="48.08976" lon="7.07692">
        <ele>925</ele>
        <time>2015-07-08T11:28:34.1Z</time>
      </trkpt>
      <trkpt lat="48.08975" lon="7.07696">
        <ele>925</ele>
        <time>2015-07-08T11:28:36.1Z</time>
      </trkpt>
      <trkpt lat="48.08973" lon="7.07701">
        <ele>927</ele>
        <time>2015-07-08T11:28:39.1Z</time>
      </trkpt>
      <trkpt lat="48.08971" lon="7.07705">
        <ele>926</ele>
        <time>2015-07-08T11:28:41.1Z</time>
      </trkpt>
      <trkpt lat="48.08963" lon="7.07716">
        <ele>927</ele>
        <time>2015-07-08T11:28:44.1Z</time>
      </trkpt>
      <trkpt lat="48.08956" lon="7.07724">
        <ele>926</ele>
        <time>2015-07-08T11:28:46.1Z</time>
      </trkpt>
      <trkpt lat="48.08949" lon="7.0773">
        <ele>926</ele>
        <time>2015-07-08T11:28:48.1Z</time>
      </trkpt>
      <trkpt lat="48.0894" lon="7.07734">
        <ele>926</ele>
        <time>2015-07-08T11:28:50.1Z</time>
      </trkpt>
      <trkpt lat="48.08929" lon="7.07736">
        <ele>926</ele>
        <time>2015-07-08T11:28:52.1Z</time>
      </trkpt>
      <trkpt lat="48.08909" lon="7.0774">
        <ele>925</ele>
        <time>2015-07-08T11:28:55.1Z</time>
      </trkpt>
      <trkpt lat="48.08897" lon="7.07749">
        <ele>925</ele>
        <time>2015-07-08T11:28:57.1Z</time>
      </trkpt>
      <trkpt lat="48.08887" lon="7.07764">
        <ele>923</ele>
        <time>2015-07-08T11:28:59.1Z</time>
      </trkpt>
      <trkpt lat="48.08871" lon="7.07792">
        <ele>922</ele>
        <time>2015-07-08T11:29:02.1Z</time>
      </trkpt>
      <trkpt lat="48.08861" lon="7.07813">
        <ele>921</ele>
        <time>2015-07-08T11:29:04.1Z</time>
      </trkpt>
      <trkpt lat="48.08844" lon="7.07845">
        <ele>921</ele>
        <time>2015-07-08T11:29:07.1Z</time>
      </trkpt>
      <trkpt lat="48.08833" lon="7.07868">
        <ele>920</ele>
        <time>2015-07-08T11:29:09.1Z</time>
      </trkpt>
      <trkpt lat="48.08824" lon="7.07906">
        <ele>919</ele>
        <time>2015-07-08T11:29:12.1Z</time>
      </trkpt>
      <trkpt lat="48.08815" lon="7.07946">
        <ele>918</ele>
        <time>2015-07-08T11:29:15.1Z</time>
      </trkpt>
      <trkpt lat="48.08811" lon="7.07969">
        <ele>916</ele>
        <time>2015-07-08T11:29:17.1Z</time>
      </trkpt>
      <trkpt lat="48.08803" lon="7.08003">
        <ele>914</ele>
        <time>2015-07-08T11:29:20.1Z</time>
      </trkpt>
      <trkpt lat="48.08796" lon="7.08026">
        <ele>912</ele>
        <time>2015-07-08T11:29:22.1Z</time>
      </trkpt>
      <trkpt lat="48.08791" lon="7.08044">
        <ele>910</ele>
        <time>2015-07-08T11:29:24.1Z</time>
      </trkpt>
      <trkpt lat="48.08788" lon="7.08055">
        <ele>907</ele>
        <time>2015-07-08T11:29:26.1Z</time>
      </trkpt>
      <trkpt lat="48.08785" lon="7.08067">
        <ele>905</ele>
        <time>2015-07-08T11:29:29.1Z</time>
      </trkpt>
      <trkpt lat="48.08772" lon="7.08084">
        <ele>904</ele>
        <time>2015-07-08T11:29:31.1Z</time>
      </trkpt>
      <trkpt lat="48.08773" lon="7.08085">
        <ele>904</ele>
        <time>2015-07-08T11:29:34.1Z</time>
      </trkpt>
      <trkpt lat="48.08773" lon="7.08085">
        <ele>904</ele>
        <time>2015-07-08T11:29:36.1Z</time>
      </trkpt>
      <trkpt lat="48.08774" lon="7.08085">
        <ele>904</ele>
        <time>2015-07-08T11:29:39.1Z</time>
      </trkpt>
      <trkpt lat="48.08775" lon="7.08086">
        <ele>904</ele>
        <time>2015-07-08T11:29:41.1Z</time>
      </trkpt>
      <trkpt lat="48.08776" lon="7.08086">
        <ele>904</ele>
        <time>2015-07-08T11:29:44.1Z</time>
      </trkpt>
      <trkpt lat="48.08777" lon="7.08086">
        <ele>904</ele>
        <time>2015-07-08T11:29:47.1Z</time>
      </trkpt>
      <trkpt lat="48.0878" lon="7.08086">
        <ele>904</ele>
        <time>2015-07-08T11:29:50.1Z</time>
      </trkpt>
      <trkpt lat="48.08783" lon="7.08088">
        <ele>905</ele>
        <time>2015-07-08T11:29:52.1Z</time>
      </trkpt>
      <trkpt lat="48.08785" lon="7.08093">
        <ele>905</ele>
        <time>2015-07-08T11:29:54.1Z</time>
      </trkpt>
      <trkpt lat="48.08787" lon="7.08098">
        <ele>905</ele>
        <time>2015-07-08T11:29:56.1Z</time>
      </trkpt>
      <trkpt lat="48.08789" lon="7.08105">
        <ele>905</ele>
        <time>2015-07-08T11:29:58.1Z</time>
      </trkpt>
      <trkpt lat="48.08792" lon="7.08112">
        <ele>905</ele>
        <time>2015-07-08T11:30:00.1Z</time>
      </trkpt>
      <trkpt lat="48.08795" lon="7.08117">
        <ele>905</ele>
        <time>2015-07-08T11:30:02.1Z</time>
      </trkpt>
      <trkpt lat="48.08798" lon="7.08121">
        <ele>905</ele>
        <time>2015-07-08T11:30:04.1Z</time>
      </trkpt>
      <trkpt lat="48.08801" lon="7.08125">
        <ele>906</ele>
        <time>2015-07-08T11:30:06.1Z</time>
      </trkpt>
      <trkpt lat="48.08805" lon="7.08129">
        <ele>907</ele>
        <time>2015-07-08T11:30:08.1Z</time>
      </trkpt>
      <trkpt lat="48.08809" lon="7.08135">
        <ele>907</ele>
        <time>2015-07-08T11:30:10.1Z</time>
      </trkpt>
      <trkpt lat="48.08813" lon="7.0814">
        <ele>908</ele>
        <time>2015-07-08T11:30:12.1Z</time>
      </trkpt>
      <trkpt lat="48.08817" lon="7.08144">
        <ele>908</ele>
        <time>2015-07-08T11:30:14.1Z</time>
      </trkpt>
      <trkpt lat="48.08822" lon="7.08149">
        <ele>908</ele>
        <time>2015-07-08T11:30:16.1Z</time>
      </trkpt>
      <trkpt lat="48.08827" lon="7.08154">
        <ele>908</ele>
        <time>2015-07-08T11:30:18.1Z</time>
      </trkpt>
      <trkpt lat="48.08835" lon="7.0816">
        <ele>909</ele>
        <time>2015-07-08T11:30:21.1Z</time>
      </trkpt>
      <trkpt lat="48.08845" lon="7.08165">
        <ele>910</ele>
        <time>2015-07-08T11:30:24.1Z</time>
      </trkpt>
      <trkpt lat="48.0885" lon="7.08168">
        <ele>911</ele>
        <time>2015-07-08T11:30:26.1Z</time>
      </trkpt>
      <trkpt lat="48.08857" lon="7.0817">
        <ele>911</ele>
        <time>2015-07-08T11:30:28.1Z</time>
      </trkpt>
      <trkpt lat="48.08865" lon="7.08173">
        <ele>913</ele>
        <time>2015-07-08T11:30:31.1Z</time>
      </trkpt>
      <trkpt lat="48.08869" lon="7.08175">
        <ele>913</ele>
        <time>2015-07-08T11:30:33.1Z</time>
      </trkpt>
      <trkpt lat="48.08875" lon="7.08177">
        <ele>913</ele>
        <time>2015-07-08T11:30:36.1Z</time>
      </trkpt>
      <trkpt lat="48.08879" lon="7.08179">
        <ele>913</ele>
        <time>2015-07-08T11:30:38.1Z</time>
      </trkpt>
      <trkpt lat="48.08886" lon="7.08183">
        <ele>913</ele>
        <time>2015-07-08T11:30:41.1Z</time>
      </trkpt>
      <trkpt lat="48.08893" lon="7.08188">
        <ele>914</ele>
        <time>2015-07-08T11:30:44.1Z</time>
      </trkpt>
      <trkpt lat="48.089" lon="7.08192">
        <ele>915</ele>
        <time>2015-07-08T11:30:47.1Z</time>
      </trkpt>
      <trkpt lat="48.08904" lon="7.08195">
        <ele>915</ele>
        <time>2015-07-08T11:30:49.1Z</time>
      </trkpt>
      <trkpt lat="48.08911" lon="7.08202">
        <ele>916</ele>
        <time>2015-07-08T11:30:52.1Z</time>
      </trkpt>
      <trkpt lat="48.08915" lon="7.08207">
        <ele>917</ele>
        <time>2015-07-08T11:30:54.1Z</time>
      </trkpt>
      <trkpt lat="48.0892" lon="7.08212">
        <ele>918</ele>
        <time>2015-07-08T11:30:56.1Z</time>
      </trkpt>
      <trkpt lat="48.08924" lon="7.08218">
        <ele>919</ele>
        <time>2015-07-08T11:30:58.1Z</time>
      </trkpt>
      <trkpt lat="48.0893" lon="7.08226">
        <ele>919</ele>
        <time>2015-07-08T11:31:01.1Z</time>
      </trkpt>
      <trkpt lat="48.08935" lon="7.08231">
        <ele>920</ele>
        <time>2015-07-08T11:31:03.1Z</time>
      </trkpt>
      <trkpt lat="48.0894" lon="7.08238">
        <ele>921</ele>
        <time>2015-07-08T11:31:05.1Z</time>
      </trkpt>
      <trkpt lat="48.08945" lon="7.08243">
        <ele>921</ele>
        <time>2015-07-08T11:31:07.1Z</time>
      </trkpt>
      <trkpt lat="48.0895" lon="7.08249">
        <ele>921</ele>
        <time>2015-07-08T11:31:09.1Z</time>
      </trkpt>
      <trkpt lat="48.08957" lon="7.08256">
        <ele>921</ele>
        <time>2015-07-08T11:31:12.1Z</time>
      </trkpt>
      <trkpt lat="48.08961" lon="7.08261">
        <ele>922</ele>
        <time>2015-07-08T11:31:14.1Z</time>
      </trkpt>
      <trkpt lat="48.08968" lon="7.0827">
        <ele>923</ele>
        <time>2015-07-08T11:31:17.1Z</time>
      </trkpt>
      <trkpt lat="48.08976" lon="7.08276">
        <ele>923</ele>
        <time>2015-07-08T11:31:20.1Z</time>
      </trkpt>
      <trkpt lat="48.08984" lon="7.08282">
        <ele>924</ele>
        <time>2015-07-08T11:31:23.1Z</time>
      </trkpt>
      <trkpt lat="48.08989" lon="7.08286">
        <ele>924</ele>
        <time>2015-07-08T11:31:25.1Z</time>
      </trkpt>
      <trkpt lat="48.08996" lon="7.08291">
        <ele>924</ele>
        <time>2015-07-08T11:31:28.1Z</time>
      </trkpt>
      <trkpt lat="48.09004" lon="7.08294">
        <ele>924</ele>
        <time>2015-07-08T11:31:31.1Z</time>
      </trkpt>
      <trkpt lat="48.0901" lon="7.08295">
        <ele>925</ele>
        <time>2015-07-08T11:31:33.1Z</time>
      </trkpt>
      <trkpt lat="48.09015" lon="7.08295">
        <ele>925</ele>
        <time>2015-07-08T11:31:35.1Z</time>
      </trkpt>
      <trkpt lat="48.09023" lon="7.08295">
        <ele>925</ele>
        <time>2015-07-08T11:31:38.1Z</time>
      </trkpt>
      <trkpt lat="48.09028" lon="7.08294">
        <ele>925</ele>
        <time>2015-07-08T11:31:40.1Z</time>
      </trkpt>
      <trkpt lat="48.09032" lon="7.08293">
        <ele>925</ele>
        <time>2015-07-08T11:31:42.1Z</time>
      </trkpt>
      <trkpt lat="48.09038" lon="7.08292">
        <ele>926</ele>
        <time>2015-07-08T11:31:44.1Z</time>
      </trkpt>
      <trkpt lat="48.09043" lon="7.08291">
        <ele>927</ele>
        <time>2015-07-08T11:31:46.1Z</time>
      </trkpt>
      <trkpt lat="48.09052" lon="7.08289">
        <ele>927</ele>
        <time>2015-07-08T11:31:49.1Z</time>
      </trkpt>
      <trkpt lat="48.09057" lon="7.08288">
        <ele>928</ele>
        <time>2015-07-08T11:31:51.1Z</time>
      </trkpt>
      <trkpt lat="48.09062" lon="7.08287">
        <ele>929</ele>
        <time>2015-07-08T11:31:53.1Z</time>
      </trkpt>
      <trkpt lat="48.09067" lon="7.08286">
        <ele>930</ele>
        <time>2015-07-08T11:31:55.1Z</time>
      </trkpt>
      <trkpt lat="48.09072" lon="7.08285">
        <ele>930</ele>
        <time>2015-07-08T11:31:57.1Z</time>
      </trkpt>
      <trkpt lat="48.09077" lon="7.08282">
        <ele>931</ele>
        <time>2015-07-08T11:32:00.1Z</time>
      </trkpt>
      <trkpt lat="48.09081" lon="7.0828">
        <ele>931</ele>
        <time>2015-07-08T11:32:02.1Z</time>
      </trkpt>
      <trkpt lat="48.09085" lon="7.08277">
        <ele>931</ele>
        <time>2015-07-08T11:32:04.1Z</time>
      </trkpt>
      <trkpt lat="48.09089" lon="7.08273">
        <ele>932</ele>
        <time>2015-07-08T11:32:06.1Z</time>
      </trkpt>
      <trkpt lat="48.09093" lon="7.08269">
        <ele>932</ele>
        <time>2015-07-08T11:32:08.1Z</time>
      </trkpt>
      <trkpt lat="48.091" lon="7.08261">
        <ele>933</ele>
        <time>2015-07-08T11:32:11.1Z</time>
      </trkpt>
      <trkpt lat="48.09104" lon="7.08255">
        <ele>934</ele>
        <time>2015-07-08T11:32:13.1Z</time>
      </trkpt>
      <trkpt lat="48.09107" lon="7.08249">
        <ele>934</ele>
        <time>2015-07-08T11:32:15.1Z</time>
      </trkpt>
      <trkpt lat="48.09111" lon="7.08244">
        <ele>935</ele>
        <time>2015-07-08T11:32:17.1Z</time>
      </trkpt>
      <trkpt lat="48.09117" lon="7.08235">
        <ele>935</ele>
        <time>2015-07-08T11:32:20.1Z</time>
      </trkpt>
      <trkpt lat="48.09121" lon="7.0823">
        <ele>936</ele>
        <time>2015-07-08T11:32:22.1Z</time>
      </trkpt>
      <trkpt lat="48.09126" lon="7.08225">
        <ele>937</ele>
        <time>2015-07-08T11:32:24.1Z</time>
      </trkpt>
      <trkpt lat="48.09131" lon="7.0822">
        <ele>937</ele>
        <time>2015-07-08T11:32:26.1Z</time>
      </trkpt>
      <trkpt lat="48.09135" lon="7.08215">
        <ele>938</ele>
        <time>2015-07-08T11:32:28.1Z</time>
      </trkpt>
      <trkpt lat="48.09139" lon="7.08212">
        <ele>939</ele>
        <time>2015-07-08T11:32:30.1Z</time>
      </trkpt>
      <trkpt lat="48.09144" lon="7.08207">
        <ele>939</ele>
        <time>2015-07-08T11:32:33.1Z</time>
      </trkpt>
      <trkpt lat="48.09147" lon="7.08205">
        <ele>940</ele>
        <time>2015-07-08T11:32:35.1Z</time>
      </trkpt>
      <trkpt lat="48.0915" lon="7.08201">
        <ele>941</ele>
        <time>2015-07-08T11:32:37.1Z</time>
      </trkpt>
      <trkpt lat="48.09155" lon="7.08196">
        <ele>941</ele>
        <time>2015-07-08T11:32:39.1Z</time>
      </trkpt>
      <trkpt lat="48.09159" lon="7.08192">
        <ele>942</ele>
        <time>2015-07-08T11:32:41.1Z</time>
      </trkpt>
      <trkpt lat="48.09163" lon="7.08187">
        <ele>943</ele>
        <time>2015-07-08T11:32:43.1Z</time>
      </trkpt>
      <trkpt lat="48.09167" lon="7.08182">
        <ele>943</ele>
        <time>2015-07-08T11:32:45.1Z</time>
      </trkpt>
      <trkpt lat="48.09172" lon="7.08178">
        <ele>943</ele>
        <time>2015-07-08T11:32:47.1Z</time>
      </trkpt>
      <trkpt lat="48.09175" lon="7.08174">
        <ele>944</ele>
        <time>2015-07-08T11:32:49.1Z</time>
      </trkpt>
      <trkpt lat="48.09181" lon="7.08168">
        <ele>944</ele>
        <time>2015-07-08T11:32:52.1Z</time>
      </trkpt>
      <trkpt lat="48.09188" lon="7.08161">
        <ele>946</ele>
        <time>2015-07-08T11:32:55.1Z</time>
      </trkpt>
      <trkpt lat="48.09192" lon="7.08157">
        <ele>946</ele>
        <time>2015-07-08T11:32:57.1Z</time>
      </trkpt>
      <trkpt lat="48.09196" lon="7.08152">
        <ele>946</ele>
        <time>2015-07-08T11:32:59.1Z</time>
      </trkpt>
      <trkpt lat="48.09201" lon="7.08146">
        <ele>947</ele>
        <time>2015-07-08T11:33:01.1Z</time>
      </trkpt>
      <trkpt lat="48.09205" lon="7.08141">
        <ele>947</ele>
        <time>2015-07-08T11:33:03.1Z</time>
      </trkpt>
      <trkpt lat="48.0921" lon="7.08134">
        <ele>948</ele>
        <time>2015-07-08T11:33:06.1Z</time>
      </trkpt>
      <trkpt lat="48.09214" lon="7.08129">
        <ele>949</ele>
        <time>2015-07-08T11:33:08.1Z</time>
      </trkpt>
      <trkpt lat="48.09218" lon="7.08124">
        <ele>949</ele>
        <time>2015-07-08T11:33:10.1Z</time>
      </trkpt>
      <trkpt lat="48.09222" lon="7.08119">
        <ele>949</ele>
        <time>2015-07-08T11:33:12.1Z</time>
      </trkpt>
      <trkpt lat="48.09229" lon="7.08113">
        <ele>950</ele>
        <time>2015-07-08T11:33:15.1Z</time>
      </trkpt>
      <trkpt lat="48.09234" lon="7.08109">
        <ele>950</ele>
        <time>2015-07-08T11:33:17.1Z</time>
      </trkpt>
      <trkpt lat="48.09238" lon="7.08105">
        <ele>951</ele>
        <time>2015-07-08T11:33:19.1Z</time>
      </trkpt>
      <trkpt lat="48.09243" lon="7.08101">
        <ele>951</ele>
        <time>2015-07-08T11:33:21.1Z</time>
      </trkpt>
      <trkpt lat="48.09249" lon="7.08096">
        <ele>952</ele>
        <time>2015-07-08T11:33:24.1Z</time>
      </trkpt>
      <trkpt lat="48.09254" lon="7.08092">
        <ele>953</ele>
        <time>2015-07-08T11:33:26.1Z</time>
      </trkpt>
      <trkpt lat="48.09259" lon="7.08088">
        <ele>953</ele>
        <time>2015-07-08T11:33:28.1Z</time>
      </trkpt>
      <trkpt lat="48.09264" lon="7.08085">
        <ele>954</ele>
        <time>2015-07-08T11:33:30.1Z</time>
      </trkpt>
      <trkpt lat="48.09269" lon="7.0808">
        <ele>955</ele>
        <time>2015-07-08T11:33:32.1Z</time>
      </trkpt>
      <trkpt lat="48.09274" lon="7.08076">
        <ele>955</ele>
        <time>2015-07-08T11:33:34.1Z</time>
      </trkpt>
      <trkpt lat="48.0928" lon="7.08069">
        <ele>956</ele>
        <time>2015-07-08T11:33:37.1Z</time>
      </trkpt>
      <trkpt lat="48.09285" lon="7.08064">
        <ele>956</ele>
        <time>2015-07-08T11:33:39.1Z</time>
      </trkpt>
      <trkpt lat="48.09289" lon="7.0806">
        <ele>956</ele>
        <time>2015-07-08T11:33:41.1Z</time>
      </trkpt>
      <trkpt lat="48.09293" lon="7.08055">
        <ele>957</ele>
        <time>2015-07-08T11:33:43.1Z</time>
      </trkpt>
      <trkpt lat="48.09297" lon="7.0805">
        <ele>958</ele>
        <time>2015-07-08T11:33:45.1Z</time>
      </trkpt>
      <trkpt lat="48.09303" lon="7.08043">
        <ele>958</ele>
        <time>2015-07-08T11:33:48.1Z</time>
      </trkpt>
      <trkpt lat="48.09306" lon="7.08038">
        <ele>959</ele>
        <time>2015-07-08T11:33:50.1Z</time>
      </trkpt>
      <trkpt lat="48.09311" lon="7.08033">
        <ele>959</ele>
        <time>2015-07-08T11:33:52.1Z</time>
      </trkpt>
      <trkpt lat="48.09314" lon="7.08028">
        <ele>959</ele>
        <time>2015-07-08T11:33:54.1Z</time>
      </trkpt>
      <trkpt lat="48.09318" lon="7.08022">
        <ele>959</ele>
        <time>2015-07-08T11:33:56.1Z</time>
      </trkpt>
      <trkpt lat="48.09323" lon="7.08015">
        <ele>959</ele>
        <time>2015-07-08T11:33:58.1Z</time>
      </trkpt>
      <trkpt lat="48.09328" lon="7.08007">
        <ele>960</ele>
        <time>2015-07-08T11:34:01.1Z</time>
      </trkpt>
      <trkpt lat="48.09331" lon="7.08004">
        <ele>960</ele>
        <time>2015-07-08T11:34:03.1Z</time>
      </trkpt>
      <trkpt lat="48.09333" lon="7.07999">
        <ele>960</ele>
        <time>2015-07-08T11:34:05.1Z</time>
      </trkpt>
      <trkpt lat="48.09336" lon="7.07992">
        <ele>961</ele>
        <time>2015-07-08T11:34:08.1Z</time>
      </trkpt>
      <trkpt lat="48.09339" lon="7.07987">
        <ele>961</ele>
        <time>2015-07-08T11:34:10.1Z</time>
      </trkpt>
      <trkpt lat="48.09344" lon="7.07978">
        <ele>962</ele>
        <time>2015-07-08T11:34:13.1Z</time>
      </trkpt>
      <trkpt lat="48.09349" lon="7.07971">
        <ele>963</ele>
        <time>2015-07-08T11:34:15.1Z</time>
      </trkpt>
      <trkpt lat="48.09354" lon="7.07965">
        <ele>964</ele>
        <time>2015-07-08T11:34:17.1Z</time>
      </trkpt>
      <trkpt lat="48.09358" lon="7.07958">
        <ele>965</ele>
        <time>2015-07-08T11:34:19.1Z</time>
      </trkpt>
      <trkpt lat="48.09362" lon="7.07951">
        <ele>965</ele>
        <time>2015-07-08T11:34:21.1Z</time>
      </trkpt>
      <trkpt lat="48.09367" lon="7.07944">
        <ele>965</ele>
        <time>2015-07-08T11:34:24.1Z</time>
      </trkpt>
      <trkpt lat="48.09371" lon="7.07938">
        <ele>965</ele>
        <time>2015-07-08T11:34:26.1Z</time>
      </trkpt>
      <trkpt lat="48.09375" lon="7.07932">
        <ele>965</ele>
        <time>2015-07-08T11:34:28.1Z</time>
      </trkpt>
      <trkpt lat="48.09381" lon="7.07927">
        <ele>966</ele>
        <time>2015-07-08T11:34:30.1Z</time>
      </trkpt>
      <trkpt lat="48.09387" lon="7.07921">
        <ele>967</ele>
        <time>2015-07-08T11:34:32.1Z</time>
      </trkpt>
      <trkpt lat="48.09397" lon="7.07914">
        <ele>968</ele>
        <time>2015-07-08T11:34:35.1Z</time>
      </trkpt>
      <trkpt lat="48.09405" lon="7.07908">
        <ele>969</ele>
        <time>2015-07-08T11:34:38.1Z</time>
      </trkpt>
      <trkpt lat="48.09411" lon="7.07905">
        <ele>970</ele>
        <time>2015-07-08T11:34:40.1Z</time>
      </trkpt>
      <trkpt lat="48.09417" lon="7.07901">
        <ele>970</ele>
        <time>2015-07-08T11:34:43.1Z</time>
      </trkpt>
      <trkpt lat="48.09424" lon="7.07897">
        <ele>971</ele>
        <time>2015-07-08T11:34:46.1Z</time>
      </trkpt>
      <trkpt lat="48.09434" lon="7.07891">
        <ele>971</ele>
        <time>2015-07-08T11:34:49.1Z</time>
      </trkpt>
      <trkpt lat="48.09441" lon="7.07888">
        <ele>972</ele>
        <time>2015-07-08T11:34:51.1Z</time>
      </trkpt>
      <trkpt lat="48.09451" lon="7.07883">
        <ele>972</ele>
        <time>2015-07-08T11:34:54.1Z</time>
      </trkpt>
      <trkpt lat="48.09459" lon="7.07879">
        <ele>973</ele>
        <time>2015-07-08T11:34:57.1Z</time>
      </trkpt>
      <trkpt lat="48.09468" lon="7.07877">
        <ele>973</ele>
        <time>2015-07-08T11:35:00.1Z</time>
      </trkpt>
      <trkpt lat="48.09476" lon="7.07875">
        <ele>974</ele>
        <time>2015-07-08T11:35:03.1Z</time>
      </trkpt>
      <trkpt lat="48.09482" lon="7.07873">
        <ele>974</ele>
        <time>2015-07-08T11:35:05.1Z</time>
      </trkpt>
      <trkpt lat="48.09491" lon="7.07873">
        <ele>975</ele>
        <time>2015-07-08T11:35:08.1Z</time>
      </trkpt>
      <trkpt lat="48.09499" lon="7.07872">
        <ele>975</ele>
        <time>2015-07-08T11:35:11.1Z</time>
      </trkpt>
      <trkpt lat="48.09502" lon="7.07871">
        <ele>976</ele>
        <time>2015-07-08T11:35:14.1Z</time>
      </trkpt>
      <trkpt lat="48.09503" lon="7.07871">
        <ele>977</ele>
        <time>2015-07-08T11:35:17.1Z</time>
      </trkpt>
      <trkpt lat="48.09479" lon="7.0785">
        <ele>975</ele>
        <time>2015-07-08T11:35:19.1Z</time>
      </trkpt>
      <trkpt lat="48.0948" lon="7.07849">
        <ele>975</ele>
        <time>2015-07-08T11:35:21.1Z</time>
      </trkpt>
      <trkpt lat="48.09483" lon="7.07848">
        <ele>975</ele>
        <time>2015-07-08T11:35:23.1Z</time>
      </trkpt>
      <trkpt lat="48.0949" lon="7.07847">
        <ele>976</ele>
        <time>2015-07-08T11:35:26.1Z</time>
      </trkpt>
      <trkpt lat="48.09495" lon="7.07846">
        <ele>977</ele>
        <time>2015-07-08T11:35:28.1Z</time>
      </trkpt>
      <trkpt lat="48.09501" lon="7.07844">
        <ele>977</ele>
        <time>2015-07-08T11:35:30.1Z</time>
      </trkpt>
      <trkpt lat="48.09512" lon="7.07838">
        <ele>978</ele>
        <time>2015-07-08T11:35:33.1Z</time>
      </trkpt>
      <trkpt lat="48.0952" lon="7.07834">
        <ele>979</ele>
        <time>2015-07-08T11:35:35.1Z</time>
      </trkpt>
      <trkpt lat="48.09533" lon="7.07828">
        <ele>980</ele>
        <time>2015-07-08T11:35:38.1Z</time>
      </trkpt>
      <trkpt lat="48.09547" lon="7.07824">
        <ele>981</ele>
        <time>2015-07-08T11:35:41.1Z</time>
      </trkpt>
      <trkpt lat="48.09559" lon="7.07822">
        <ele>982</ele>
        <time>2015-07-08T11:35:44.1Z</time>
      </trkpt>
      <trkpt lat="48.09567" lon="7.0782">
        <ele>983</ele>
        <time>2015-07-08T11:35:46.1Z</time>
      </trkpt>
      <trkpt lat="48.09579" lon="7.07818">
        <ele>983</ele>
        <time>2015-07-08T11:35:49.1Z</time>
      </trkpt>
      <trkpt lat="48.09586" lon="7.0782">
        <ele>984</ele>
        <time>2015-07-08T11:35:51.1Z</time>
      </trkpt>
      <trkpt lat="48.09594" lon="7.07825">
        <ele>985</ele>
        <time>2015-07-08T11:35:53.1Z</time>
      </trkpt>
      <trkpt lat="48.09604" lon="7.07834">
        <ele>985</ele>
        <time>2015-07-08T11:35:56.1Z</time>
      </trkpt>
      <trkpt lat="48.0961" lon="7.07839">
        <ele>985</ele>
        <time>2015-07-08T11:35:58.1Z</time>
      </trkpt>
      <trkpt lat="48.09614" lon="7.07844">
        <ele>985</ele>
        <time>2015-07-08T11:36:00.1Z</time>
      </trkpt>
      <trkpt lat="48.09619" lon="7.07849">
        <ele>986</ele>
        <time>2015-07-08T11:36:02.1Z</time>
      </trkpt>
      <trkpt lat="48.09627" lon="7.07858">
        <ele>987</ele>
        <time>2015-07-08T11:36:05.1Z</time>
      </trkpt>
      <trkpt lat="48.09632" lon="7.07864">
        <ele>987</ele>
        <time>2015-07-08T11:36:07.1Z</time>
      </trkpt>
      <trkpt lat="48.09637" lon="7.07869">
        <ele>987</ele>
        <time>2015-07-08T11:36:09.1Z</time>
      </trkpt>
      <trkpt lat="48.09641" lon="7.07874">
        <ele>987</ele>
        <time>2015-07-08T11:36:11.1Z</time>
      </trkpt>
      <trkpt lat="48.09645" lon="7.07879">
        <ele>987</ele>
        <time>2015-07-08T11:36:13.1Z</time>
      </trkpt>
      <trkpt lat="48.09652" lon="7.07886">
        <ele>986</ele>
        <time>2015-07-08T11:36:16.1Z</time>
      </trkpt>
      <trkpt lat="48.09681" lon="7.07899">
        <ele>986</ele>
        <time>2015-07-08T11:36:19.1Z</time>
      </trkpt>
      <trkpt lat="48.09682" lon="7.07899">
        <ele>986</ele>
        <time>2015-07-08T11:36:22.1Z</time>
      </trkpt>
      <trkpt lat="48.09683" lon="7.07902">
        <ele>986</ele>
        <time>2015-07-08T11:36:24.1Z</time>
      </trkpt>
      <trkpt lat="48.09688" lon="7.07912">
        <ele>987</ele>
        <time>2015-07-08T11:36:27.1Z</time>
      </trkpt>
      <trkpt lat="48.09695" lon="7.07918">
        <ele>987</ele>
        <time>2015-07-08T11:36:29.1Z</time>
      </trkpt>
      <trkpt lat="48.09706" lon="7.07933">
        <ele>987</ele>
        <time>2015-07-08T11:36:32.1Z</time>
      </trkpt>
      <trkpt lat="48.09719" lon="7.07955">
        <ele>987</ele>
        <time>2015-07-08T11:36:35.1Z</time>
      </trkpt>
      <trkpt lat="48.09726" lon="7.07975">
        <ele>987</ele>
        <time>2015-07-08T11:36:37.1Z</time>
      </trkpt>
      <trkpt lat="48.09734" lon="7.0801">
        <ele>985</ele>
        <time>2015-07-08T11:36:40.1Z</time>
      </trkpt>
      <trkpt lat="48.09738" lon="7.08036">
        <ele>984</ele>
        <time>2015-07-08T11:36:42.1Z</time>
      </trkpt>
      <trkpt lat="48.09744" lon="7.08062">
        <ele>982</ele>
        <time>2015-07-08T11:36:44.1Z</time>
      </trkpt>
      <trkpt lat="48.09757" lon="7.08087">
        <ele>979</ele>
        <time>2015-07-08T11:36:47.1Z</time>
      </trkpt>
      <trkpt lat="48.09771" lon="7.08092">
        <ele>976</ele>
        <time>2015-07-08T11:36:49.1Z</time>
      </trkpt>
      <trkpt lat="48.09788" lon="7.08095">
        <ele>974</ele>
        <time>2015-07-08T11:36:51.1Z</time>
      </trkpt>
      <trkpt lat="48.09815" lon="7.08099">
        <ele>972</ele>
        <time>2015-07-08T11:36:54.1Z</time>
      </trkpt>
      <trkpt lat="48.09834" lon="7.08108">
        <ele>971</ele>
        <time>2015-07-08T11:36:56.1Z</time>
      </trkpt>
      <trkpt lat="48.09852" lon="7.08117">
        <ele>969</ele>
        <time>2015-07-08T11:36:58.1Z</time>
      </trkpt>
      <trkpt lat="48.09872" lon="7.08121">
        <ele>968</ele>
        <time>2015-07-08T11:37:00.1Z</time>
      </trkpt>
      <trkpt lat="48.09901" lon="7.08126">
        <ele>966</ele>
        <time>2015-07-08T11:37:03.1Z</time>
      </trkpt>
      <trkpt lat="48.09929" lon="7.08135">
        <ele>963</ele>
        <time>2015-07-08T11:37:06.1Z</time>
      </trkpt>
      <trkpt lat="48.09958" lon="7.08148">
        <ele>960</ele>
        <time>2015-07-08T11:37:09.1Z</time>
      </trkpt>
      <trkpt lat="48.09976" lon="7.08157">
        <ele>957</ele>
        <time>2015-07-08T11:37:11.1Z</time>
      </trkpt>
      <trkpt lat="48.09997" lon="7.08172">
        <ele>953</ele>
        <time>2015-07-08T11:37:14.1Z</time>
      </trkpt>
      <trkpt lat="48.10006" lon="7.08196">
        <ele>948</ele>
        <time>2015-07-08T11:37:17.1Z</time>
      </trkpt>
      <trkpt lat="48.10014" lon="7.08222">
        <ele>945</ele>
        <time>2015-07-08T11:37:20.1Z</time>
      </trkpt>
      <trkpt lat="48.10027" lon="7.08245">
        <ele>943</ele>
        <time>2015-07-08T11:37:23.1Z</time>
      </trkpt>
      <trkpt lat="48.10029" lon="7.0827">
        <ele>941</ele>
        <time>2015-07-08T11:37:26.1Z</time>
      </trkpt>
      <trkpt lat="48.10028" lon="7.08283">
        <ele>940</ele>
        <time>2015-07-08T11:37:28.1Z</time>
      </trkpt>
      <trkpt lat="48.10027" lon="7.08291">
        <ele>939</ele>
        <time>2015-07-08T11:37:30.1Z</time>
      </trkpt>
      <trkpt lat="48.10026" lon="7.08295">
        <ele>938</ele>
        <time>2015-07-08T11:37:32.1Z</time>
      </trkpt>
      <trkpt lat="48.10024" lon="7.08297">
        <ele>938</ele>
        <time>2015-07-08T11:37:35.1Z</time>
      </trkpt>
      <trkpt lat="48.10021" lon="7.08308">
        <ele>939</ele>
        <time>2015-07-08T11:37:37.1Z</time>
      </trkpt>
      <trkpt lat="48.10024" lon="7.08309">
        <ele>940</ele>
        <time>2015-07-08T11:37:40.1Z</time>
      </trkpt>
      <trkpt lat="48.10026" lon="7.08308">
        <ele>939</ele>
        <time>2015-07-08T11:37:42.1Z</time>
      </trkpt>
      <trkpt lat="48.10028" lon="7.08308">
        <ele>940</ele>
        <time>2015-07-08T11:37:44.1Z</time>
      </trkpt>
      <trkpt lat="48.10028" lon="7.08303">
        <ele>940</ele>
        <time>2015-07-08T11:37:47.1Z</time>
      </trkpt>
      <trkpt lat="48.10029" lon="7.08299">
        <ele>940</ele>
        <time>2015-07-08T11:37:50.1Z</time>
      </trkpt>
      <trkpt lat="48.10031" lon="7.08291">
        <ele>940</ele>
        <time>2015-07-08T11:37:52.1Z</time>
      </trkpt>
      <trkpt lat="48.10031" lon="7.08286">
        <ele>940</ele>
        <time>2015-07-08T11:37:54.1Z</time>
      </trkpt>
      <trkpt lat="48.1003" lon="7.08275">
        <ele>941</ele>
        <time>2015-07-08T11:37:57.1Z</time>
      </trkpt>
      <trkpt lat="48.10024" lon="7.08261">
        <ele>942</ele>
        <time>2015-07-08T11:38:00.1Z</time>
      </trkpt>
      <trkpt lat="48.10017" lon="7.08243">
        <ele>943</ele>
        <time>2015-07-08T11:38:03.1Z</time>
      </trkpt>
      <trkpt lat="48.1001" lon="7.08232">
        <ele>944</ele>
        <time>2015-07-08T11:38:06.1Z</time>
      </trkpt>
      <trkpt lat="48.10001" lon="7.08217">
        <ele>945</ele>
        <time>2015-07-08T11:38:08.1Z</time>
      </trkpt>
      <trkpt lat="48.09998" lon="7.08206">
        <ele>946</ele>
        <time>2015-07-08T11:38:10.1Z</time>
      </trkpt>
      <trkpt lat="48.09998" lon="7.08192">
        <ele>947</ele>
        <time>2015-07-08T11:38:13.1Z</time>
      </trkpt>
      <trkpt lat="48.10002" lon="7.0819">
        <ele>947</ele>
        <time>2015-07-08T11:38:15.1Z</time>
      </trkpt>
      <trkpt lat="48.10009" lon="7.08195">
        <ele>948</ele>
        <time>2015-07-08T11:38:18.1Z</time>
      </trkpt>
      <trkpt lat="48.10014" lon="7.082">
        <ele>949</ele>
        <time>2015-07-08T11:38:20.1Z</time>
      </trkpt>
      <trkpt lat="48.10022" lon="7.0821">
        <ele>950</ele>
        <time>2015-07-08T11:38:23.1Z</time>
      </trkpt>
      <trkpt lat="48.10028" lon="7.08216">
        <ele>951</ele>
        <time>2015-07-08T11:38:25.1Z</time>
      </trkpt>
      <trkpt lat="48.10034" lon="7.08229">
        <ele>951</ele>
        <time>2015-07-08T11:38:28.1Z</time>
      </trkpt>
      <trkpt lat="48.10038" lon="7.08238">
        <ele>952</ele>
        <time>2015-07-08T11:38:30.1Z</time>
      </trkpt>
      <trkpt lat="48.10041" lon="7.08247">
        <ele>952</ele>
        <time>2015-07-08T11:38:32.1Z</time>
      </trkpt>
      <trkpt lat="48.10046" lon="7.08259">
        <ele>952</ele>
        <time>2015-07-08T11:38:35.1Z</time>
      </trkpt>
      <trkpt lat="48.1005" lon="7.08266">
        <ele>952</ele>
        <time>2015-07-08T11:38:37.1Z</time>
      </trkpt>
      <trkpt lat="48.10054" lon="7.08274">
        <ele>953</ele>
        <time>2015-07-08T11:38:39.1Z</time>
      </trkpt>
      <trkpt lat="48.10057" lon="7.08283">
        <ele>954</ele>
        <time>2015-07-08T11:38:42.1Z</time>
      </trkpt>
      <trkpt lat="48.10059" lon="7.08295">
        <ele>954</ele>
        <time>2015-07-08T11:38:44.1Z</time>
      </trkpt>
      <trkpt lat="48.10059" lon="7.08305">
        <ele>955</ele>
        <time>2015-07-08T11:38:46.1Z</time>
      </trkpt>
      <trkpt lat="48.10059" lon="7.08314">
        <ele>956</ele>
        <time>2015-07-08T11:38:48.1Z</time>
      </trkpt>
      <trkpt lat="48.10059" lon="7.08327">
        <ele>957</ele>
        <time>2015-07-08T11:38:51.1Z</time>
      </trkpt>
      <trkpt lat="48.1006" lon="7.08336">
        <ele>958</ele>
        <time>2015-07-08T11:38:53.1Z</time>
      </trkpt>
      <trkpt lat="48.10063" lon="7.08347">
        <ele>958</ele>
        <time>2015-07-08T11:38:56.1Z</time>
      </trkpt>
      <trkpt lat="48.10064" lon="7.08355">
        <ele>958</ele>
        <time>2015-07-08T11:38:58.1Z</time>
      </trkpt>
      <trkpt lat="48.10064" lon="7.08367">
        <ele>959</ele>
        <time>2015-07-08T11:39:01.1Z</time>
      </trkpt>
      <trkpt lat="48.10066" lon="7.08374">
        <ele>959</ele>
        <time>2015-07-08T11:39:03.1Z</time>
      </trkpt>
      <trkpt lat="48.1007" lon="7.0838">
        <ele>960</ele>
        <time>2015-07-08T11:39:05.1Z</time>
      </trkpt>
      <trkpt lat="48.10077" lon="7.08377">
        <ele>961</ele>
        <time>2015-07-08T11:39:08.1Z</time>
      </trkpt>
      <trkpt lat="48.10078" lon="7.08367">
        <ele>961</ele>
        <time>2015-07-08T11:39:11.1Z</time>
      </trkpt>
      <trkpt lat="48.10078" lon="7.08364">
        <ele>962</ele>
        <time>2015-07-08T11:39:13.1Z</time>
      </trkpt>
      <trkpt lat="48.10079" lon="7.0836">
        <ele>962</ele>
        <time>2015-07-08T11:39:15.1Z</time>
      </trkpt>
      <trkpt lat="48.10079" lon="7.08355">
        <ele>963</ele>
        <time>2015-07-08T11:39:17.1Z</time>
      </trkpt>
      <trkpt lat="48.10081" lon="7.08346">
        <ele>963</ele>
        <time>2015-07-08T11:39:20.1Z</time>
      </trkpt>
      <trkpt lat="48.10083" lon="7.08336">
        <ele>964</ele>
        <time>2015-07-08T11:39:23.1Z</time>
      </trkpt>
      <trkpt lat="48.10085" lon="7.0833">
        <ele>965</ele>
        <time>2015-07-08T11:39:25.1Z</time>
      </trkpt>
      <trkpt lat="48.10088" lon="7.0832">
        <ele>966</ele>
        <time>2015-07-08T11:39:28.1Z</time>
      </trkpt>
      <trkpt lat="48.10091" lon="7.08313">
        <ele>967</ele>
        <time>2015-07-08T11:39:30.1Z</time>
      </trkpt>
      <trkpt lat="48.10094" lon="7.08306">
        <ele>968</ele>
        <time>2015-07-08T11:39:32.1Z</time>
      </trkpt>
      <trkpt lat="48.10098" lon="7.08294">
        <ele>968</ele>
        <time>2015-07-08T11:39:35.1Z</time>
      </trkpt>
      <trkpt lat="48.10101" lon="7.08283">
        <ele>970</ele>
        <time>2015-07-08T11:39:38.1Z</time>
      </trkpt>
      <trkpt lat="48.10103" lon="7.08278">
        <ele>970</ele>
        <time>2015-07-08T11:39:40.1Z</time>
      </trkpt>
      <trkpt lat="48.10107" lon="7.08271">
        <ele>970</ele>
        <time>2015-07-08T11:39:43.1Z</time>
      </trkpt>
      <trkpt lat="48.1011" lon="7.08262">
        <ele>971</ele>
        <time>2015-07-08T11:39:46.1Z</time>
      </trkpt>
      <trkpt lat="48.10111" lon="7.08253">
        <ele>972</ele>
        <time>2015-07-08T11:39:49.1Z</time>
      </trkpt>
      <trkpt lat="48.10112" lon="7.08246">
        <ele>973</ele>
        <time>2015-07-08T11:39:51.1Z</time>
      </trkpt>
      <trkpt lat="48.10114" lon="7.08236">
        <ele>974</ele>
        <time>2015-07-08T11:39:54.1Z</time>
      </trkpt>
      <trkpt lat="48.10115" lon="7.08229">
        <ele>974</ele>
        <time>2015-07-08T11:39:56.1Z</time>
      </trkpt>
      <trkpt lat="48.10117" lon="7.08219">
        <ele>975</ele>
        <time>2015-07-08T11:39:59.1Z</time>
      </trkpt>
      <trkpt lat="48.1012" lon="7.08209">
        <ele>976</ele>
        <time>2015-07-08T11:40:02.1Z</time>
      </trkpt>
      <trkpt lat="48.10122" lon="7.08204">
        <ele>976</ele>
        <time>2015-07-08T11:40:04.1Z</time>
      </trkpt>
      <trkpt lat="48.10124" lon="7.08199">
        <ele>977</ele>
        <time>2015-07-08T11:40:07.1Z</time>
      </trkpt>
      <trkpt lat="48.10127" lon="7.08193">
        <ele>977</ele>
        <time>2015-07-08T11:40:10.1Z</time>
      </trkpt>
      <trkpt lat="48.10129" lon="7.08189">
        <ele>977</ele>
        <time>2015-07-08T11:40:12.1Z</time>
      </trkpt>
      <trkpt lat="48.10132" lon="7.08184">
        <ele>977</ele>
        <time>2015-07-08T11:40:14.1Z</time>
      </trkpt>
      <trkpt lat="48.10137" lon="7.08177">
        <ele>978</ele>
        <time>2015-07-08T11:40:17.1Z</time>
      </trkpt>
      <trkpt lat="48.1014" lon="7.08172">
        <ele>978</ele>
        <time>2015-07-08T11:40:19.1Z</time>
      </trkpt>
      <trkpt lat="48.10144" lon="7.08164">
        <ele>979</ele>
        <time>2015-07-08T11:40:22.1Z</time>
      </trkpt>
      <trkpt lat="48.10148" lon="7.08157">
        <ele>980</ele>
        <time>2015-07-08T11:40:25.1Z</time>
      </trkpt>
      <trkpt lat="48.1015" lon="7.08151">
        <ele>981</ele>
        <time>2015-07-08T11:40:27.1Z</time>
      </trkpt>
      <trkpt lat="48.10153" lon="7.08146">
        <ele>982</ele>
        <time>2015-07-08T11:40:29.1Z</time>
      </trkpt>
      <trkpt lat="48.10157" lon="7.0814">
        <ele>982</ele>
        <time>2015-07-08T11:40:31.1Z</time>
      </trkpt>
      <trkpt lat="48.10162" lon="7.0813">
        <ele>983</ele>
        <time>2015-07-08T11:40:34.1Z</time>
      </trkpt>
      <trkpt lat="48.10165" lon="7.08123">
        <ele>984</ele>
        <time>2015-07-08T11:40:36.1Z</time>
      </trkpt>
      <trkpt lat="48.10171" lon="7.08113">
        <ele>985</ele>
        <time>2015-07-08T11:40:39.1Z</time>
      </trkpt>
      <trkpt lat="48.10179" lon="7.08103">
        <ele>986</ele>
        <time>2015-07-08T11:40:42.1Z</time>
      </trkpt>
      <trkpt lat="48.10186" lon="7.08091">
        <ele>988</ele>
        <time>2015-07-08T11:40:45.1Z</time>
      </trkpt>
      <trkpt lat="48.1019" lon="7.08083">
        <ele>989</ele>
        <time>2015-07-08T11:40:47.1Z</time>
      </trkpt>
      <trkpt lat="48.10194" lon="7.08074">
        <ele>990</ele>
        <time>2015-07-08T11:40:49.1Z</time>
      </trkpt>
      <trkpt lat="48.10201" lon="7.08061">
        <ele>991</ele>
        <time>2015-07-08T11:40:52.1Z</time>
      </trkpt>
      <trkpt lat="48.10204" lon="7.08053">
        <ele>992</ele>
        <time>2015-07-08T11:40:54.1Z</time>
      </trkpt>
      <trkpt lat="48.10207" lon="7.08046">
        <ele>993</ele>
        <time>2015-07-08T11:40:56.1Z</time>
      </trkpt>
      <trkpt lat="48.10211" lon="7.08041">
        <ele>994</ele>
        <time>2015-07-08T11:40:58.1Z</time>
      </trkpt>
      <trkpt lat="48.10215" lon="7.08035">
        <ele>994</ele>
        <time>2015-07-08T11:41:01.1Z</time>
      </trkpt>
      <trkpt lat="48.10219" lon="7.08031">
        <ele>995</ele>
        <time>2015-07-08T11:41:03.1Z</time>
      </trkpt>
      <trkpt lat="48.10223" lon="7.08027">
        <ele>995</ele>
        <time>2015-07-08T11:41:05.1Z</time>
      </trkpt>
      <trkpt lat="48.10225" lon="7.0802">
        <ele>996</ele>
        <time>2015-07-08T11:41:07.1Z</time>
      </trkpt>
      <trkpt lat="48.10229" lon="7.08012">
        <ele>997</ele>
        <time>2015-07-08T11:41:10.1Z</time>
      </trkpt>
      <trkpt lat="48.10229" lon="7.08006">
        <ele>998</ele>
        <time>2015-07-08T11:41:12.1Z</time>
      </trkpt>
      <trkpt lat="48.1023" lon="7.08001">
        <ele>998</ele>
        <time>2015-07-08T11:41:14.1Z</time>
      </trkpt>
      <trkpt lat="48.1023" lon="7.07995">
        <ele>999</ele>
        <time>2015-07-08T11:41:16.1Z</time>
      </trkpt>
      <trkpt lat="48.10231" lon="7.07987">
        <ele>999</ele>
        <time>2015-07-08T11:41:19.1Z</time>
      </trkpt>
      <trkpt lat="48.10233" lon="7.07984">
        <ele>1000</ele>
        <time>2015-07-08T11:41:21.1Z</time>
      </trkpt>
      <trkpt lat="48.10235" lon="7.07979">
        <ele>1000</ele>
        <time>2015-07-08T11:41:23.1Z</time>
      </trkpt>
      <trkpt lat="48.10237" lon="7.07975">
        <ele>1001</ele>
        <time>2015-07-08T11:41:25.1Z</time>
      </trkpt>
      <trkpt lat="48.1024" lon="7.0797">
        <ele>1001</ele>
        <time>2015-07-08T11:41:27.1Z</time>
      </trkpt>
      <trkpt lat="48.10243" lon="7.07966">
        <ele>1002</ele>
        <time>2015-07-08T11:41:29.1Z</time>
      </trkpt>
      <trkpt lat="48.10247" lon="7.07961">
        <ele>1002</ele>
        <time>2015-07-08T11:41:31.1Z</time>
      </trkpt>
      <trkpt lat="48.10249" lon="7.07955">
        <ele>1003</ele>
        <time>2015-07-08T11:41:33.1Z</time>
      </trkpt>
      <trkpt lat="48.10253" lon="7.07944">
        <ele>1005</ele>
        <time>2015-07-08T11:41:36.1Z</time>
      </trkpt>
      <trkpt lat="48.10257" lon="7.07937">
        <ele>1006</ele>
        <time>2015-07-08T11:41:38.1Z</time>
      </trkpt>
      <trkpt lat="48.1027" lon="7.07923">
        <ele>1011</ele>
        <time>2015-07-08T11:41:41.1Z</time>
      </trkpt>
      <trkpt lat="48.10271" lon="7.07927">
        <ele>1011</ele>
        <time>2015-07-08T11:41:43.1Z</time>
      </trkpt>
      <trkpt lat="48.10273" lon="7.07934">
        <ele>1012</ele>
        <time>2015-07-08T11:41:46.1Z</time>
      </trkpt>
      <trkpt lat="48.10274" lon="7.0794">
        <ele>1012</ele>
        <time>2015-07-08T11:41:49.1Z</time>
      </trkpt>
      <trkpt lat="48.10272" lon="7.07945">
        <ele>1012</ele>
        <time>2015-07-08T11:41:51.1Z</time>
      </trkpt>
      <trkpt lat="48.1027" lon="7.0795">
        <ele>1012</ele>
        <time>2015-07-08T11:41:53.1Z</time>
      </trkpt>
      <trkpt lat="48.10268" lon="7.07956">
        <ele>1012</ele>
        <time>2015-07-08T11:41:56.1Z</time>
      </trkpt>
      <trkpt lat="48.10267" lon="7.0796">
        <ele>1012</ele>
        <time>2015-07-08T11:41:59.1Z</time>
      </trkpt>
      <trkpt lat="48.10266" lon="7.07963">
        <ele>1012</ele>
        <time>2015-07-08T11:42:01.1Z</time>
      </trkpt>
      <trkpt lat="48.10264" lon="7.07967">
        <ele>1012</ele>
        <time>2015-07-08T11:42:03.1Z</time>
      </trkpt>
      <trkpt lat="48.10263" lon="7.0797">
        <ele>1012</ele>
        <time>2015-07-08T11:42:05.1Z</time>
      </trkpt>
      <trkpt lat="48.10261" lon="7.07974">
        <ele>1012</ele>
        <time>2015-07-08T11:42:07.1Z</time>
      </trkpt>
      <trkpt lat="48.10259" lon="7.07978">
        <ele>1012</ele>
        <time>2015-07-08T11:42:09.1Z</time>
      </trkpt>
      <trkpt lat="48.10257" lon="7.07983">
        <ele>1011</ele>
        <time>2015-07-08T11:42:12.1Z</time>
      </trkpt>
      <trkpt lat="48.10257" lon="7.07985">
        <ele>1011</ele>
        <time>2015-07-08T11:42:14.1Z</time>
      </trkpt>
      <trkpt lat="48.10257" lon="7.07989">
        <ele>1011</ele>
        <time>2015-07-08T11:42:16.1Z</time>
      </trkpt>
      <trkpt lat="48.10252" lon="7.07997">
        <ele>1012</ele>
        <time>2015-07-08T11:42:19.1Z</time>
      </trkpt>
      <trkpt lat="48.1025" lon="7.08003">
        <ele>1012</ele>
        <time>2015-07-08T11:42:21.1Z</time>
      </trkpt>
      <trkpt lat="48.10248" lon="7.08013">
        <ele>1011</ele>
        <time>2015-07-08T11:42:24.1Z</time>
      </trkpt>
      <trkpt lat="48.10248" lon="7.08019">
        <ele>1011</ele>
        <time>2015-07-08T11:42:26.1Z</time>
      </trkpt>
      <trkpt lat="48.10247" lon="7.08028">
        <ele>1011</ele>
        <time>2015-07-08T11:42:28.1Z</time>
      </trkpt>
      <trkpt lat="48.10247" lon="7.08042">
        <ele>1011</ele>
        <time>2015-07-08T11:42:31.1Z</time>
      </trkpt>
      <trkpt lat="48.10246" lon="7.08049">
        <ele>1011</ele>
        <time>2015-07-08T11:42:33.1Z</time>
      </trkpt>
      <trkpt lat="48.10243" lon="7.0806">
        <ele>1012</ele>
        <time>2015-07-08T11:42:36.1Z</time>
      </trkpt>
      <trkpt lat="48.10242" lon="7.08064">
        <ele>1012</ele>
        <time>2015-07-08T11:42:38.1Z</time>
      </trkpt>
      <trkpt lat="48.10241" lon="7.08068">
        <ele>1012</ele>
        <time>2015-07-08T11:42:40.1Z</time>
      </trkpt>
      <trkpt lat="48.10239" lon="7.08075">
        <ele>1012</ele>
        <time>2015-07-08T11:42:43.1Z</time>
      </trkpt>
      <trkpt lat="48.10237" lon="7.08079">
        <ele>1013</ele>
        <time>2015-07-08T11:42:45.1Z</time>
      </trkpt>
      <trkpt lat="48.10235" lon="7.08084">
        <ele>1013</ele>
        <time>2015-07-08T11:42:47.1Z</time>
      </trkpt>
      <trkpt lat="48.10233" lon="7.08094">
        <ele>1014</ele>
        <time>2015-07-08T11:42:50.1Z</time>
      </trkpt>
      <trkpt lat="48.10231" lon="7.08102">
        <ele>1014</ele>
        <time>2015-07-08T11:42:52.1Z</time>
      </trkpt>
      <trkpt lat="48.10229" lon="7.0811">
        <ele>1014</ele>
        <time>2015-07-08T11:42:54.1Z</time>
      </trkpt>
      <trkpt lat="48.10227" lon="7.08116">
        <ele>1014</ele>
        <time>2015-07-08T11:42:56.1Z</time>
      </trkpt>
      <trkpt lat="48.10225" lon="7.08124">
        <ele>1015</ele>
        <time>2015-07-08T11:42:59.1Z</time>
      </trkpt>
      <trkpt lat="48.10222" lon="7.08135">
        <ele>1015</ele>
        <time>2015-07-08T11:43:02.1Z</time>
      </trkpt>
      <trkpt lat="48.10219" lon="7.08148">
        <ele>1016</ele>
        <time>2015-07-08T11:43:05.1Z</time>
      </trkpt>
      <trkpt lat="48.10216" lon="7.08162">
        <ele>1016</ele>
        <time>2015-07-08T11:43:08.1Z</time>
      </trkpt>
      <trkpt lat="48.10214" lon="7.08177">
        <ele>1017</ele>
        <time>2015-07-08T11:43:11.1Z</time>
      </trkpt>
      <trkpt lat="48.10213" lon="7.08186">
        <ele>1016</ele>
        <time>2015-07-08T11:43:13.1Z</time>
      </trkpt>
      <trkpt lat="48.10212" lon="7.08196">
        <ele>1016</ele>
        <time>2015-07-08T11:43:15.1Z</time>
      </trkpt>
      <trkpt lat="48.10213" lon="7.08211">
        <ele>1017</ele>
        <time>2015-07-08T11:43:18.1Z</time>
      </trkpt>
      <trkpt lat="48.10215" lon="7.08226">
        <ele>1017</ele>
        <time>2015-07-08T11:43:21.1Z</time>
      </trkpt>
      <trkpt lat="48.10217" lon="7.08236">
        <ele>1017</ele>
        <time>2015-07-08T11:43:23.1Z</time>
      </trkpt>
      <trkpt lat="48.10218" lon="7.08246">
        <ele>1017</ele>
        <time>2015-07-08T11:43:25.1Z</time>
      </trkpt>
      <trkpt lat="48.10221" lon="7.08255">
        <ele>1017</ele>
        <time>2015-07-08T11:43:27.1Z</time>
      </trkpt>
      <trkpt lat="48.10224" lon="7.08266">
        <ele>1017</ele>
        <time>2015-07-08T11:43:29.1Z</time>
      </trkpt>
      <trkpt lat="48.10227" lon="7.08275">
        <ele>1017</ele>
        <time>2015-07-08T11:43:31.1Z</time>
      </trkpt>
      <trkpt lat="48.10229" lon="7.08284">
        <ele>1018</ele>
        <time>2015-07-08T11:43:33.1Z</time>
      </trkpt>
      <trkpt lat="48.10231" lon="7.08294">
        <ele>1018</ele>
        <time>2015-07-08T11:43:36.1Z</time>
      </trkpt>
      <trkpt lat="48.1023" lon="7.08304">
        <ele>1018</ele>
        <time>2015-07-08T11:43:39.1Z</time>
      </trkpt>
      <trkpt lat="48.10229" lon="7.08319">
        <ele>1018</ele>
        <time>2015-07-08T11:43:42.1Z</time>
      </trkpt>
      <trkpt lat="48.10229" lon="7.0833">
        <ele>1019</ele>
        <time>2015-07-08T11:43:44.1Z</time>
      </trkpt>
      <trkpt lat="48.10232" lon="7.08343">
        <ele>1019</ele>
        <time>2015-07-08T11:43:46.1Z</time>
      </trkpt>
      <trkpt lat="48.10233" lon="7.08356">
        <ele>1020</ele>
        <time>2015-07-08T11:43:48.1Z</time>
      </trkpt>
      <trkpt lat="48.10231" lon="7.08377">
        <ele>1020</ele>
        <time>2015-07-08T11:43:51.1Z</time>
      </trkpt>
      <trkpt lat="48.1023" lon="7.08392">
        <ele>1022</ele>
        <time>2015-07-08T11:43:53.1Z</time>
      </trkpt>
      <trkpt lat="48.10228" lon="7.08416">
        <ele>1022</ele>
        <time>2015-07-08T11:43:56.1Z</time>
      </trkpt>
      <trkpt lat="48.10226" lon="7.08437">
        <ele>1022</ele>
        <time>2015-07-08T11:43:59.1Z</time>
      </trkpt>
      <trkpt lat="48.10223" lon="7.08448">
        <ele>1022</ele>
        <time>2015-07-08T11:44:01.1Z</time>
      </trkpt>
      <trkpt lat="48.10218" lon="7.0846">
        <ele>1022</ele>
        <time>2015-07-08T11:44:03.1Z</time>
      </trkpt>
      <trkpt lat="48.10212" lon="7.08479">
        <ele>1023</ele>
        <time>2015-07-08T11:44:06.1Z</time>
      </trkpt>
      <trkpt lat="48.10209" lon="7.08491">
        <ele>1023</ele>
        <time>2015-07-08T11:44:08.1Z</time>
      </trkpt>
      <trkpt lat="48.10207" lon="7.08504">
        <ele>1023</ele>
        <time>2015-07-08T11:44:10.1Z</time>
      </trkpt>
      <trkpt lat="48.10201" lon="7.08521">
        <ele>1023</ele>
        <time>2015-07-08T11:44:13.1Z</time>
      </trkpt>
      <trkpt lat="48.10197" lon="7.08533">
        <ele>1023</ele>
        <time>2015-07-08T11:44:15.1Z</time>
      </trkpt>
      <trkpt lat="48.10193" lon="7.08546">
        <ele>1024</ele>
        <time>2015-07-08T11:44:17.1Z</time>
      </trkpt>
      <trkpt lat="48.10189" lon="7.08564">
        <ele>1024</ele>
        <time>2015-07-08T11:44:20.1Z</time>
      </trkpt>
      <trkpt lat="48.10186" lon="7.08582">
        <ele>1024</ele>
        <time>2015-07-08T11:44:23.1Z</time>
      </trkpt>
      <trkpt lat="48.10184" lon="7.08601">
        <ele>1025</ele>
        <time>2015-07-08T11:44:26.1Z</time>
      </trkpt>
      <trkpt lat="48.10183" lon="7.08619">
        <ele>1025</ele>
        <time>2015-07-08T11:44:29.1Z</time>
      </trkpt>
      <trkpt lat="48.10184" lon="7.08632">
        <ele>1026</ele>
        <time>2015-07-08T11:44:31.1Z</time>
      </trkpt>
      <trkpt lat="48.10183" lon="7.08645">
        <ele>1026</ele>
        <time>2015-07-08T11:44:33.1Z</time>
      </trkpt>
      <trkpt lat="48.10181" lon="7.08666">
        <ele>1027</ele>
        <time>2015-07-08T11:44:36.1Z</time>
      </trkpt>
      <trkpt lat="48.10179" lon="7.0868">
        <ele>1027</ele>
        <time>2015-07-08T11:44:38.1Z</time>
      </trkpt>
      <trkpt lat="48.10176" lon="7.08702">
        <ele>1027</ele>
        <time>2015-07-08T11:44:41.1Z</time>
      </trkpt>
      <trkpt lat="48.10173" lon="7.08716">
        <ele>1027</ele>
        <time>2015-07-08T11:44:43.1Z</time>
      </trkpt>
      <trkpt lat="48.10169" lon="7.08731">
        <ele>1027</ele>
        <time>2015-07-08T11:44:45.1Z</time>
      </trkpt>
      <trkpt lat="48.10165" lon="7.08753">
        <ele>1027</ele>
        <time>2015-07-08T11:44:48.1Z</time>
      </trkpt>
      <trkpt lat="48.10162" lon="7.08776">
        <ele>1026</ele>
        <time>2015-07-08T11:44:51.1Z</time>
      </trkpt>
      <trkpt lat="48.1016" lon="7.0879">
        <ele>1026</ele>
        <time>2015-07-08T11:44:53.1Z</time>
      </trkpt>
      <trkpt lat="48.10157" lon="7.08803">
        <ele>1026</ele>
        <time>2015-07-08T11:44:55.1Z</time>
      </trkpt>
      <trkpt lat="48.10152" lon="7.08821">
        <ele>1026</ele>
        <time>2015-07-08T11:44:58.1Z</time>
      </trkpt>
      <trkpt lat="48.1015" lon="7.08836">
        <ele>1025</ele>
        <time>2015-07-08T11:45:01.1Z</time>
      </trkpt>
      <trkpt lat="48.10144" lon="7.08852">
        <ele>1026</ele>
        <time>2015-07-08T11:45:04.1Z</time>
      </trkpt>
      <trkpt lat="48.1014" lon="7.08862">
        <ele>1026</ele>
        <time>2015-07-08T11:45:06.1Z</time>
      </trkpt>
      <trkpt lat="48.10135" lon="7.08872">
        <ele>1026</ele>
        <time>2015-07-08T11:45:08.1Z</time>
      </trkpt>
      <trkpt lat="48.10129" lon="7.08888">
        <ele>1027</ele>
        <time>2015-07-08T11:45:11.1Z</time>
      </trkpt>
      <trkpt lat="48.10125" lon="7.08898">
        <ele>1027</ele>
        <time>2015-07-08T11:45:13.1Z</time>
      </trkpt>
      <trkpt lat="48.10121" lon="7.08909">
        <ele>1027</ele>
        <time>2015-07-08T11:45:15.1Z</time>
      </trkpt>
      <trkpt lat="48.10117" lon="7.08919">
        <ele>1027</ele>
        <time>2015-07-08T11:45:17.1Z</time>
      </trkpt>
      <trkpt lat="48.10109" lon="7.08937">
        <ele>1026</ele>
        <time>2015-07-08T11:45:20.1Z</time>
      </trkpt>
      <trkpt lat="48.10105" lon="7.08949">
        <ele>1026</ele>
        <time>2015-07-08T11:45:22.1Z</time>
      </trkpt>
      <trkpt lat="48.10101" lon="7.08958">
        <ele>1025</ele>
        <time>2015-07-08T11:45:24.1Z</time>
      </trkpt>
      <trkpt lat="48.101" lon="7.08965">
        <ele>1025</ele>
        <time>2015-07-08T11:45:27.1Z</time>
      </trkpt>
      <trkpt lat="48.10099" lon="7.08968">
        <ele>1025</ele>
        <time>2015-07-08T11:45:29.1Z</time>
      </trkpt>
      <trkpt lat="48.10102" lon="7.08963">
        <ele>1025</ele>
        <time>2015-07-08T11:45:31.1Z</time>
      </trkpt>
      <trkpt lat="48.10101" lon="7.08969">
        <ele>1025</ele>
        <time>2015-07-08T11:45:34.1Z</time>
      </trkpt>
      <trkpt lat="48.10101" lon="7.08974">
        <ele>1025</ele>
        <time>2015-07-08T11:45:36.1Z</time>
      </trkpt>
      <trkpt lat="48.10102" lon="7.08977">
        <ele>1025</ele>
        <time>2015-07-08T11:45:38.1Z</time>
      </trkpt>
      <trkpt lat="48.10104" lon="7.08982">
        <ele>1026</ele>
        <time>2015-07-08T11:45:40.1Z</time>
      </trkpt>
      <trkpt lat="48.10105" lon="7.08985">
        <ele>1026</ele>
        <time>2015-07-08T11:45:42.1Z</time>
      </trkpt>
      <trkpt lat="48.10108" lon="7.08988">
        <ele>1027</ele>
        <time>2015-07-08T11:45:44.1Z</time>
      </trkpt>
      <trkpt lat="48.10109" lon="7.08995">
        <ele>1028</ele>
        <time>2015-07-08T11:45:47.1Z</time>
      </trkpt>
      <trkpt lat="48.1011" lon="7.08998">
        <ele>1029</ele>
        <time>2015-07-08T11:45:50.1Z</time>
      </trkpt>
      <trkpt lat="48.1011" lon="7.08999">
        <ele>1030</ele>
        <time>2015-07-08T11:45:53.1Z</time>
      </trkpt>
      <trkpt lat="48.1011" lon="7.08999">
        <ele>1029</ele>
        <time>2015-07-08T11:45:57.1Z</time>
      </trkpt>
      <trkpt lat="48.1011" lon="7.08999">
        <ele>1029</ele>
        <time>2015-07-08T11:45:59.1Z</time>
      </trkpt>
      <trkpt lat="48.10111" lon="7.09">
        <ele>1029</ele>
        <time>2015-07-08T11:46:03.1Z</time>
      </trkpt>
      <trkpt lat="48.10111" lon="7.09">
        <ele>1029</ele>
        <time>2015-07-08T11:46:06.1Z</time>
      </trkpt>
      <trkpt lat="48.10111" lon="7.09">
        <ele>1029</ele>
        <time>2015-07-08T11:46:09.1Z</time>
      </trkpt>
      <trkpt lat="48.10111" lon="7.08999">
        <ele>1029</ele>
        <time>2015-07-08T11:46:12.1Z</time>
      </trkpt>
      <trkpt lat="48.1011" lon="7.08999">
        <ele>1029</ele>
        <time>2015-07-08T11:46:14.1Z</time>
      </trkpt>
      <trkpt lat="48.1011" lon="7.09">
        <ele>1029</ele>
        <time>2015-07-08T11:46:17.1Z</time>
      </trkpt>
      <trkpt lat="48.1011" lon="7.08999">
        <ele>1029</ele>
        <time>2015-07-08T11:46:20.1Z</time>
      </trkpt>
      <trkpt lat="48.1011" lon="7.08998">
        <ele>1029</ele>
        <time>2015-07-08T11:46:23.1Z</time>
      </trkpt>
      <trkpt lat="48.1011" lon="7.08998">
        <ele>1029</ele>
        <time>2015-07-08T11:46:27.1Z</time>
      </trkpt>
      <trkpt lat="48.1011" lon="7.08998">
        <ele>1030</ele>
        <time>2015-07-08T11:46:30.1Z</time>
      </trkpt>
      <trkpt lat="48.1011" lon="7.08995">
        <ele>1030</ele>
        <time>2015-07-08T11:46:33.1Z</time>
      </trkpt>
      <trkpt lat="48.10106" lon="7.08988">
        <ele>1030</ele>
        <time>2015-07-08T11:46:36.1Z</time>
      </trkpt>
      <trkpt lat="48.10102" lon="7.08979">
        <ele>1029</ele>
        <time>2015-07-08T11:46:38.1Z</time>
      </trkpt>
      <trkpt lat="48.10102" lon="7.08969">
        <ele>1029</ele>
        <time>2015-07-08T11:46:40.1Z</time>
      </trkpt>
      <trkpt lat="48.10107" lon="7.08958">
        <ele>1027</ele>
        <time>2015-07-08T11:46:43.1Z</time>
      </trkpt>
      <trkpt lat="48.10111" lon="7.08946">
        <ele>1027</ele>
        <time>2015-07-08T11:46:46.1Z</time>
      </trkpt>
      <trkpt lat="48.10115" lon="7.08938">
        <ele>1027</ele>
        <time>2015-07-08T11:46:48.1Z</time>
      </trkpt>
      <trkpt lat="48.10118" lon="7.08929">
        <ele>1027</ele>
        <time>2015-07-08T11:46:50.1Z</time>
      </trkpt>
      <trkpt lat="48.10124" lon="7.08916">
        <ele>1028</ele>
        <time>2015-07-08T11:46:53.1Z</time>
      </trkpt>
      <trkpt lat="48.10128" lon="7.08907">
        <ele>1028</ele>
        <time>2015-07-08T11:46:55.1Z</time>
      </trkpt>
      <trkpt lat="48.10131" lon="7.08897">
        <ele>1029</ele>
        <time>2015-07-08T11:46:57.1Z</time>
      </trkpt>
      <trkpt lat="48.10138" lon="7.08882">
        <ele>1030</ele>
        <time>2015-07-08T11:47:00.1Z</time>
      </trkpt>
      <trkpt lat="48.10142" lon="7.08873">
        <ele>1030</ele>
        <time>2015-07-08T11:47:02.1Z</time>
      </trkpt>
      <trkpt lat="48.10146" lon="7.08864">
        <ele>1030</ele>
        <time>2015-07-08T11:47:04.1Z</time>
      </trkpt>
      <trkpt lat="48.10151" lon="7.08848">
        <ele>1030</ele>
        <time>2015-07-08T11:47:07.1Z</time>
      </trkpt>
      <trkpt lat="48.10153" lon="7.08837">
        <ele>1030</ele>
        <time>2015-07-08T11:47:09.1Z</time>
      </trkpt>
      <trkpt lat="48.10154" lon="7.08819">
        <ele>1030</ele>
        <time>2015-07-08T11:47:12.1Z</time>
      </trkpt>
      <trkpt lat="48.10158" lon="7.08805">
        <ele>1030</ele>
        <time>2015-07-08T11:47:15.1Z</time>
      </trkpt>
      <trkpt lat="48.10162" lon="7.08796">
        <ele>1030</ele>
        <time>2015-07-08T11:47:17.1Z</time>
      </trkpt>
      <trkpt lat="48.10164" lon="7.08788">
        <ele>1029</ele>
        <time>2015-07-08T11:47:19.1Z</time>
      </trkpt>
      <trkpt lat="48.10166" lon="7.0878">
        <ele>1029</ele>
        <time>2015-07-08T11:47:22.1Z</time>
      </trkpt>
      <trkpt lat="48.10168" lon="7.08773">
        <ele>1029</ele>
        <time>2015-07-08T11:47:25.1Z</time>
      </trkpt>
      <trkpt lat="48.10171" lon="7.08768">
        <ele>1030</ele>
        <time>2015-07-08T11:47:28.1Z</time>
      </trkpt>
      <trkpt lat="48.10175" lon="7.08762">
        <ele>1031</ele>
        <time>2015-07-08T11:47:31.1Z</time>
      </trkpt>
      <trkpt lat="48.10177" lon="7.08759">
        <ele>1031</ele>
        <time>2015-07-08T11:47:33.1Z</time>
      </trkpt>
      <trkpt lat="48.10179" lon="7.08755">
        <ele>1032</ele>
        <time>2015-07-08T11:47:35.1Z</time>
      </trkpt>
      <trkpt lat="48.10182" lon="7.08752">
        <ele>1032</ele>
        <time>2015-07-08T11:47:37.1Z</time>
      </trkpt>
      <trkpt lat="48.10184" lon="7.08748">
        <ele>1033</ele>
        <time>2015-07-08T11:47:39.1Z</time>
      </trkpt>
      <trkpt lat="48.10186" lon="7.08744">
        <ele>1033</ele>
        <time>2015-07-08T11:47:41.1Z</time>
      </trkpt>
      <trkpt lat="48.10187" lon="7.08741">
        <ele>1034</ele>
        <time>2015-07-08T11:47:43.1Z</time>
      </trkpt>
      <trkpt lat="48.1019" lon="7.08735">
        <ele>1034</ele>
        <time>2015-07-08T11:47:46.1Z</time>
      </trkpt>
      <trkpt lat="48.10192" lon="7.0873">
        <ele>1035</ele>
        <time>2015-07-08T11:47:48.1Z</time>
      </trkpt>
      <trkpt lat="48.10195" lon="7.08726">
        <ele>1035</ele>
        <time>2015-07-08T11:47:50.1Z</time>
      </trkpt>
      <trkpt lat="48.10197" lon="7.08722">
        <ele>1035</ele>
        <time>2015-07-08T11:47:52.1Z</time>
      </trkpt>
      <trkpt lat="48.10201" lon="7.08715">
        <ele>1036</ele>
        <time>2015-07-08T11:47:55.1Z</time>
      </trkpt>
      <trkpt lat="48.10203" lon="7.08711">
        <ele>1037</ele>
        <time>2015-07-08T11:47:57.1Z</time>
      </trkpt>
      <trkpt lat="48.10205" lon="7.08708">
        <ele>1037</ele>
        <time>2015-07-08T11:47:59.1Z</time>
      </trkpt>
      <trkpt lat="48.10206" lon="7.08705">
        <ele>1037</ele>
        <time>2015-07-08T11:48:03.1Z</time>
      </trkpt>
      <trkpt lat="48.10206" lon="7.08704">
        <ele>1037</ele>
        <time>2015-07-08T11:48:05.1Z</time>
      </trkpt>
      <trkpt lat="48.10207" lon="7.08702">
        <ele>1038</ele>
        <time>2015-07-08T11:48:08.1Z</time>
      </trkpt>
      <trkpt lat="48.10208" lon="7.08702">
        <ele>1038</ele>
        <time>2015-07-08T11:48:10.1Z</time>
      </trkpt>
      <trkpt lat="48.10209" lon="7.08701">
        <ele>1038</ele>
        <time>2015-07-08T11:48:12.1Z</time>
      </trkpt>
      <trkpt lat="48.1021" lon="7.087">
        <ele>1039</ele>
        <time>2015-07-08T11:48:15.1Z</time>
      </trkpt>
      <trkpt lat="48.10214" lon="7.08697">
        <ele>1040</ele>
        <time>2015-07-08T11:48:18.1Z</time>
      </trkpt>
      <trkpt lat="48.10215" lon="7.08693">
        <ele>1040</ele>
        <time>2015-07-08T11:48:21.1Z</time>
      </trkpt>
      <trkpt lat="48.10217" lon="7.08686">
        <ele>1040</ele>
        <time>2015-07-08T11:48:24.1Z</time>
      </trkpt>
      <trkpt lat="48.10219" lon="7.0868">
        <ele>1041</ele>
        <time>2015-07-08T11:48:26.1Z</time>
      </trkpt>
      <trkpt lat="48.10221" lon="7.08673">
        <ele>1042</ele>
        <time>2015-07-08T11:48:28.1Z</time>
      </trkpt>
      <trkpt lat="48.10224" lon="7.08661">
        <ele>1042</ele>
        <time>2015-07-08T11:48:31.1Z</time>
      </trkpt>
      <trkpt lat="48.10228" lon="7.08647">
        <ele>1043</ele>
        <time>2015-07-08T11:48:34.1Z</time>
      </trkpt>
      <trkpt lat="48.1023" lon="7.08637">
        <ele>1044</ele>
        <time>2015-07-08T11:48:36.1Z</time>
      </trkpt>
      <trkpt lat="48.10235" lon="7.08623">
        <ele>1045</ele>
        <time>2015-07-08T11:48:39.1Z</time>
      </trkpt>
      <trkpt lat="48.10239" lon="7.08611">
        <ele>1046</ele>
        <time>2015-07-08T11:48:42.1Z</time>
      </trkpt>
      <trkpt lat="48.10241" lon="7.08604">
        <ele>1046</ele>
        <time>2015-07-08T11:48:44.1Z</time>
      </trkpt>
      <trkpt lat="48.10243" lon="7.08599">
        <ele>1047</ele>
        <time>2015-07-08T11:48:46.1Z</time>
      </trkpt>
      <trkpt lat="48.10245" lon="7.08595">
        <ele>1047</ele>
        <time>2015-07-08T11:48:49.1Z</time>
      </trkpt>
      <trkpt lat="48.10247" lon="7.0859">
        <ele>1047</ele>
        <time>2015-07-08T11:48:52.1Z</time>
      </trkpt>
      <trkpt lat="48.10248" lon="7.08582">
        <ele>1048</ele>
        <time>2015-07-08T11:48:55.1Z</time>
      </trkpt>
      <trkpt lat="48.1025" lon="7.08574">
        <ele>1049</ele>
        <time>2015-07-08T11:48:58.1Z</time>
      </trkpt>
      <trkpt lat="48.10252" lon="7.08568">
        <ele>1049</ele>
        <time>2015-07-08T11:49:01.1Z</time>
      </trkpt>
      <trkpt lat="48.10254" lon="7.08564">
        <ele>1050</ele>
        <time>2015-07-08T11:49:03.1Z</time>
      </trkpt>
      <trkpt lat="48.10255" lon="7.0856">
        <ele>1050</ele>
        <time>2015-07-08T11:49:05.1Z</time>
      </trkpt>
      <trkpt lat="48.10256" lon="7.08558">
        <ele>1051</ele>
        <time>2015-07-08T11:49:07.1Z</time>
      </trkpt>
      <trkpt lat="48.10256" lon="7.0856">
        <ele>1051</ele>
        <time>2015-07-08T11:49:10.1Z</time>
      </trkpt>
      <trkpt lat="48.10256" lon="7.08566">
        <ele>1052</ele>
        <time>2015-07-08T11:49:13.1Z</time>
      </trkpt>
      <trkpt lat="48.10257" lon="7.08569">
        <ele>1052</ele>
        <time>2015-07-08T11:49:15.1Z</time>
      </trkpt>
      <trkpt lat="48.10255" lon="7.08577">
        <ele>1052</ele>
        <time>2015-07-08T11:49:18.1Z</time>
      </trkpt>
      <trkpt lat="48.10255" lon="7.08585">
        <ele>1053</ele>
        <time>2015-07-08T11:49:21.1Z</time>
      </trkpt>
      <trkpt lat="48.10255" lon="7.08591">
        <ele>1053</ele>
        <time>2015-07-08T11:49:23.1Z</time>
      </trkpt>
      <trkpt lat="48.10256" lon="7.08598">
        <ele>1053</ele>
        <time>2015-07-08T11:49:26.1Z</time>
      </trkpt>
      <trkpt lat="48.10256" lon="7.08602">
        <ele>1053</ele>
        <time>2015-07-08T11:49:28.1Z</time>
      </trkpt>
      <trkpt lat="48.10257" lon="7.08608">
        <ele>1053</ele>
        <time>2015-07-08T11:49:30.1Z</time>
      </trkpt>
      <trkpt lat="48.10256" lon="7.08613">
        <ele>1053</ele>
        <time>2015-07-08T11:49:32.1Z</time>
      </trkpt>
      <trkpt lat="48.10255" lon="7.08621">
        <ele>1053</ele>
        <time>2015-07-08T11:49:35.1Z</time>
      </trkpt>
      <trkpt lat="48.10255" lon="7.08626">
        <ele>1053</ele>
        <time>2015-07-08T11:49:37.1Z</time>
      </trkpt>
      <trkpt lat="48.10255" lon="7.08632">
        <ele>1053</ele>
        <time>2015-07-08T11:49:39.1Z</time>
      </trkpt>
      <trkpt lat="48.10255" lon="7.08638">
        <ele>1053</ele>
        <time>2015-07-08T11:49:41.1Z</time>
      </trkpt>
      <trkpt lat="48.10255" lon="7.08643">
        <ele>1053</ele>
        <time>2015-07-08T11:49:43.1Z</time>
      </trkpt>
      <trkpt lat="48.10256" lon="7.0865">
        <ele>1053</ele>
        <time>2015-07-08T11:49:46.1Z</time>
      </trkpt>
      <trkpt lat="48.10257" lon="7.08656">
        <ele>1054</ele>
        <time>2015-07-08T11:49:48.1Z</time>
      </trkpt>
      <trkpt lat="48.10258" lon="7.08663">
        <ele>1053</ele>
        <time>2015-07-08T11:49:50.1Z</time>
      </trkpt>
      <trkpt lat="48.1026" lon="7.0867">
        <ele>1053</ele>
        <time>2015-07-08T11:49:52.1Z</time>
      </trkpt>
      <trkpt lat="48.10259" lon="7.08676">
        <ele>1053</ele>
        <time>2015-07-08T11:49:54.1Z</time>
      </trkpt>
      <trkpt lat="48.10257" lon="7.08688">
        <ele>1053</ele>
        <time>2015-07-08T11:49:57.1Z</time>
      </trkpt>
      <trkpt lat="48.10254" lon="7.08696">
        <ele>1053</ele>
        <time>2015-07-08T11:49:59.1Z</time>
      </trkpt>
      <trkpt lat="48.10252" lon="7.08703">
        <ele>1053</ele>
        <time>2015-07-08T11:50:01.1Z</time>
      </trkpt>
      <trkpt lat="48.1025" lon="7.08713">
        <ele>1053</ele>
        <time>2015-07-08T11:50:03.1Z</time>
      </trkpt>
      <trkpt lat="48.10248" lon="7.08729">
        <ele>1053</ele>
        <time>2015-07-08T11:50:06.1Z</time>
      </trkpt>
      <trkpt lat="48.10247" lon="7.08739">
        <ele>1053</ele>
        <time>2015-07-08T11:50:08.1Z</time>
      </trkpt>
      <trkpt lat="48.10247" lon="7.08752">
        <ele>1053</ele>
        <time>2015-07-08T11:50:11.1Z</time>
      </trkpt>
      <trkpt lat="48.10246" lon="7.0876">
        <ele>1053</ele>
        <time>2015-07-08T11:50:14.1Z</time>
      </trkpt>
      <trkpt lat="48.10245" lon="7.0877">
        <ele>1053</ele>
        <time>2015-07-08T11:50:17.1Z</time>
      </trkpt>
      <trkpt lat="48.10244" lon="7.08776">
        <ele>1053</ele>
        <time>2015-07-08T11:50:19.1Z</time>
      </trkpt>
      <trkpt lat="48.10244" lon="7.08787">
        <ele>1053</ele>
        <time>2015-07-08T11:50:22.1Z</time>
      </trkpt>
      <trkpt lat="48.10243" lon="7.08801">
        <ele>1053</ele>
        <time>2015-07-08T11:50:25.1Z</time>
      </trkpt>
      <trkpt lat="48.10242" lon="7.0881">
        <ele>1054</ele>
        <time>2015-07-08T11:50:27.1Z</time>
      </trkpt>
      <trkpt lat="48.10239" lon="7.08824">
        <ele>1055</ele>
        <time>2015-07-08T11:50:30.1Z</time>
      </trkpt>
      <trkpt lat="48.10239" lon="7.08835">
        <ele>1055</ele>
        <time>2015-07-08T11:50:32.1Z</time>
      </trkpt>
      <trkpt lat="48.10239" lon="7.0885">
        <ele>1055</ele>
        <time>2015-07-08T11:50:35.1Z</time>
      </trkpt>
      <trkpt lat="48.10239" lon="7.08864">
        <ele>1056</ele>
        <time>2015-07-08T11:50:38.1Z</time>
      </trkpt>
      <trkpt lat="48.10237" lon="7.08871">
        <ele>1056</ele>
        <time>2015-07-08T11:50:40.1Z</time>
      </trkpt>
      <trkpt lat="48.10236" lon="7.08877">
        <ele>1056</ele>
        <time>2015-07-08T11:50:43.1Z</time>
      </trkpt>
      <trkpt lat="48.10236" lon="7.08882">
        <ele>1057</ele>
        <time>2015-07-08T11:50:45.1Z</time>
      </trkpt>
      <trkpt lat="48.10235" lon="7.08889">
        <ele>1057</ele>
        <time>2015-07-08T11:50:47.1Z</time>
      </trkpt>
      <trkpt lat="48.10233" lon="7.08894">
        <ele>1056</ele>
        <time>2015-07-08T11:50:49.1Z</time>
      </trkpt>
      <trkpt lat="48.10233" lon="7.08904">
        <ele>1056</ele>
        <time>2015-07-08T11:50:52.1Z</time>
      </trkpt>
      <trkpt lat="48.10233" lon="7.08911">
        <ele>1056</ele>
        <time>2015-07-08T11:50:54.1Z</time>
      </trkpt>
      <trkpt lat="48.10233" lon="7.0892">
        <ele>1056</ele>
        <time>2015-07-08T11:50:56.1Z</time>
      </trkpt>
      <trkpt lat="48.10233" lon="7.08934">
        <ele>1058</ele>
        <time>2015-07-08T11:50:59.1Z</time>
      </trkpt>
      <trkpt lat="48.10231" lon="7.08949">
        <ele>1059</ele>
        <time>2015-07-08T11:51:02.1Z</time>
      </trkpt>
      <trkpt lat="48.1023" lon="7.08963">
        <ele>1060</ele>
        <time>2015-07-08T11:51:05.1Z</time>
      </trkpt>
      <trkpt lat="48.10228" lon="7.08971">
        <ele>1060</ele>
        <time>2015-07-08T11:51:07.1Z</time>
      </trkpt>
      <trkpt lat="48.10227" lon="7.0898">
        <ele>1059</ele>
        <time>2015-07-08T11:51:10.1Z</time>
      </trkpt>
      <trkpt lat="48.10226" lon="7.08992">
        <ele>1059</ele>
        <time>2015-07-08T11:51:13.1Z</time>
      </trkpt>
      <trkpt lat="48.10225" lon="7.08998">
        <ele>1058</ele>
        <time>2015-07-08T11:51:15.1Z</time>
      </trkpt>
      <trkpt lat="48.10224" lon="7.09006">
        <ele>1058</ele>
        <time>2015-07-08T11:51:18.1Z</time>
      </trkpt>
      <trkpt lat="48.10223" lon="7.09013">
        <ele>1059</ele>
        <time>2015-07-08T11:51:20.1Z</time>
      </trkpt>
      <trkpt lat="48.10222" lon="7.09024">
        <ele>1060</ele>
        <time>2015-07-08T11:51:23.1Z</time>
      </trkpt>
      <trkpt lat="48.1022" lon="7.09036">
        <ele>1059</ele>
        <time>2015-07-08T11:51:26.1Z</time>
      </trkpt>
      <trkpt lat="48.10219" lon="7.09044">
        <ele>1059</ele>
        <time>2015-07-08T11:51:28.1Z</time>
      </trkpt>
      <trkpt lat="48.10218" lon="7.09056">
        <ele>1058</ele>
        <time>2015-07-08T11:51:31.1Z</time>
      </trkpt>
      <trkpt lat="48.10218" lon="7.09069">
        <ele>1059</ele>
        <time>2015-07-08T11:51:34.1Z</time>
      </trkpt>
      <trkpt lat="48.10218" lon="7.09076">
        <ele>1059</ele>
        <time>2015-07-08T11:51:36.1Z</time>
      </trkpt>
      <trkpt lat="48.10218" lon="7.09088">
        <ele>1059</ele>
        <time>2015-07-08T11:51:39.1Z</time>
      </trkpt>
      <trkpt lat="48.1022" lon="7.091">
        <ele>1058</ele>
        <time>2015-07-08T11:51:42.1Z</time>
      </trkpt>
      <trkpt lat="48.1022" lon="7.09109">
        <ele>1057</ele>
        <time>2015-07-08T11:51:44.1Z</time>
      </trkpt>
      <trkpt lat="48.10222" lon="7.0912">
        <ele>1057</ele>
        <time>2015-07-08T11:51:47.1Z</time>
      </trkpt>
      <trkpt lat="48.10222" lon="7.0913">
        <ele>1058</ele>
        <time>2015-07-08T11:51:50.1Z</time>
      </trkpt>
      <trkpt lat="48.10223" lon="7.09137">
        <ele>1058</ele>
        <time>2015-07-08T11:51:52.1Z</time>
      </trkpt>
      <trkpt lat="48.10224" lon="7.09147">
        <ele>1058</ele>
        <time>2015-07-08T11:51:54.1Z</time>
      </trkpt>
      <trkpt lat="48.10224" lon="7.09157">
        <ele>1058</ele>
        <time>2015-07-08T11:51:56.1Z</time>
      </trkpt>
      <trkpt lat="48.10225" lon="7.09166">
        <ele>1058</ele>
        <time>2015-07-08T11:51:58.1Z</time>
      </trkpt>
      <trkpt lat="48.10226" lon="7.09175">
        <ele>1058</ele>
        <time>2015-07-08T11:52:00.1Z</time>
      </trkpt>
      <trkpt lat="48.10232" lon="7.09188">
        <ele>1059</ele>
        <time>2015-07-08T11:52:03.1Z</time>
      </trkpt>
      <trkpt lat="48.10235" lon="7.09197">
        <ele>1059</ele>
        <time>2015-07-08T11:52:05.1Z</time>
      </trkpt>
      <trkpt lat="48.10239" lon="7.09205">
        <ele>1060</ele>
        <time>2015-07-08T11:52:07.1Z</time>
      </trkpt>
      <trkpt lat="48.10243" lon="7.09213">
        <ele>1060</ele>
        <time>2015-07-08T11:52:09.1Z</time>
      </trkpt>
      <trkpt lat="48.10248" lon="7.09223">
        <ele>1060</ele>
        <time>2015-07-08T11:52:12.1Z</time>
      </trkpt>
      <trkpt lat="48.10251" lon="7.0923">
        <ele>1060</ele>
        <time>2015-07-08T11:52:14.1Z</time>
      </trkpt>
      <trkpt lat="48.10255" lon="7.09238">
        <ele>1061</ele>
        <time>2015-07-08T11:52:16.1Z</time>
      </trkpt>
      <trkpt lat="48.10258" lon="7.09244">
        <ele>1061</ele>
        <time>2015-07-08T11:52:18.1Z</time>
      </trkpt>
      <trkpt lat="48.10261" lon="7.0925">
        <ele>1061</ele>
        <time>2015-07-08T11:52:20.1Z</time>
      </trkpt>
      <trkpt lat="48.10267" lon="7.09261">
        <ele>1060</ele>
        <time>2015-07-08T11:52:23.1Z</time>
      </trkpt>
      <trkpt lat="48.10269" lon="7.09266">
        <ele>1060</ele>
        <time>2015-07-08T11:52:25.1Z</time>
      </trkpt>
      <trkpt lat="48.10271" lon="7.0927">
        <ele>1060</ele>
        <time>2015-07-08T11:52:27.1Z</time>
      </trkpt>
      <trkpt lat="48.10274" lon="7.09275">
        <ele>1060</ele>
        <time>2015-07-08T11:52:29.1Z</time>
      </trkpt>
      <trkpt lat="48.10279" lon="7.09284">
        <ele>1060</ele>
        <time>2015-07-08T11:52:32.1Z</time>
      </trkpt>
      <trkpt lat="48.10281" lon="7.09289">
        <ele>1060</ele>
        <time>2015-07-08T11:52:34.1Z</time>
      </trkpt>
      <trkpt lat="48.10284" lon="7.09293">
        <ele>1060</ele>
        <time>2015-07-08T11:52:36.1Z</time>
      </trkpt>
      <trkpt lat="48.10288" lon="7.09299">
        <ele>1060</ele>
        <time>2015-07-08T11:52:38.1Z</time>
      </trkpt>
      <trkpt lat="48.10293" lon="7.09305">
        <ele>1061</ele>
        <time>2015-07-08T11:52:40.1Z</time>
      </trkpt>
      <trkpt lat="48.10298" lon="7.09314">
        <ele>1061</ele>
        <time>2015-07-08T11:52:43.1Z</time>
      </trkpt>
      <trkpt lat="48.10303" lon="7.09321">
        <ele>1061</ele>
        <time>2015-07-08T11:52:45.1Z</time>
      </trkpt>
      <trkpt lat="48.10309" lon="7.09327">
        <ele>1061</ele>
        <time>2015-07-08T11:52:47.1Z</time>
      </trkpt>
      <trkpt lat="48.10313" lon="7.09333">
        <ele>1060</ele>
        <time>2015-07-08T11:52:49.1Z</time>
      </trkpt>
      <trkpt lat="48.10318" lon="7.0934">
        <ele>1061</ele>
        <time>2015-07-08T11:52:52.1Z</time>
      </trkpt>
      <trkpt lat="48.10323" lon="7.09344">
        <ele>1061</ele>
        <time>2015-07-08T11:52:54.1Z</time>
      </trkpt>
      <trkpt lat="48.10328" lon="7.09351">
        <ele>1061</ele>
        <time>2015-07-08T11:52:56.1Z</time>
      </trkpt>
      <trkpt lat="48.10334" lon="7.09358">
        <ele>1061</ele>
        <time>2015-07-08T11:52:58.1Z</time>
      </trkpt>
      <trkpt lat="48.10339" lon="7.09364">
        <ele>1061</ele>
        <time>2015-07-08T11:53:00.1Z</time>
      </trkpt>
      <trkpt lat="48.10348" lon="7.09373">
        <ele>1062</ele>
        <time>2015-07-08T11:53:03.1Z</time>
      </trkpt>
      <trkpt lat="48.10352" lon="7.09377">
        <ele>1062</ele>
        <time>2015-07-08T11:53:05.1Z</time>
      </trkpt>
      <trkpt lat="48.10356" lon="7.0938">
        <ele>1063</ele>
        <time>2015-07-08T11:53:07.1Z</time>
      </trkpt>
      <trkpt lat="48.10359" lon="7.09382">
        <ele>1063</ele>
        <time>2015-07-08T11:53:09.1Z</time>
      </trkpt>
      <trkpt lat="48.10362" lon="7.09383">
        <ele>1064</ele>
        <time>2015-07-08T11:53:12.1Z</time>
      </trkpt>
      <trkpt lat="48.10373" lon="7.09381">
        <ele>1063</ele>
        <time>2015-07-08T11:53:14.1Z</time>
      </trkpt>
      <trkpt lat="48.10376" lon="7.09376">
        <ele>1063</ele>
        <time>2015-07-08T11:53:17.1Z</time>
      </trkpt>
      <trkpt lat="48.10383" lon="7.09374">
        <ele>1063</ele>
        <time>2015-07-08T11:53:20.1Z</time>
      </trkpt>
      <trkpt lat="48.10388" lon="7.09371">
        <ele>1063</ele>
        <time>2015-07-08T11:53:22.1Z</time>
      </trkpt>
      <trkpt lat="48.10394" lon="7.09368">
        <ele>1063</ele>
        <time>2015-07-08T11:53:25.1Z</time>
      </trkpt>
      <trkpt lat="48.10397" lon="7.09366">
        <ele>1064</ele>
        <time>2015-07-08T11:53:28.1Z</time>
      </trkpt>
      <trkpt lat="48.10402" lon="7.09364">
        <ele>1065</ele>
        <time>2015-07-08T11:53:30.1Z</time>
      </trkpt>
      <trkpt lat="48.10405" lon="7.09363">
        <ele>1065</ele>
        <time>2015-07-08T11:53:32.1Z</time>
      </trkpt>
      <trkpt lat="48.10413" lon="7.09365">
        <ele>1065</ele>
        <time>2015-07-08T11:53:35.1Z</time>
      </trkpt>
      <trkpt lat="48.10419" lon="7.09366">
        <ele>1065</ele>
        <time>2015-07-08T11:53:37.1Z</time>
      </trkpt>
      <trkpt lat="48.10426" lon="7.09368">
        <ele>1065</ele>
        <time>2015-07-08T11:53:39.1Z</time>
      </trkpt>
      <trkpt lat="48.1044" lon="7.09373">
        <ele>1064</ele>
        <time>2015-07-08T11:53:42.1Z</time>
      </trkpt>
      <trkpt lat="48.10449" lon="7.09375">
        <ele>1064</ele>
        <time>2015-07-08T11:53:44.1Z</time>
      </trkpt>
      <trkpt lat="48.10457" lon="7.09377">
        <ele>1064</ele>
        <time>2015-07-08T11:53:46.1Z</time>
      </trkpt>
      <trkpt lat="48.10465" lon="7.09379">
        <ele>1063</ele>
        <time>2015-07-08T11:53:48.1Z</time>
      </trkpt>
      <trkpt lat="48.10476" lon="7.09381">
        <ele>1064</ele>
        <time>2015-07-08T11:53:50.1Z</time>
      </trkpt>
      <trkpt lat="48.10494" lon="7.09385">
        <ele>1064</ele>
        <time>2015-07-08T11:53:53.1Z</time>
      </trkpt>
      <trkpt lat="48.10508" lon="7.09388">
        <ele>1064</ele>
        <time>2015-07-08T11:53:55.1Z</time>
      </trkpt>
      <trkpt lat="48.1052" lon="7.09392">
        <ele>1064</ele>
        <time>2015-07-08T11:53:57.1Z</time>
      </trkpt>
      <trkpt lat="48.10538" lon="7.09403">
        <ele>1064</ele>
        <time>2015-07-08T11:54:00.1Z</time>
      </trkpt>
      <trkpt lat="48.10556" lon="7.09414">
        <ele>1065</ele>
        <time>2015-07-08T11:54:02.1Z</time>
      </trkpt>
      <trkpt lat="48.10588" lon="7.09429">
        <ele>1066</ele>
        <time>2015-07-08T11:54:05.1Z</time>
      </trkpt>
      <trkpt lat="48.10611" lon="7.09435">
        <ele>1067</ele>
        <time>2015-07-08T11:54:07.1Z</time>
      </trkpt>
      <trkpt lat="48.10648" lon="7.09438">
        <ele>1064</ele>
        <time>2015-07-08T11:54:10.1Z</time>
      </trkpt>
      <trkpt lat="48.10672" lon="7.09445">
        <ele>1062</ele>
        <time>2015-07-08T11:54:13.1Z</time>
      </trkpt>
      <trkpt lat="48.10709" lon="7.0946">
        <ele>1060</ele>
        <time>2015-07-08T11:54:15.1Z</time>
      </trkpt>
      <trkpt lat="48.10734" lon="7.0947">
        <ele>1058</ele>
        <time>2015-07-08T11:54:17.1Z</time>
      </trkpt>
      <trkpt lat="48.10759" lon="7.09477">
        <ele>1056</ele>
        <time>2015-07-08T11:54:19.1Z</time>
      </trkpt>
      <trkpt lat="48.10798" lon="7.09487">
        <ele>1051</ele>
        <time>2015-07-08T11:54:22.1Z</time>
      </trkpt>
      <trkpt lat="48.10834" lon="7.09501">
        <ele>1045</ele>
        <time>2015-07-08T11:54:25.1Z</time>
      </trkpt>
      <trkpt lat="48.10857" lon="7.09503">
        <ele>1038</ele>
        <time>2015-07-08T11:54:28.1Z</time>
      </trkpt>
      <trkpt lat="48.10875" lon="7.09496">
        <ele>1031</ele>
        <time>2015-07-08T11:54:31.1Z</time>
      </trkpt>
      <trkpt lat="48.10886" lon="7.0949">
        <ele>1028</ele>
        <time>2015-07-08T11:54:33.1Z</time>
      </trkpt>
      <trkpt lat="48.10905" lon="7.09475">
        <ele>1028</ele>
        <time>2015-07-08T11:54:36.1Z</time>
      </trkpt>
      <trkpt lat="48.1092" lon="7.09463">
        <ele>1027</ele>
        <time>2015-07-08T11:54:39.1Z</time>
      </trkpt>
      <trkpt lat="48.10945" lon="7.09444">
        <ele>1027</ele>
        <time>2015-07-08T11:54:41.1Z</time>
      </trkpt>
      <trkpt lat="48.10965" lon="7.09423">
        <ele>1024</ele>
        <time>2015-07-08T11:54:44.1Z</time>
      </trkpt>
      <trkpt lat="48.10976" lon="7.09407">
        <ele>1022</ele>
        <time>2015-07-08T11:54:46.1Z</time>
      </trkpt>
      <trkpt lat="48.10989" lon="7.09376">
        <ele>1019</ele>
        <time>2015-07-08T11:54:49.1Z</time>
      </trkpt>
      <trkpt lat="48.10997" lon="7.09353">
        <ele>1017</ele>
        <time>2015-07-08T11:54:51.1Z</time>
      </trkpt>
      <trkpt lat="48.11004" lon="7.09328">
        <ele>1015</ele>
        <time>2015-07-08T11:54:53.1Z</time>
      </trkpt>
      <trkpt lat="48.11011" lon="7.09286">
        <ele>1012</ele>
        <time>2015-07-08T11:54:56.1Z</time>
      </trkpt>
      <trkpt lat="48.11015" lon="7.09257">
        <ele>1009</ele>
        <time>2015-07-08T11:54:58.1Z</time>
      </trkpt>
      <trkpt lat="48.11019" lon="7.09227">
        <ele>1007</ele>
        <time>2015-07-08T11:55:00.1Z</time>
      </trkpt>
      <trkpt lat="48.11021" lon="7.09196">
        <ele>1004</ele>
        <time>2015-07-08T11:55:02.1Z</time>
      </trkpt>
      <trkpt lat="48.11026" lon="7.09164">
        <ele>998</ele>
        <time>2015-07-08T11:55:05.1Z</time>
      </trkpt>
      <trkpt lat="48.11034" lon="7.09157">
        <ele>995</ele>
        <time>2015-07-08T11:55:07.1Z</time>
      </trkpt>
      <trkpt lat="48.11044" lon="7.0916">
        <ele>991</ele>
        <time>2015-07-08T11:55:10.1Z</time>
      </trkpt>
      <trkpt lat="48.11052" lon="7.09173">
        <ele>989</ele>
        <time>2015-07-08T11:55:12.1Z</time>
      </trkpt>
      <trkpt lat="48.11051" lon="7.09199">
        <ele>989</ele>
        <time>2015-07-08T11:55:14.1Z</time>
      </trkpt>
      <trkpt lat="48.11047" lon="7.0923">
        <ele>988</ele>
        <time>2015-07-08T11:55:17.1Z</time>
      </trkpt>
      <trkpt lat="48.11046" lon="7.09248">
        <ele>987</ele>
        <time>2015-07-08T11:55:19.1Z</time>
      </trkpt>
      <trkpt lat="48.11045" lon="7.09266">
        <ele>987</ele>
        <time>2015-07-08T11:55:21.1Z</time>
      </trkpt>
      <trkpt lat="48.11044" lon="7.09293">
        <ele>986</ele>
        <time>2015-07-08T11:55:24.1Z</time>
      </trkpt>
      <trkpt lat="48.11041" lon="7.09308">
        <ele>986</ele>
        <time>2015-07-08T11:55:26.1Z</time>
      </trkpt>
      <trkpt lat="48.1104" lon="7.09325">
        <ele>986</ele>
        <time>2015-07-08T11:55:28.1Z</time>
      </trkpt>
      <trkpt lat="48.1104" lon="7.0935">
        <ele>985</ele>
        <time>2015-07-08T11:55:31.1Z</time>
      </trkpt>
      <trkpt lat="48.11039" lon="7.09368">
        <ele>985</ele>
        <time>2015-07-08T11:55:33.1Z</time>
      </trkpt>
      <trkpt lat="48.11039" lon="7.09394">
        <ele>984</ele>
        <time>2015-07-08T11:55:36.1Z</time>
      </trkpt>
      <trkpt lat="48.11037" lon="7.09412">
        <ele>982</ele>
        <time>2015-07-08T11:55:39.1Z</time>
      </trkpt>
      <trkpt lat="48.11032" lon="7.09426">
        <ele>979</ele>
        <time>2015-07-08T11:55:42.1Z</time>
      </trkpt>
      <trkpt lat="48.11027" lon="7.09436">
        <ele>979</ele>
        <time>2015-07-08T11:55:44.1Z</time>
      </trkpt>
      <trkpt lat="48.11019" lon="7.09447">
        <ele>979</ele>
        <time>2015-07-08T11:55:46.1Z</time>
      </trkpt>
      <trkpt lat="48.11012" lon="7.09459">
        <ele>979</ele>
        <time>2015-07-08T11:55:48.1Z</time>
      </trkpt>
      <trkpt lat="48.11" lon="7.09492">
        <ele>980</ele>
        <time>2015-07-08T11:55:51.1Z</time>
      </trkpt>
      <trkpt lat="48.10991" lon="7.09522">
        <ele>980</ele>
        <time>2015-07-08T11:55:53.1Z</time>
      </trkpt>
      <trkpt lat="48.10981" lon="7.09551">
        <ele>979</ele>
        <time>2015-07-08T11:55:55.1Z</time>
      </trkpt>
      <trkpt lat="48.10976" lon="7.09601">
        <ele>976</ele>
        <time>2015-07-08T11:55:58.1Z</time>
      </trkpt>
      <trkpt lat="48.10976" lon="7.09648">
        <ele>972</ele>
        <time>2015-07-08T11:56:01.1Z</time>
      </trkpt>
      <trkpt lat="48.10976" lon="7.09677">
        <ele>970</ele>
        <time>2015-07-08T11:56:03.1Z</time>
      </trkpt>
      <trkpt lat="48.10975" lon="7.09701">
        <ele>969</ele>
        <time>2015-07-08T11:56:05.1Z</time>
      </trkpt>
      <trkpt lat="48.10973" lon="7.09734">
        <ele>967</ele>
        <time>2015-07-08T11:56:08.1Z</time>
      </trkpt>
      <trkpt lat="48.1097" lon="7.09754">
        <ele>966</ele>
        <time>2015-07-08T11:56:10.1Z</time>
      </trkpt>
      <trkpt lat="48.10963" lon="7.09777">
        <ele>965</ele>
        <time>2015-07-08T11:56:13.1Z</time>
      </trkpt>
      <trkpt lat="48.10958" lon="7.09792">
        <ele>965</ele>
        <time>2015-07-08T11:56:15.1Z</time>
      </trkpt>
      <trkpt lat="48.10953" lon="7.09807">
        <ele>965</ele>
        <time>2015-07-08T11:56:17.1Z</time>
      </trkpt>
      <trkpt lat="48.10944" lon="7.09828">
        <ele>964</ele>
        <time>2015-07-08T11:56:20.1Z</time>
      </trkpt>
      <trkpt lat="48.10937" lon="7.09841">
        <ele>964</ele>
        <time>2015-07-08T11:56:22.1Z</time>
      </trkpt>
      <trkpt lat="48.10931" lon="7.0985">
        <ele>964</ele>
        <time>2015-07-08T11:56:24.1Z</time>
      </trkpt>
      <trkpt lat="48.10916" lon="7.09866">
        <ele>963</ele>
        <time>2015-07-08T11:56:27.1Z</time>
      </trkpt>
      <trkpt lat="48.10905" lon="7.09882">
        <ele>962</ele>
        <time>2015-07-08T11:56:29.1Z</time>
      </trkpt>
      <trkpt lat="48.10901" lon="7.09905">
        <ele>962</ele>
        <time>2015-07-08T11:56:31.1Z</time>
      </trkpt>
      <trkpt lat="48.10899" lon="7.09942">
        <ele>961</ele>
        <time>2015-07-08T11:56:34.1Z</time>
      </trkpt>
      <trkpt lat="48.10896" lon="7.09966">
        <ele>960</ele>
        <time>2015-07-08T11:56:36.1Z</time>
      </trkpt>
      <trkpt lat="48.10889" lon="7.09995">
        <ele>959</ele>
        <time>2015-07-08T11:56:39.1Z</time>
      </trkpt>
      <trkpt lat="48.10882" lon="7.10008">
        <ele>957</ele>
        <time>2015-07-08T11:56:41.1Z</time>
      </trkpt>
      <trkpt lat="48.10871" lon="7.10017">
        <ele>955</ele>
        <time>2015-07-08T11:56:43.1Z</time>
      </trkpt>
      <trkpt lat="48.10859" lon="7.10028">
        <ele>953</ele>
        <time>2015-07-08T11:56:46.1Z</time>
      </trkpt>
      <trkpt lat="48.10849" lon="7.10038">
        <ele>952</ele>
        <time>2015-07-08T11:56:48.1Z</time>
      </trkpt>
      <trkpt lat="48.10835" lon="7.10061">
        <ele>950</ele>
        <time>2015-07-08T11:56:51.1Z</time>
      </trkpt>
      <trkpt lat="48.10819" lon="7.10089">
        <ele>948</ele>
        <time>2015-07-08T11:56:54.1Z</time>
      </trkpt>
      <trkpt lat="48.1081" lon="7.1011">
        <ele>947</ele>
        <time>2015-07-08T11:56:56.1Z</time>
      </trkpt>
      <trkpt lat="48.10801" lon="7.10133">
        <ele>944</ele>
        <time>2015-07-08T11:56:59.1Z</time>
      </trkpt>
      <trkpt lat="48.10799" lon="7.1014">
        <ele>941</ele>
        <time>2015-07-08T11:57:02.1Z</time>
      </trkpt>
      <trkpt lat="48.10796" lon="7.10187">
        <ele>939</ele>
        <time>2015-07-08T11:57:04.1Z</time>
      </trkpt>
      <trkpt lat="48.10793" lon="7.10195">
        <ele>939</ele>
        <time>2015-07-08T11:57:06.1Z</time>
      </trkpt>
      <trkpt lat="48.10789" lon="7.10203">
        <ele>938</ele>
        <time>2015-07-08T11:57:08.1Z</time>
      </trkpt>
      <trkpt lat="48.10785" lon="7.1021">
        <ele>939</ele>
        <time>2015-07-08T11:57:10.1Z</time>
      </trkpt>
      <trkpt lat="48.10776" lon="7.1022">
        <ele>939</ele>
        <time>2015-07-08T11:57:13.1Z</time>
      </trkpt>
      <trkpt lat="48.1077" lon="7.10229">
        <ele>938</ele>
        <time>2015-07-08T11:57:16.1Z</time>
      </trkpt>
      <trkpt lat="48.10771" lon="7.10245">
        <ele>938</ele>
        <time>2015-07-08T11:57:18.1Z</time>
      </trkpt>
      <trkpt lat="48.10779" lon="7.10251">
        <ele>937</ele>
        <time>2015-07-08T11:57:20.1Z</time>
      </trkpt>
      <trkpt lat="48.10791" lon="7.10248">
        <ele>937</ele>
        <time>2015-07-08T11:57:22.1Z</time>
      </trkpt>
      <trkpt lat="48.10806" lon="7.10243">
        <ele>936</ele>
        <time>2015-07-08T11:57:24.1Z</time>
      </trkpt>
      <trkpt lat="48.10823" lon="7.10246">
        <ele>936</ele>
        <time>2015-07-08T11:57:26.1Z</time>
      </trkpt>
      <trkpt lat="48.1085" lon="7.10265">
        <ele>935</ele>
        <time>2015-07-08T11:57:29.1Z</time>
      </trkpt>
      <trkpt lat="48.10869" lon="7.10285">
        <ele>934</ele>
        <time>2015-07-08T11:57:31.1Z</time>
      </trkpt>
      <trkpt lat="48.10883" lon="7.10299">
        <ele>930</ele>
        <time>2015-07-08T11:57:33.1Z</time>
      </trkpt>
      <trkpt lat="48.10896" lon="7.10309">
        <ele>924</ele>
        <time>2015-07-08T11:57:36.1Z</time>
      </trkpt>
      <trkpt lat="48.10901" lon="7.10312">
        <ele>919</ele>
        <time>2015-07-08T11:57:38.1Z</time>
      </trkpt>
      <trkpt lat="48.10904" lon="7.10316">
        <ele>916</ele>
        <time>2015-07-08T11:57:41.1Z</time>
      </trkpt>
      <trkpt lat="48.1091" lon="7.1032">
        <ele>914</ele>
        <time>2015-07-08T11:57:43.1Z</time>
      </trkpt>
      <trkpt lat="48.10914" lon="7.1032">
        <ele>914</ele>
        <time>2015-07-08T11:57:45.1Z</time>
      </trkpt>
      <trkpt lat="48.10916" lon="7.10319">
        <ele>914</ele>
        <time>2015-07-08T11:57:47.1Z</time>
      </trkpt>
      <trkpt lat="48.10919" lon="7.10318">
        <ele>914</ele>
        <time>2015-07-08T11:57:49.1Z</time>
      </trkpt>
      <trkpt lat="48.10926" lon="7.10319">
        <ele>914</ele>
        <time>2015-07-08T11:57:52.1Z</time>
      </trkpt>
      <trkpt lat="48.10934" lon="7.10319">
        <ele>914</ele>
        <time>2015-07-08T11:57:54.1Z</time>
      </trkpt>
      <trkpt lat="48.10947" lon="7.10316">
        <ele>915</ele>
        <time>2015-07-08T11:57:57.1Z</time>
      </trkpt>
      <trkpt lat="48.10956" lon="7.10315">
        <ele>915</ele>
        <time>2015-07-08T11:57:59.1Z</time>
      </trkpt>
      <trkpt lat="48.10966" lon="7.10314">
        <ele>916</ele>
        <time>2015-07-08T11:58:01.1Z</time>
      </trkpt>
      <trkpt lat="48.10981" lon="7.10311">
        <ele>917</ele>
        <time>2015-07-08T11:58:04.1Z</time>
      </trkpt>
      <trkpt lat="48.10991" lon="7.10308">
        <ele>917</ele>
        <time>2015-07-08T11:58:06.1Z</time>
      </trkpt>
      <trkpt lat="48.11001" lon="7.10304">
        <ele>917</ele>
        <time>2015-07-08T11:58:08.1Z</time>
      </trkpt>
      <trkpt lat="48.11011" lon="7.103">
        <ele>916</ele>
        <time>2015-07-08T11:58:10.1Z</time>
      </trkpt>
      <trkpt lat="48.11025" lon="7.10293">
        <ele>915</ele>
        <time>2015-07-08T11:58:13.1Z</time>
      </trkpt>
      <trkpt lat="48.11035" lon="7.1029">
        <ele>915</ele>
        <time>2015-07-08T11:58:15.1Z</time>
      </trkpt>
      <trkpt lat="48.11045" lon="7.10287">
        <ele>916</ele>
        <time>2015-07-08T11:58:17.1Z</time>
      </trkpt>
      <trkpt lat="48.1106" lon="7.10284">
        <ele>916</ele>
        <time>2015-07-08T11:58:20.1Z</time>
      </trkpt>
      <trkpt lat="48.11068" lon="7.10282">
        <ele>916</ele>
        <time>2015-07-08T11:58:22.1Z</time>
      </trkpt>
      <trkpt lat="48.11077" lon="7.10276">
        <ele>916</ele>
        <time>2015-07-08T11:58:24.1Z</time>
      </trkpt>
      <trkpt lat="48.11091" lon="7.10263">
        <ele>915</ele>
        <time>2015-07-08T11:58:27.1Z</time>
      </trkpt>
      <trkpt lat="48.11103" lon="7.10253">
        <ele>915</ele>
        <time>2015-07-08T11:58:29.1Z</time>
      </trkpt>
      <trkpt lat="48.11118" lon="7.1024">
        <ele>915</ele>
        <time>2015-07-08T11:58:31.1Z</time>
      </trkpt>
      <trkpt lat="48.11131" lon="7.10226">
        <ele>914</ele>
        <time>2015-07-08T11:58:33.1Z</time>
      </trkpt>
      <trkpt lat="48.11154" lon="7.10202">
        <ele>913</ele>
        <time>2015-07-08T11:58:36.1Z</time>
      </trkpt>
      <trkpt lat="48.11169" lon="7.10184">
        <ele>912</ele>
        <time>2015-07-08T11:58:38.1Z</time>
      </trkpt>
      <trkpt lat="48.11191" lon="7.10154">
        <ele>911</ele>
        <time>2015-07-08T11:58:41.1Z</time>
      </trkpt>
      <trkpt lat="48.11204" lon="7.10131">
        <ele>910</ele>
        <time>2015-07-08T11:58:43.1Z</time>
      </trkpt>
      <trkpt lat="48.11211" lon="7.10104">
        <ele>910</ele>
        <time>2015-07-08T11:58:45.1Z</time>
      </trkpt>
      <trkpt lat="48.11213" lon="7.10065">
        <ele>910</ele>
        <time>2015-07-08T11:58:48.1Z</time>
      </trkpt>
      <trkpt lat="48.11212" lon="7.10035">
        <ele>907</ele>
        <time>2015-07-08T11:58:51.1Z</time>
      </trkpt>
      <trkpt lat="48.11213" lon="7.10018">
        <ele>904</ele>
        <time>2015-07-08T11:58:54.1Z</time>
      </trkpt>
      <trkpt lat="48.1122" lon="7.10003">
        <ele>897</ele>
        <time>2015-07-08T11:58:57.1Z</time>
      </trkpt>
      <trkpt lat="48.11219" lon="7.10006">
        <ele>897</ele>
        <time>2015-07-08T11:58:59.1Z</time>
      </trkpt>
      <trkpt lat="48.1122" lon="7.10011">
        <ele>896</ele>
        <time>2015-07-08T11:59:02.1Z</time>
      </trkpt>
      <trkpt lat="48.1122" lon="7.10019">
        <ele>897</ele>
        <time>2015-07-08T11:59:05.1Z</time>
      </trkpt>
      <trkpt lat="48.11221" lon="7.10024">
        <ele>897</ele>
        <time>2015-07-08T11:59:07.1Z</time>
      </trkpt>
      <trkpt lat="48.11221" lon="7.10033">
        <ele>897</ele>
        <time>2015-07-08T11:59:10.1Z</time>
      </trkpt>
      <trkpt lat="48.11222" lon="7.10044">
        <ele>897</ele>
        <time>2015-07-08T11:59:13.1Z</time>
      </trkpt>
      <trkpt lat="48.11222" lon="7.10052">
        <ele>898</ele>
        <time>2015-07-08T11:59:15.1Z</time>
      </trkpt>
      <trkpt lat="48.11223" lon="7.10059">
        <ele>898</ele>
        <time>2015-07-08T11:59:17.1Z</time>
      </trkpt>
      <trkpt lat="48.11223" lon="7.10067">
        <ele>899</ele>
        <time>2015-07-08T11:59:19.1Z</time>
      </trkpt>
      <trkpt lat="48.11224" lon="7.10077">
        <ele>899</ele>
        <time>2015-07-08T11:59:21.1Z</time>
      </trkpt>
      <trkpt lat="48.11223" lon="7.10091">
        <ele>899</ele>
        <time>2015-07-08T11:59:24.1Z</time>
      </trkpt>
      <trkpt lat="48.11221" lon="7.10102">
        <ele>899</ele>
        <time>2015-07-08T11:59:26.1Z</time>
      </trkpt>
      <trkpt lat="48.11218" lon="7.10111">
        <ele>900</ele>
        <time>2015-07-08T11:59:28.1Z</time>
      </trkpt>
      <trkpt lat="48.11215" lon="7.10119">
        <ele>900</ele>
        <time>2015-07-08T11:59:30.1Z</time>
      </trkpt>
      <trkpt lat="48.11209" lon="7.1013">
        <ele>901</ele>
        <time>2015-07-08T11:59:33.1Z</time>
      </trkpt>
      <trkpt lat="48.11204" lon="7.10137">
        <ele>902</ele>
        <time>2015-07-08T11:59:35.1Z</time>
      </trkpt>
      <trkpt lat="48.11198" lon="7.10145">
        <ele>902</ele>
        <time>2015-07-08T11:59:37.1Z</time>
      </trkpt>
      <trkpt lat="48.11192" lon="7.10153">
        <ele>903</ele>
        <time>2015-07-08T11:59:39.1Z</time>
      </trkpt>
      <trkpt lat="48.11186" lon="7.10162">
        <ele>904</ele>
        <time>2015-07-08T11:59:41.1Z</time>
      </trkpt>
      <trkpt lat="48.11179" lon="7.10172">
        <ele>905</ele>
        <time>2015-07-08T11:59:43.1Z</time>
      </trkpt>
      <trkpt lat="48.11173" lon="7.1018">
        <ele>906</ele>
        <time>2015-07-08T11:59:46.1Z</time>
      </trkpt>
      <trkpt lat="48.11167" lon="7.10186">
        <ele>906</ele>
        <time>2015-07-08T11:59:48.1Z</time>
      </trkpt>
      <trkpt lat="48.11153" lon="7.10207">
        <ele>907</ele>
        <time>2015-07-08T11:59:50.1Z</time>
      </trkpt>
      <trkpt lat="48.11152" lon="7.10209">
        <ele>907</ele>
        <time>2015-07-08T11:59:52.1Z</time>
      </trkpt>
      <trkpt lat="48.11148" lon="7.10216">
        <ele>907</ele>
        <time>2015-07-08T11:59:55.1Z</time>
      </trkpt>
      <trkpt lat="48.1114" lon="7.10225">
        <ele>907</ele>
        <time>2015-07-08T11:59:58.1Z</time>
      </trkpt>
      <trkpt lat="48.11135" lon="7.10231">
        <ele>908</ele>
        <time>2015-07-08T12:00:00.1Z</time>
      </trkpt>
      <trkpt lat="48.11128" lon="7.10238">
        <ele>909</ele>
        <time>2015-07-08T12:00:02.1Z</time>
      </trkpt>
      <trkpt lat="48.11116" lon="7.10248">
        <ele>910</ele>
        <time>2015-07-08T12:00:05.1Z</time>
      </trkpt>
      <trkpt lat="48.11109" lon="7.10254">
        <ele>911</ele>
        <time>2015-07-08T12:00:07.1Z</time>
      </trkpt>
      <trkpt lat="48.11102" lon="7.10259">
        <ele>912</ele>
        <time>2015-07-08T12:00:09.1Z</time>
      </trkpt>
      <trkpt lat="48.11097" lon="7.10267">
        <ele>913</ele>
        <time>2015-07-08T12:00:11.1Z</time>
      </trkpt>
      <trkpt lat="48.1109" lon="7.10274">
        <ele>913</ele>
        <time>2015-07-08T12:00:13.1Z</time>
      </trkpt>
      <trkpt lat="48.11083" lon="7.10281">
        <ele>914</ele>
        <time>2015-07-08T12:00:15.1Z</time>
      </trkpt>
      <trkpt lat="48.1107" lon="7.10287">
        <ele>915</ele>
        <time>2015-07-08T12:00:18.1Z</time>
      </trkpt>
      <trkpt lat="48.1106" lon="7.10289">
        <ele>916</ele>
        <time>2015-07-08T12:00:20.1Z</time>
      </trkpt>
      <trkpt lat="48.11052" lon="7.10292">
        <ele>917</ele>
        <time>2015-07-08T12:00:22.1Z</time>
      </trkpt>
      <trkpt lat="48.11042" lon="7.10295">
        <ele>917</ele>
        <time>2015-07-08T12:00:24.1Z</time>
      </trkpt>
      <trkpt lat="48.11028" lon="7.103">
        <ele>917</ele>
        <time>2015-07-08T12:00:27.1Z</time>
      </trkpt>
      <trkpt lat="48.11019" lon="7.10303">
        <ele>917</ele>
        <time>2015-07-08T12:00:29.1Z</time>
      </trkpt>
      <trkpt lat="48.1101" lon="7.10307">
        <ele>917</ele>
        <time>2015-07-08T12:00:31.1Z</time>
      </trkpt>
      <trkpt lat="48.11" lon="7.1031">
        <ele>917</ele>
        <time>2015-07-08T12:00:33.1Z</time>
      </trkpt>
      <trkpt lat="48.10986" lon="7.10315">
        <ele>917</ele>
        <time>2015-07-08T12:00:36.1Z</time>
      </trkpt>
      <trkpt lat="48.10977" lon="7.10317">
        <ele>916</ele>
        <time>2015-07-08T12:00:38.1Z</time>
      </trkpt>
      <trkpt lat="48.10965" lon="7.1032">
        <ele>916</ele>
        <time>2015-07-08T12:00:41.1Z</time>
      </trkpt>
      <trkpt lat="48.10954" lon="7.10321">
        <ele>916</ele>
        <time>2015-07-08T12:00:44.1Z</time>
      </trkpt>
      <trkpt lat="48.10946" lon="7.10322">
        <ele>916</ele>
        <time>2015-07-08T12:00:46.1Z</time>
      </trkpt>
      <trkpt lat="48.10935" lon="7.10323">
        <ele>916</ele>
        <time>2015-07-08T12:00:49.1Z</time>
      </trkpt>
      <trkpt lat="48.10927" lon="7.10324">
        <ele>916</ele>
        <time>2015-07-08T12:00:51.1Z</time>
      </trkpt>
      <trkpt lat="48.1092" lon="7.10326">
        <ele>915</ele>
        <time>2015-07-08T12:00:53.1Z</time>
      </trkpt>
      <trkpt lat="48.10913" lon="7.10327">
        <ele>915</ele>
        <time>2015-07-08T12:00:55.1Z</time>
      </trkpt>
      <trkpt lat="48.10905" lon="7.10328">
        <ele>915</ele>
        <time>2015-07-08T12:00:57.1Z</time>
      </trkpt>
      <trkpt lat="48.10898" lon="7.1033">
        <ele>914</ele>
        <time>2015-07-08T12:00:59.1Z</time>
      </trkpt>
      <trkpt lat="48.10891" lon="7.1033">
        <ele>914</ele>
        <time>2015-07-08T12:01:01.1Z</time>
      </trkpt>
      <trkpt lat="48.10883" lon="7.1033">
        <ele>914</ele>
        <time>2015-07-08T12:01:03.1Z</time>
      </trkpt>
      <trkpt lat="48.1087" lon="7.10331">
        <ele>915</ele>
        <time>2015-07-08T12:01:06.1Z</time>
      </trkpt>
      <trkpt lat="48.10861" lon="7.10331">
        <ele>915</ele>
        <time>2015-07-08T12:01:08.1Z</time>
      </trkpt>
      <trkpt lat="48.10849" lon="7.10332">
        <ele>915</ele>
        <time>2015-07-08T12:01:11.1Z</time>
      </trkpt>
      <trkpt lat="48.1084" lon="7.10334">
        <ele>916</ele>
        <time>2015-07-08T12:01:13.1Z</time>
      </trkpt>
      <trkpt lat="48.10831" lon="7.10334">
        <ele>917</ele>
        <time>2015-07-08T12:01:15.1Z</time>
      </trkpt>
      <trkpt lat="48.10818" lon="7.10334">
        <ele>918</ele>
        <time>2015-07-08T12:01:18.1Z</time>
      </trkpt>
      <trkpt lat="48.10809" lon="7.10334">
        <ele>918</ele>
        <time>2015-07-08T12:01:20.1Z</time>
      </trkpt>
      <trkpt lat="48.10796" lon="7.10331">
        <ele>918</ele>
        <time>2015-07-08T12:01:23.1Z</time>
      </trkpt>
      <trkpt lat="48.10788" lon="7.10327">
        <ele>918</ele>
        <time>2015-07-08T12:01:25.1Z</time>
      </trkpt>
      <trkpt lat="48.1078" lon="7.10323">
        <ele>919</ele>
        <time>2015-07-08T12:01:27.1Z</time>
      </trkpt>
      <trkpt lat="48.10767" lon="7.10318">
        <ele>919</ele>
        <time>2015-07-08T12:01:30.1Z</time>
      </trkpt>
      <trkpt lat="48.10758" lon="7.10318">
        <ele>919</ele>
        <time>2015-07-08T12:01:32.1Z</time>
      </trkpt>
      <trkpt lat="48.10744" lon="7.10321">
        <ele>920</ele>
        <time>2015-07-08T12:01:35.1Z</time>
      </trkpt>
      <trkpt lat="48.10731" lon="7.10322">
        <ele>920</ele>
        <time>2015-07-08T12:01:38.1Z</time>
      </trkpt>
      <trkpt lat="48.10722" lon="7.10323">
        <ele>920</ele>
        <time>2015-07-08T12:01:40.1Z</time>
      </trkpt>
      <trkpt lat="48.10714" lon="7.10325">
        <ele>921</ele>
        <time>2015-07-08T12:01:42.1Z</time>
      </trkpt>
      <trkpt lat="48.10706" lon="7.10327">
        <ele>920</ele>
        <time>2015-07-08T12:01:44.1Z</time>
      </trkpt>
      <trkpt lat="48.10698" lon="7.10328">
        <ele>920</ele>
        <time>2015-07-08T12:01:46.1Z</time>
      </trkpt>
      <trkpt lat="48.1069" lon="7.10328">
        <ele>920</ele>
        <time>2015-07-08T12:01:48.1Z</time>
      </trkpt>
      <trkpt lat="48.10677" lon="7.10329">
        <ele>920</ele>
        <time>2015-07-08T12:01:51.1Z</time>
      </trkpt>
      <trkpt lat="48.1067" lon="7.10329">
        <ele>921</ele>
        <time>2015-07-08T12:01:53.1Z</time>
      </trkpt>
      <trkpt lat="48.10664" lon="7.10328">
        <ele>920</ele>
        <time>2015-07-08T12:01:55.1Z</time>
      </trkpt>
      <trkpt lat="48.10655" lon="7.10325">
        <ele>921</ele>
        <time>2015-07-08T12:01:58.1Z</time>
      </trkpt>
      <trkpt lat="48.10649" lon="7.10323">
        <ele>921</ele>
        <time>2015-07-08T12:02:00.1Z</time>
      </trkpt>
      <trkpt lat="48.1064" lon="7.10318">
        <ele>921</ele>
        <time>2015-07-08T12:02:03.1Z</time>
      </trkpt>
      <trkpt lat="48.10634" lon="7.10314">
        <ele>922</ele>
        <time>2015-07-08T12:02:05.1Z</time>
      </trkpt>
      <trkpt lat="48.10627" lon="7.10311">
        <ele>922</ele>
        <time>2015-07-08T12:02:07.1Z</time>
      </trkpt>
      <trkpt lat="48.10614" lon="7.10307">
        <ele>922</ele>
        <time>2015-07-08T12:02:10.1Z</time>
      </trkpt>
      <trkpt lat="48.10604" lon="7.10308">
        <ele>922</ele>
        <time>2015-07-08T12:02:12.1Z</time>
      </trkpt>
      <trkpt lat="48.10593" lon="7.10311">
        <ele>922</ele>
        <time>2015-07-08T12:02:15.1Z</time>
      </trkpt>
      <trkpt lat="48.10584" lon="7.10317">
        <ele>922</ele>
        <time>2015-07-08T12:02:17.1Z</time>
      </trkpt>
      <trkpt lat="48.10572" lon="7.10328">
        <ele>922</ele>
        <time>2015-07-08T12:02:20.1Z</time>
      </trkpt>
      <trkpt lat="48.10563" lon="7.10333">
        <ele>922</ele>
        <time>2015-07-08T12:02:22.1Z</time>
      </trkpt>
      <trkpt lat="48.10553" lon="7.10338">
        <ele>922</ele>
        <time>2015-07-08T12:02:24.1Z</time>
      </trkpt>
      <trkpt lat="48.10544" lon="7.10344">
        <ele>921</ele>
        <time>2015-07-08T12:02:26.1Z</time>
      </trkpt>
      <trkpt lat="48.10532" lon="7.10354">
        <ele>921</ele>
        <time>2015-07-08T12:02:29.1Z</time>
      </trkpt>
      <trkpt lat="48.10525" lon="7.10362">
        <ele>920</ele>
        <time>2015-07-08T12:02:31.1Z</time>
      </trkpt>
      <trkpt lat="48.10511" lon="7.10374">
        <ele>919</ele>
        <time>2015-07-08T12:02:34.1Z</time>
      </trkpt>
      <trkpt lat="48.10498" lon="7.10386">
        <ele>918</ele>
        <time>2015-07-08T12:02:37.1Z</time>
      </trkpt>
      <trkpt lat="48.10488" lon="7.10391">
        <ele>917</ele>
        <time>2015-07-08T12:02:39.1Z</time>
      </trkpt>
      <trkpt lat="48.10477" lon="7.10395">
        <ele>917</ele>
        <time>2015-07-08T12:02:41.1Z</time>
      </trkpt>
      <trkpt lat="48.10467" lon="7.10399">
        <ele>917</ele>
        <time>2015-07-08T12:02:43.1Z</time>
      </trkpt>
      <trkpt lat="48.10451" lon="7.10407">
        <ele>917</ele>
        <time>2015-07-08T12:02:46.1Z</time>
      </trkpt>
      <trkpt lat="48.10441" lon="7.10414">
        <ele>917</ele>
        <time>2015-07-08T12:02:48.1Z</time>
      </trkpt>
      <trkpt lat="48.10432" lon="7.10422">
        <ele>917</ele>
        <time>2015-07-08T12:02:50.1Z</time>
      </trkpt>
      <trkpt lat="48.10421" lon="7.10431">
        <ele>916</ele>
        <time>2015-07-08T12:02:53.1Z</time>
      </trkpt>
      <trkpt lat="48.10416" lon="7.10436">
        <ele>915</ele>
        <time>2015-07-08T12:02:55.1Z</time>
      </trkpt>
      <trkpt lat="48.1041" lon="7.10441">
        <ele>913</ele>
        <time>2015-07-08T12:02:57.1Z</time>
      </trkpt>
      <trkpt lat="48.10403" lon="7.10446">
        <ele>913</ele>
        <time>2015-07-08T12:02:59.1Z</time>
      </trkpt>
      <trkpt lat="48.10396" lon="7.10453">
        <ele>913</ele>
        <time>2015-07-08T12:03:01.1Z</time>
      </trkpt>
      <trkpt lat="48.10389" lon="7.10461">
        <ele>912</ele>
        <time>2015-07-08T12:03:03.1Z</time>
      </trkpt>
      <trkpt lat="48.10381" lon="7.10469">
        <ele>912</ele>
        <time>2015-07-08T12:03:05.1Z</time>
      </trkpt>
      <trkpt lat="48.10369" lon="7.10483">
        <ele>912</ele>
        <time>2015-07-08T12:03:08.1Z</time>
      </trkpt>
      <trkpt lat="48.10356" lon="7.10498">
        <ele>911</ele>
        <time>2015-07-08T12:03:11.1Z</time>
      </trkpt>
      <trkpt lat="48.10347" lon="7.1051">
        <ele>910</ele>
        <time>2015-07-08T12:03:13.1Z</time>
      </trkpt>
      <trkpt lat="48.10338" lon="7.10521">
        <ele>910</ele>
        <time>2015-07-08T12:03:15.1Z</time>
      </trkpt>
      <trkpt lat="48.10329" lon="7.10532">
        <ele>909</ele>
        <time>2015-07-08T12:03:17.1Z</time>
      </trkpt>
      <trkpt lat="48.10319" lon="7.10543">
        <ele>908</ele>
        <time>2015-07-08T12:03:19.1Z</time>
      </trkpt>
      <trkpt lat="48.10302" lon="7.1056">
        <ele>908</ele>
        <time>2015-07-08T12:03:22.1Z</time>
      </trkpt>
      <trkpt lat="48.10291" lon="7.1057">
        <ele>907</ele>
        <time>2015-07-08T12:03:24.1Z</time>
      </trkpt>
      <trkpt lat="48.10282" lon="7.10578">
        <ele>906</ele>
        <time>2015-07-08T12:03:26.1Z</time>
      </trkpt>
      <trkpt lat="48.10277" lon="7.10584">
        <ele>905</ele>
        <time>2015-07-08T12:03:28.1Z</time>
      </trkpt>
      <trkpt lat="48.10274" lon="7.10587">
        <ele>905</ele>
        <time>2015-07-08T12:03:30.1Z</time>
      </trkpt>
      <trkpt lat="48.1027" lon="7.10591">
        <ele>904</ele>
        <time>2015-07-08T12:03:32.1Z</time>
      </trkpt>
      <trkpt lat="48.10263" lon="7.10598">
        <ele>904</ele>
        <time>2015-07-08T12:03:35.1Z</time>
      </trkpt>
      <trkpt lat="48.10258" lon="7.10604">
        <ele>904</ele>
        <time>2015-07-08T12:03:37.1Z</time>
      </trkpt>
      <trkpt lat="48.10254" lon="7.10611">
        <ele>904</ele>
        <time>2015-07-08T12:03:39.1Z</time>
      </trkpt>
      <trkpt lat="48.10249" lon="7.10617">
        <ele>904</ele>
        <time>2015-07-08T12:03:41.1Z</time>
      </trkpt>
      <trkpt lat="48.10244" lon="7.10623">
        <ele>903</ele>
        <time>2015-07-08T12:03:43.1Z</time>
      </trkpt>
      <trkpt lat="48.1024" lon="7.10629">
        <ele>903</ele>
        <time>2015-07-08T12:03:45.1Z</time>
      </trkpt>
      <trkpt lat="48.10234" lon="7.10637">
        <ele>903</ele>
        <time>2015-07-08T12:03:48.1Z</time>
      </trkpt>
      <trkpt lat="48.10229" lon="7.10642">
        <ele>903</ele>
        <time>2015-07-08T12:03:50.1Z</time>
      </trkpt>
      <trkpt lat="48.10222" lon="7.10647">
        <ele>903</ele>
        <time>2015-07-08T12:03:52.1Z</time>
      </trkpt>
      <trkpt lat="48.10216" lon="7.10654">
        <ele>903</ele>
        <time>2015-07-08T12:03:54.1Z</time>
      </trkpt>
      <trkpt lat="48.10211" lon="7.10662">
        <ele>903</ele>
        <time>2015-07-08T12:03:56.1Z</time>
      </trkpt>
      <trkpt lat="48.10203" lon="7.10672">
        <ele>903</ele>
        <time>2015-07-08T12:03:59.1Z</time>
      </trkpt>
      <trkpt lat="48.10197" lon="7.10678">
        <ele>903</ele>
        <time>2015-07-08T12:04:01.1Z</time>
      </trkpt>
      <trkpt lat="48.10186" lon="7.10689">
        <ele>903</ele>
        <time>2015-07-08T12:04:04.1Z</time>
      </trkpt>
      <trkpt lat="48.10178" lon="7.10695">
        <ele>903</ele>
        <time>2015-07-08T12:04:06.1Z</time>
      </trkpt>
      <trkpt lat="48.10167" lon="7.10705">
        <ele>903</ele>
        <time>2015-07-08T12:04:09.1Z</time>
      </trkpt>
      <trkpt lat="48.10161" lon="7.10713">
        <ele>902</ele>
        <time>2015-07-08T12:04:11.1Z</time>
      </trkpt>
      <trkpt lat="48.10155" lon="7.10721">
        <ele>902</ele>
        <time>2015-07-08T12:04:13.1Z</time>
      </trkpt>
      <trkpt lat="48.10148" lon="7.10732">
        <ele>903</ele>
        <time>2015-07-08T12:04:16.1Z</time>
      </trkpt>
      <trkpt lat="48.10141" lon="7.10744">
        <ele>903</ele>
        <time>2015-07-08T12:04:19.1Z</time>
      </trkpt>
      <trkpt lat="48.10134" lon="7.10757">
        <ele>903</ele>
        <time>2015-07-08T12:04:22.1Z</time>
      </trkpt>
      <trkpt lat="48.10125" lon="7.10769">
        <ele>903</ele>
        <time>2015-07-08T12:04:25.1Z</time>
      </trkpt>
      <trkpt lat="48.10118" lon="7.10778">
        <ele>903</ele>
        <time>2015-07-08T12:04:27.1Z</time>
      </trkpt>
      <trkpt lat="48.10112" lon="7.10786">
        <ele>902</ele>
        <time>2015-07-08T12:04:29.1Z</time>
      </trkpt>
      <trkpt lat="48.10108" lon="7.10792">
        <ele>902</ele>
        <time>2015-07-08T12:04:31.1Z</time>
      </trkpt>
      <trkpt lat="48.10102" lon="7.108">
        <ele>901</ele>
        <time>2015-07-08T12:04:34.1Z</time>
      </trkpt>
      <trkpt lat="48.10098" lon="7.10805">
        <ele>900</ele>
        <time>2015-07-08T12:04:36.1Z</time>
      </trkpt>
      <trkpt lat="48.10093" lon="7.10813">
        <ele>900</ele>
        <time>2015-07-08T12:04:38.1Z</time>
      </trkpt>
      <trkpt lat="48.10083" lon="7.1083">
        <ele>899</ele>
        <time>2015-07-08T12:04:41.1Z</time>
      </trkpt>
      <trkpt lat="48.10078" lon="7.10859">
        <ele>897</ele>
        <time>2015-07-08T12:04:44.1Z</time>
      </trkpt>
      <trkpt lat="48.10075" lon="7.10887">
        <ele>896</ele>
        <time>2015-07-08T12:04:46.1Z</time>
      </trkpt>
      <trkpt lat="48.10075" lon="7.1092">
        <ele>894</ele>
        <time>2015-07-08T12:04:48.1Z</time>
      </trkpt>
      <trkpt lat="48.10077" lon="7.10969">
        <ele>892</ele>
        <time>2015-07-08T12:04:51.1Z</time>
      </trkpt>
      <trkpt lat="48.10083" lon="7.11001">
        <ele>889</ele>
        <time>2015-07-08T12:04:53.1Z</time>
      </trkpt>
      <trkpt lat="48.10094" lon="7.11034">
        <ele>888</ele>
        <time>2015-07-08T12:04:55.1Z</time>
      </trkpt>
      <trkpt lat="48.10106" lon="7.11067">
        <ele>885</ele>
        <time>2015-07-08T12:04:57.1Z</time>
      </trkpt>
      <trkpt lat="48.1012" lon="7.11101">
        <ele>884</ele>
        <time>2015-07-08T12:04:59.1Z</time>
      </trkpt>
      <trkpt lat="48.10143" lon="7.11151">
        <ele>880</ele>
        <time>2015-07-08T12:05:02.1Z</time>
      </trkpt>
      <trkpt lat="48.10158" lon="7.11187">
        <ele>875</ele>
        <time>2015-07-08T12:05:04.1Z</time>
      </trkpt>
      <trkpt lat="48.10177" lon="7.11235">
        <ele>869</ele>
        <time>2015-07-08T12:05:07.1Z</time>
      </trkpt>
      <trkpt lat="48.10183" lon="7.11256">
        <ele>862</ele>
        <time>2015-07-08T12:05:09.1Z</time>
      </trkpt>
      <trkpt lat="48.10183" lon="7.11268">
        <ele>854</ele>
        <time>2015-07-08T12:05:11.1Z</time>
      </trkpt>
      <trkpt lat="48.10174" lon="7.11276">
        <ele>847</ele>
        <time>2015-07-08T12:05:14.1Z</time>
      </trkpt>
      <trkpt lat="48.10168" lon="7.11277">
        <ele>846</ele>
        <time>2015-07-08T12:05:16.1Z</time>
      </trkpt>
      <trkpt lat="48.10161" lon="7.11278">
        <ele>846</ele>
        <time>2015-07-08T12:05:19.1Z</time>
      </trkpt>
      <trkpt lat="48.10152" lon="7.11278">
        <ele>847</ele>
        <time>2015-07-08T12:05:22.1Z</time>
      </trkpt>
      <trkpt lat="48.10147" lon="7.11278">
        <ele>847</ele>
        <time>2015-07-08T12:05:24.1Z</time>
      </trkpt>
      <trkpt lat="48.10144" lon="7.11278">
        <ele>847</ele>
        <time>2015-07-08T12:05:26.1Z</time>
      </trkpt>
      <trkpt lat="48.1014" lon="7.11278">
        <ele>847</ele>
        <time>2015-07-08T12:05:28.1Z</time>
      </trkpt>
      <trkpt lat="48.10135" lon="7.11277">
        <ele>847</ele>
        <time>2015-07-08T12:05:30.1Z</time>
      </trkpt>
      <trkpt lat="48.1013" lon="7.11278">
        <ele>847</ele>
        <time>2015-07-08T12:05:32.1Z</time>
      </trkpt>
      <trkpt lat="48.10125" lon="7.11278">
        <ele>847</ele>
        <time>2015-07-08T12:05:34.1Z</time>
      </trkpt>
      <trkpt lat="48.10117" lon="7.11277">
        <ele>848</ele>
        <time>2015-07-08T12:05:37.1Z</time>
      </trkpt>
      <trkpt lat="48.10113" lon="7.11277">
        <ele>848</ele>
        <time>2015-07-08T12:05:39.1Z</time>
      </trkpt>
      <trkpt lat="48.1011" lon="7.11276">
        <ele>848</ele>
        <time>2015-07-08T12:05:41.1Z</time>
      </trkpt>
      <trkpt lat="48.10106" lon="7.11276">
        <ele>848</ele>
        <time>2015-07-08T12:05:43.1Z</time>
      </trkpt>
      <trkpt lat="48.10101" lon="7.11276">
        <ele>849</ele>
        <time>2015-07-08T12:05:45.1Z</time>
      </trkpt>
      <trkpt lat="48.10094" lon="7.11276">
        <ele>850</ele>
        <time>2015-07-08T12:05:48.1Z</time>
      </trkpt>
      <trkpt lat="48.10089" lon="7.11276">
        <ele>850</ele>
        <time>2015-07-08T12:05:50.1Z</time>
      </trkpt>
      <trkpt lat="48.10082" lon="7.11275">
        <ele>850</ele>
        <time>2015-07-08T12:05:53.1Z</time>
      </trkpt>
      <trkpt lat="48.10075" lon="7.11274">
        <ele>850</ele>
        <time>2015-07-08T12:05:56.1Z</time>
      </trkpt>
      <trkpt lat="48.10068" lon="7.11273">
        <ele>850</ele>
        <time>2015-07-08T12:05:58.1Z</time>
      </trkpt>
      <trkpt lat="48.10055" lon="7.11271">
        <ele>850</ele>
        <time>2015-07-08T12:06:01.1Z</time>
      </trkpt>
      <trkpt lat="48.10045" lon="7.11268">
        <ele>850</ele>
        <time>2015-07-08T12:06:03.1Z</time>
      </trkpt>
      <trkpt lat="48.10034" lon="7.11264">
        <ele>851</ele>
        <time>2015-07-08T12:06:05.1Z</time>
      </trkpt>
      <trkpt lat="48.10016" lon="7.1126">
        <ele>851</ele>
        <time>2015-07-08T12:06:08.1Z</time>
      </trkpt>
      <trkpt lat="48.10003" lon="7.11259">
        <ele>851</ele>
        <time>2015-07-08T12:06:10.1Z</time>
      </trkpt>
      <trkpt lat="48.0999" lon="7.11256">
        <ele>851</ele>
        <time>2015-07-08T12:06:12.1Z</time>
      </trkpt>
      <trkpt lat="48.0997" lon="7.11248">
        <ele>851</ele>
        <time>2015-07-08T12:06:15.1Z</time>
      </trkpt>
      <trkpt lat="48.09953" lon="7.11234">
        <ele>851</ele>
        <time>2015-07-08T12:06:18.1Z</time>
      </trkpt>
      <trkpt lat="48.09943" lon="7.11225">
        <ele>850</ele>
        <time>2015-07-08T12:06:20.1Z</time>
      </trkpt>
      <trkpt lat="48.09927" lon="7.11215">
        <ele>849</ele>
        <time>2015-07-08T12:06:23.1Z</time>
      </trkpt>
      <trkpt lat="48.09915" lon="7.11209">
        <ele>848</ele>
        <time>2015-07-08T12:06:25.1Z</time>
      </trkpt>
      <trkpt lat="48.09903" lon="7.11205">
        <ele>847</ele>
        <time>2015-07-08T12:06:27.1Z</time>
      </trkpt>
      <trkpt lat="48.09893" lon="7.11201">
        <ele>846</ele>
        <time>2015-07-08T12:06:29.1Z</time>
      </trkpt>
      <trkpt lat="48.09883" lon="7.11198">
        <ele>846</ele>
        <time>2015-07-08T12:06:31.1Z</time>
      </trkpt>
      <trkpt lat="48.09877" lon="7.11196">
        <ele>846</ele>
        <time>2015-07-08T12:06:33.1Z</time>
      </trkpt>
      <trkpt lat="48.09867" lon="7.11193">
        <ele>845</ele>
        <time>2015-07-08T12:06:36.1Z</time>
      </trkpt>
      <trkpt lat="48.09861" lon="7.11189">
        <ele>846</ele>
        <time>2015-07-08T12:06:38.1Z</time>
      </trkpt>
      <trkpt lat="48.09852" lon="7.11179">
        <ele>846</ele>
        <time>2015-07-08T12:06:41.1Z</time>
      </trkpt>
      <trkpt lat="48.09845" lon="7.11169">
        <ele>847</ele>
        <time>2015-07-08T12:06:44.1Z</time>
      </trkpt>
      <trkpt lat="48.09842" lon="7.11162">
        <ele>848</ele>
        <time>2015-07-08T12:06:46.1Z</time>
      </trkpt>
      <trkpt lat="48.09838" lon="7.11155">
        <ele>848</ele>
        <time>2015-07-08T12:06:48.1Z</time>
      </trkpt>
      <trkpt lat="48.09834" lon="7.11149">
        <ele>849</ele>
        <time>2015-07-08T12:06:50.1Z</time>
      </trkpt>
      <trkpt lat="48.09824" lon="7.11144">
        <ele>850</ele>
        <time>2015-07-08T12:06:53.1Z</time>
      </trkpt>
      <trkpt lat="48.09815" lon="7.11142">
        <ele>851</ele>
        <time>2015-07-08T12:06:56.1Z</time>
      </trkpt>
      <trkpt lat="48.09808" lon="7.11141">
        <ele>851</ele>
        <time>2015-07-08T12:06:58.1Z</time>
      </trkpt>
      <trkpt lat="48.09795" lon="7.11141">
        <ele>853</ele>
        <time>2015-07-08T12:07:01.1Z</time>
      </trkpt>
      <trkpt lat="48.0978" lon="7.1114">
        <ele>854</ele>
        <time>2015-07-08T12:07:04.1Z</time>
      </trkpt>
      <trkpt lat="48.09771" lon="7.11141">
        <ele>855</ele>
        <time>2015-07-08T12:07:06.1Z</time>
      </trkpt>
      <trkpt lat="48.09763" lon="7.11143">
        <ele>857</ele>
        <time>2015-07-08T12:07:08.1Z</time>
      </trkpt>
      <trkpt lat="48.09752" lon="7.11145">
        <ele>858</ele>
        <time>2015-07-08T12:07:11.1Z</time>
      </trkpt>
      <trkpt lat="48.09747" lon="7.11146">
        <ele>859</ele>
        <time>2015-07-08T12:07:13.1Z</time>
      </trkpt>
      <trkpt lat="48.09741" lon="7.11146">
        <ele>860</ele>
        <time>2015-07-08T12:07:15.1Z</time>
      </trkpt>
      <trkpt lat="48.09734" lon="7.11147">
        <ele>860</ele>
        <time>2015-07-08T12:07:17.1Z</time>
      </trkpt>
      <trkpt lat="48.09728" lon="7.11147">
        <ele>861</ele>
        <time>2015-07-08T12:07:19.1Z</time>
      </trkpt>
      <trkpt lat="48.09719" lon="7.11148">
        <ele>862</ele>
        <time>2015-07-08T12:07:22.1Z</time>
      </trkpt>
      <trkpt lat="48.0971" lon="7.11149">
        <ele>862</ele>
        <time>2015-07-08T12:07:25.1Z</time>
      </trkpt>
      <trkpt lat="48.09703" lon="7.11151">
        <ele>863</ele>
        <time>2015-07-08T12:07:27.1Z</time>
      </trkpt>
      <trkpt lat="48.09697" lon="7.11152">
        <ele>864</ele>
        <time>2015-07-08T12:07:29.1Z</time>
      </trkpt>
      <trkpt lat="48.0969" lon="7.11154">
        <ele>864</ele>
        <time>2015-07-08T12:07:31.1Z</time>
      </trkpt>
      <trkpt lat="48.09684" lon="7.11155">
        <ele>864</ele>
        <time>2015-07-08T12:07:33.1Z</time>
      </trkpt>
      <trkpt lat="48.09678" lon="7.11157">
        <ele>865</ele>
        <time>2015-07-08T12:07:35.1Z</time>
      </trkpt>
      <trkpt lat="48.09671" lon="7.11157">
        <ele>865</ele>
        <time>2015-07-08T12:07:37.1Z</time>
      </trkpt>
      <trkpt lat="48.0966" lon="7.11158">
        <ele>865</ele>
        <time>2015-07-08T12:07:40.1Z</time>
      </trkpt>
      <trkpt lat="48.09653" lon="7.11158">
        <ele>866</ele>
        <time>2015-07-08T12:07:42.1Z</time>
      </trkpt>
      <trkpt lat="48.09642" lon="7.11158">
        <ele>866</ele>
        <time>2015-07-08T12:07:45.1Z</time>
      </trkpt>
      <trkpt lat="48.09636" lon="7.11158">
        <ele>866</ele>
        <time>2015-07-08T12:07:47.1Z</time>
      </trkpt>
      <trkpt lat="48.0963" lon="7.11157">
        <ele>866</ele>
        <time>2015-07-08T12:07:49.1Z</time>
      </trkpt>
      <trkpt lat="48.09623" lon="7.11156">
        <ele>865</ele>
        <time>2015-07-08T12:07:52.1Z</time>
      </trkpt>
      <trkpt lat="48.09618" lon="7.11155">
        <ele>865</ele>
        <time>2015-07-08T12:07:54.1Z</time>
      </trkpt>
      <trkpt lat="48.0961" lon="7.11154">
        <ele>866</ele>
        <time>2015-07-08T12:07:57.1Z</time>
      </trkpt>
      <trkpt lat="48.096" lon="7.11152">
        <ele>866</ele>
        <time>2015-07-08T12:08:00.1Z</time>
      </trkpt>
      <trkpt lat="48.09592" lon="7.11151">
        <ele>866</ele>
        <time>2015-07-08T12:08:02.1Z</time>
      </trkpt>
      <trkpt lat="48.09581" lon="7.11149">
        <ele>866</ele>
        <time>2015-07-08T12:08:05.1Z</time>
      </trkpt>
      <trkpt lat="48.0957" lon="7.11148">
        <ele>867</ele>
        <time>2015-07-08T12:08:08.1Z</time>
      </trkpt>
      <trkpt lat="48.09563" lon="7.11147">
        <ele>867</ele>
        <time>2015-07-08T12:08:10.1Z</time>
      </trkpt>
      <trkpt lat="48.09553" lon="7.11146">
        <ele>866</ele>
        <time>2015-07-08T12:08:13.1Z</time>
      </trkpt>
      <trkpt lat="48.09131" lon="7.1123">
        <ele>896</ele>
        <time>2015-07-08T12:08:18.1Z</time>
      </trkpt>
      <trkpt lat="48.0913" lon="7.1123">
        <ele>896</ele>
        <time>2015-07-08T12:08:20.1Z</time>
      </trkpt>
      <trkpt lat="48.09127" lon="7.11229">
        <ele>896</ele>
        <time>2015-07-08T12:08:23.1Z</time>
      </trkpt>
      <trkpt lat="48.09121" lon="7.11224">
        <ele>896</ele>
        <time>2015-07-08T12:08:26.1Z</time>
      </trkpt>
      <trkpt lat="48.09118" lon="7.11223">
        <ele>896</ele>
        <time>2015-07-08T12:08:28.1Z</time>
      </trkpt>
      <trkpt lat="48.09116" lon="7.1122">
        <ele>896</ele>
        <time>2015-07-08T12:08:30.1Z</time>
      </trkpt>
      <trkpt lat="48.09112" lon="7.11218">
        <ele>896</ele>
        <time>2015-07-08T12:08:32.1Z</time>
      </trkpt>
      <trkpt lat="48.09106" lon="7.11219">
        <ele>896</ele>
        <time>2015-07-08T12:08:35.1Z</time>
      </trkpt>
      <trkpt lat="48.09097" lon="7.11219">
        <ele>896</ele>
        <time>2015-07-08T12:08:38.1Z</time>
      </trkpt>
      <trkpt lat="48.09085" lon="7.11221">
        <ele>897</ele>
        <time>2015-07-08T12:08:41.1Z</time>
      </trkpt>
      <trkpt lat="48.09077" lon="7.11221">
        <ele>897</ele>
        <time>2015-07-08T12:08:43.1Z</time>
      </trkpt>
      <trkpt lat="48.09066" lon="7.1121">
        <ele>897</ele>
        <time>2015-07-08T12:08:46.1Z</time>
      </trkpt>
      <trkpt lat="48.09059" lon="7.112">
        <ele>896</ele>
        <time>2015-07-08T12:08:48.1Z</time>
      </trkpt>
      <trkpt lat="48.09053" lon="7.1119">
        <ele>896</ele>
        <time>2015-07-08T12:08:50.1Z</time>
      </trkpt>
      <trkpt lat="48.09046" lon="7.1118">
        <ele>895</ele>
        <time>2015-07-08T12:08:53.1Z</time>
      </trkpt>
      <trkpt lat="48.09043" lon="7.11175">
        <ele>894</ele>
        <time>2015-07-08T12:08:55.1Z</time>
      </trkpt>
      <trkpt lat="48.09041" lon="7.11171">
        <ele>894</ele>
        <time>2015-07-08T12:08:57.1Z</time>
      </trkpt>
      <trkpt lat="48.09035" lon="7.11161">
        <ele>894</ele>
        <time>2015-07-08T12:09:00.1Z</time>
      </trkpt>
      <trkpt lat="48.09031" lon="7.11154">
        <ele>895</ele>
        <time>2015-07-08T12:09:02.1Z</time>
      </trkpt>
      <trkpt lat="48.09024" lon="7.11142">
        <ele>895</ele>
        <time>2015-07-08T12:09:05.1Z</time>
      </trkpt>
      <trkpt lat="48.09021" lon="7.11137">
        <ele>895</ele>
        <time>2015-07-08T12:09:07.1Z</time>
      </trkpt>
      <trkpt lat="48.09019" lon="7.11134">
        <ele>894</ele>
        <time>2015-07-08T12:09:09.1Z</time>
      </trkpt>
      <trkpt lat="48.09018" lon="7.11134">
        <ele>893</ele>
        <time>2015-07-08T12:09:11.1Z</time>
      </trkpt>
      <trkpt lat="48.09017" lon="7.11133">
        <ele>893</ele>
        <time>2015-07-08T12:09:13.1Z</time>
      </trkpt>
      <trkpt lat="48.09012" lon="7.11126">
        <ele>894</ele>
        <time>2015-07-08T12:09:16.1Z</time>
      </trkpt>
      <trkpt lat="48.09003" lon="7.11109">
        <ele>895</ele>
        <time>2015-07-08T12:09:19.1Z</time>
      </trkpt>
      <trkpt lat="48.0899" lon="7.11087">
        <ele>895</ele>
        <time>2015-07-08T12:09:22.1Z</time>
      </trkpt>
      <trkpt lat="48.08976" lon="7.11066">
        <ele>894</ele>
        <time>2015-07-08T12:09:25.1Z</time>
      </trkpt>
      <trkpt lat="48.08967" lon="7.11054">
        <ele>891</ele>
        <time>2015-07-08T12:09:27.1Z</time>
      </trkpt>
      <trkpt lat="48.08958" lon="7.11041">
        <ele>889</ele>
        <time>2015-07-08T12:09:30.1Z</time>
      </trkpt>
      <trkpt lat="48.08953" lon="7.11037">
        <ele>887</ele>
        <time>2015-07-08T12:09:32.1Z</time>
      </trkpt>
      <trkpt lat="48.08949" lon="7.11032">
        <ele>885</ele>
        <time>2015-07-08T12:09:34.1Z</time>
      </trkpt>
      <trkpt lat="48.08936" lon="7.11021">
        <ele>885</ele>
        <time>2015-07-08T12:09:37.1Z</time>
      </trkpt>
      <trkpt lat="48.08926" lon="7.11014">
        <ele>885</ele>
        <time>2015-07-08T12:09:39.1Z</time>
      </trkpt>
      <trkpt lat="48.08915" lon="7.11007">
        <ele>884</ele>
        <time>2015-07-08T12:09:41.1Z</time>
      </trkpt>
      <trkpt lat="48.08901" lon="7.10989">
        <ele>885</ele>
        <time>2015-07-08T12:09:44.1Z</time>
      </trkpt>
      <trkpt lat="48.08895" lon="7.10977">
        <ele>884</ele>
        <time>2015-07-08T12:09:46.1Z</time>
      </trkpt>
      <trkpt lat="48.08891" lon="7.10967">
        <ele>883</ele>
        <time>2015-07-08T12:09:48.1Z</time>
      </trkpt>
      <trkpt lat="48.08888" lon="7.10956">
        <ele>882</ele>
        <time>2015-07-08T12:09:50.1Z</time>
      </trkpt>
      <trkpt lat="48.08884" lon="7.10949">
        <ele>880</ele>
        <time>2015-07-08T12:09:52.1Z</time>
      </trkpt>
      <trkpt lat="48.08881" lon="7.10942">
        <ele>878</ele>
        <time>2015-07-08T12:09:54.1Z</time>
      </trkpt>
      <trkpt lat="48.08875" lon="7.10932">
        <ele>877</ele>
        <time>2015-07-08T12:09:57.1Z</time>
      </trkpt>
      <trkpt lat="48.0887" lon="7.10922">
        <ele>876</ele>
        <time>2015-07-08T12:09:59.1Z</time>
      </trkpt>
      <trkpt lat="48.08866" lon="7.10914">
        <ele>876</ele>
        <time>2015-07-08T12:10:01.1Z</time>
      </trkpt>
      <trkpt lat="48.08861" lon="7.10912">
        <ele>875</ele>
        <time>2015-07-08T12:10:03.1Z</time>
      </trkpt>
      <trkpt lat="48.08857" lon="7.10914">
        <ele>873</ele>
        <time>2015-07-08T12:10:06.1Z</time>
      </trkpt>
      <trkpt lat="48.08854" lon="7.10921">
        <ele>872</ele>
        <time>2015-07-08T12:10:08.1Z</time>
      </trkpt>
      <trkpt lat="48.08851" lon="7.10939">
        <ele>870</ele>
        <time>2015-07-08T12:10:11.1Z</time>
      </trkpt>
      <trkpt lat="48.08848" lon="7.10952">
        <ele>870</ele>
        <time>2015-07-08T12:10:13.1Z</time>
      </trkpt>
      <trkpt lat="48.08846" lon="7.10966">
        <ele>870</ele>
        <time>2015-07-08T12:10:15.1Z</time>
      </trkpt>
      <trkpt lat="48.08845" lon="7.10981">
        <ele>870</ele>
        <time>2015-07-08T12:10:17.1Z</time>
      </trkpt>
      <trkpt lat="48.08847" lon="7.11004">
        <ele>870</ele>
        <time>2015-07-08T12:10:20.1Z</time>
      </trkpt>
      <trkpt lat="48.0885" lon="7.11019">
        <ele>870</ele>
        <time>2015-07-08T12:10:22.1Z</time>
      </trkpt>
      <trkpt lat="48.08845" lon="7.11043">
        <ele>869</ele>
        <time>2015-07-08T12:10:25.1Z</time>
      </trkpt>
      <trkpt lat="48.08838" lon="7.1106">
        <ele>868</ele>
        <time>2015-07-08T12:10:27.1Z</time>
      </trkpt>
      <trkpt lat="48.08834" lon="7.11079">
        <ele>867</ele>
        <time>2015-07-08T12:10:29.1Z</time>
      </trkpt>
      <trkpt lat="48.08838" lon="7.11111">
        <ele>868</ele>
        <time>2015-07-08T12:10:32.1Z</time>
      </trkpt>
      <trkpt lat="48.08844" lon="7.11133">
        <ele>868</ele>
        <time>2015-07-08T12:10:34.1Z</time>
      </trkpt>
      <trkpt lat="48.08855" lon="7.11167">
        <ele>868</ele>
        <time>2015-07-08T12:10:37.1Z</time>
      </trkpt>
      <trkpt lat="48.08868" lon="7.11187">
        <ele>867</ele>
        <time>2015-07-08T12:10:39.1Z</time>
      </trkpt>
      <trkpt lat="48.08892" lon="7.11215">
        <ele>866</ele>
        <time>2015-07-08T12:10:42.1Z</time>
      </trkpt>
      <trkpt lat="48.08906" lon="7.11236">
        <ele>863</ele>
        <time>2015-07-08T12:10:44.1Z</time>
      </trkpt>
      <trkpt lat="48.08914" lon="7.11267">
        <ele>861</ele>
        <time>2015-07-08T12:10:46.1Z</time>
      </trkpt>
      <trkpt lat="48.08916" lon="7.11301">
        <ele>859</ele>
        <time>2015-07-08T12:10:48.1Z</time>
      </trkpt>
      <trkpt lat="48.0891" lon="7.11335">
        <ele>856</ele>
        <time>2015-07-08T12:10:50.1Z</time>
      </trkpt>
      <trkpt lat="48.08896" lon="7.11379">
        <ele>852</ele>
        <time>2015-07-08T12:10:53.1Z</time>
      </trkpt>
      <trkpt lat="48.08885" lon="7.11407">
        <ele>850</ele>
        <time>2015-07-08T12:10:55.1Z</time>
      </trkpt>
      <trkpt lat="48.08873" lon="7.11434">
        <ele>849</ele>
        <time>2015-07-08T12:10:57.1Z</time>
      </trkpt>
      <trkpt lat="48.08851" lon="7.11473">
        <ele>848</ele>
        <time>2015-07-08T12:11:00.1Z</time>
      </trkpt>
      <trkpt lat="48.08836" lon="7.11499">
        <ele>846</ele>
        <time>2015-07-08T12:11:01.1Z</time>
      </trkpt>
      <trkpt lat="48.08822" lon="7.11526">
        <ele>845</ele>
        <time>2015-07-08T12:11:03.1Z</time>
      </trkpt>
    </trkseg>
  </trk>
</gpx>